<?xml version="1.0" encoding="UTF-8" standalone="no" ?>
<gpx xmlns="http://www.topografix.com/GPX/1/1" xmlns:xsi="http://www.w3.org/2001/XMLSchema-instance" xsi:schemaLocation="http://www.topografix.com/GPX/1/1 http://www.topografix.com/GPX/1/1/gpx.xsd" version="1.1" creator="VisuGPX - https://www.visugpx.com">
  <metadata>
    <name>88 Kms TOAC - Lapeyrouse Fossat</name>
    <desc><![CDATA[Concentration FFvélo à Lapeyrouse-Fossat]]></desc>
  </metadata>
  <trk>
    <name><![CDATA[88 Kms TOAC - Lapeyrouse Fossat]]></name>
    <trkseg>
      <trkpt lat="43.62242" lon="1.40819">
        <ele>131.65912226406</ele>
        <time>2021-10-12T21:19:57.000Z</time>
      </trkpt>
      <trkpt lat="43.62276" lon="1.40819">
        <ele>131.68502535556</ele>
        <time>2021-10-12T21:19:57.006Z</time>
      </trkpt>
      <trkpt lat="43.62328" lon="1.40819">
        <ele>131.71823940537</ele>
        <time>2021-10-12T21:19:57.020Z</time>
      </trkpt>
      <trkpt lat="43.62417" lon="1.40991">
        <ele>131.51295443279</ele>
        <time>2021-10-12T21:19:57.058Z</time>
      </trkpt>
      <trkpt lat="43.62417" lon="1.40991">
        <ele>131.43863198294</ele>
        <time>2021-10-12T21:19:57.096Z</time>
      </trkpt>
      <trkpt lat="43.62437" lon="1.41028">
        <ele>131.53287416272</ele>
        <time>2021-10-12T21:19:57.140Z</time>
      </trkpt>
      <trkpt lat="43.62439" lon="1.41042">
        <ele>131.65367674327</ele>
        <time>2021-10-12T21:19:57.185Z</time>
      </trkpt>
      <trkpt lat="43.62435" lon="1.41057">
        <ele>131.82030240134</ele>
        <time>2021-10-12T21:19:57.232Z</time>
      </trkpt>
      <trkpt lat="43.62422" lon="1.41079">
        <ele>131.97743137171</ele>
        <time>2021-10-12T21:19:57.283Z</time>
      </trkpt>
      <trkpt lat="43.62421" lon="1.41082">
        <ele>132.13728632528</ele>
        <time>2021-10-12T21:19:57.334Z</time>
      </trkpt>
      <trkpt lat="43.62419" lon="1.41091">
        <ele>132.30566652441</ele>
        <time>2021-10-12T21:19:57.386Z</time>
      </trkpt>
      <trkpt lat="43.6242" lon="1.41101">
        <ele>132.49256333707</ele>
        <time>2021-10-12T21:19:57.439Z</time>
      </trkpt>
      <trkpt lat="43.62422" lon="1.41111">
        <ele>132.68499609836</ele>
        <time>2021-10-12T21:19:57.493Z</time>
      </trkpt>
      <trkpt lat="43.62419" lon="1.41119">
        <ele>132.8512533369</ele>
        <time>2021-10-12T21:19:57.548Z</time>
      </trkpt>
      <trkpt lat="43.62418" lon="1.41125">
        <ele>133.00843066709</ele>
        <time>2021-10-12T21:19:57.604Z</time>
      </trkpt>
      <trkpt lat="43.6242" lon="1.41138">
        <ele>133.19246201295</ele>
        <time>2021-10-12T21:19:57.662Z</time>
      </trkpt>
      <trkpt lat="43.62426" lon="1.41149">
        <ele>133.38696161416</ele>
        <time>2021-10-12T21:19:57.721Z</time>
      </trkpt>
      <trkpt lat="43.62437" lon="1.41153">
        <ele>133.53538138606</ele>
        <time>2021-10-12T21:19:57.782Z</time>
      </trkpt>
      <trkpt lat="43.62447" lon="1.41147">
        <ele>133.62174721838</ele>
        <time>2021-10-12T21:19:57.845Z</time>
      </trkpt>
      <trkpt lat="43.62453" lon="1.41135">
        <ele>133.65734504279</ele>
        <time>2021-10-12T21:19:57.910Z</time>
      </trkpt>
      <trkpt lat="43.62461" lon="1.41131">
        <ele>133.67614006325</ele>
        <time>2021-10-12T21:19:57.976Z</time>
      </trkpt>
      <trkpt lat="43.62473" lon="1.41126">
        <ele>133.65567529634</ele>
        <time>2021-10-12T21:19:58.044Z</time>
      </trkpt>
      <trkpt lat="43.62499" lon="1.41128">
        <ele>133.60181535037</ele>
        <time>2021-10-12T21:19:58.116Z</time>
      </trkpt>
      <trkpt lat="43.62541" lon="1.41128">
        <ele>133.62338524087</ele>
        <time>2021-10-12T21:19:58.195Z</time>
      </trkpt>
      <trkpt lat="43.62566" lon="1.41127">
        <ele>133.6662579356</ele>
        <time>2021-10-12T21:19:58.278Z</time>
      </trkpt>
      <trkpt lat="43.62573" lon="1.41131">
        <ele>133.68876592368</ele>
        <time>2021-10-12T21:19:58.362Z</time>
      </trkpt>
      <trkpt lat="43.62582" lon="1.41138">
        <ele>133.71359149036</ele>
        <time>2021-10-12T21:19:58.448Z</time>
      </trkpt>
      <trkpt lat="43.62585" lon="1.41144">
        <ele>133.72666238867</ele>
        <time>2021-10-12T21:19:58.535Z</time>
      </trkpt>
      <trkpt lat="43.6259" lon="1.4115">
        <ele>133.73680408183</ele>
        <time>2021-10-12T21:19:58.623Z</time>
      </trkpt>
      <trkpt lat="43.6259" lon="1.4115">
        <ele>133.73108370202</ele>
        <time>2021-10-12T21:19:58.711Z</time>
      </trkpt>
      <trkpt lat="43.62597" lon="1.41152">
        <ele>133.7255514984</ele>
        <time>2021-10-12T21:19:58.800Z</time>
      </trkpt>
      <trkpt lat="43.62602" lon="1.41151">
        <ele>133.7129763361</ele>
        <time>2021-10-12T21:19:58.890Z</time>
      </trkpt>
      <trkpt lat="43.6261" lon="1.41145">
        <ele>133.67291702304</ele>
        <time>2021-10-12T21:19:58.981Z</time>
      </trkpt>
      <trkpt lat="43.62613" lon="1.4114">
        <ele>133.61845670402</ele>
        <time>2021-10-12T21:19:59.073Z</time>
      </trkpt>
      <trkpt lat="43.6262" lon="1.41139">
        <ele>133.55030834246</ele>
        <time>2021-10-12T21:19:59.166Z</time>
      </trkpt>
      <trkpt lat="43.6263" lon="1.41138">
        <ele>133.46743368397</ele>
        <time>2021-10-12T21:19:59.260Z</time>
      </trkpt>
      <trkpt lat="43.62642" lon="1.41135">
        <ele>133.36846950393</ele>
        <time>2021-10-12T21:19:59.356Z</time>
      </trkpt>
      <trkpt lat="43.62658" lon="1.41122">
        <ele>133.24505918511</ele>
        <time>2021-10-12T21:19:59.455Z</time>
      </trkpt>
      <trkpt lat="43.62693" lon="1.41097">
        <ele>133.13392037888</ele>
        <time>2021-10-12T21:19:59.561Z</time>
      </trkpt>
      <trkpt lat="43.62734" lon="1.41076">
        <ele>133.0185583918</ele>
        <time>2021-10-12T21:19:59.674Z</time>
      </trkpt>
      <trkpt lat="43.62753" lon="1.41067">
        <ele>132.89950774782</ele>
        <time>2021-10-12T21:19:59.790Z</time>
      </trkpt>
      <trkpt lat="43.62753" lon="1.41067">
        <ele>132.77761081084</ele>
        <time>2021-10-12T21:19:59.906Z</time>
      </trkpt>
      <trkpt lat="43.62766" lon="1.41062">
        <ele>132.65058055735</ele>
        <time>2021-10-12T21:20:00.024Z</time>
      </trkpt>
      <trkpt lat="43.6279" lon="1.41054">
        <ele>132.49984471349</ele>
        <time>2021-10-12T21:20:00.146Z</time>
      </trkpt>
      <trkpt lat="43.62865" lon="1.41033">
        <ele>132.29637159168</ele>
        <time>2021-10-12T21:20:00.280Z</time>
      </trkpt>
      <trkpt lat="43.62897" lon="1.41027">
        <ele>132.14588974269</ele>
        <time>2021-10-12T21:20:00.419Z</time>
      </trkpt>
      <trkpt lat="43.62897" lon="1.41034">
        <ele>132.00939199934</ele>
        <time>2021-10-12T21:20:00.559Z</time>
      </trkpt>
      <trkpt lat="43.62902" lon="1.41043">
        <ele>131.88251513406</ele>
        <time>2021-10-12T21:20:00.701Z</time>
      </trkpt>
      <trkpt lat="43.62906" lon="1.41047">
        <ele>131.75788970972</ele>
        <time>2021-10-12T21:20:00.843Z</time>
      </trkpt>
      <trkpt lat="43.62911" lon="1.41049">
        <ele>131.63875691126</ele>
        <time>2021-10-12T21:20:00.986Z</time>
      </trkpt>
      <trkpt lat="43.62916" lon="1.41047">
        <ele>131.5221500958</ele>
        <time>2021-10-12T21:20:01.130Z</time>
      </trkpt>
      <trkpt lat="43.62921" lon="1.41043">
        <ele>131.41569013816</ele>
        <time>2021-10-12T21:20:01.275Z</time>
      </trkpt>
      <trkpt lat="43.62924" lon="1.41032">
        <ele>131.31463294814</ele>
        <time>2021-10-12T21:20:01.421Z</time>
      </trkpt>
      <trkpt lat="43.62952" lon="1.41044">
        <ele>131.22576000241</ele>
        <time>2021-10-12T21:20:01.572Z</time>
      </trkpt>
      <trkpt lat="43.62969" lon="1.4106">
        <ele>131.13420102072</ele>
        <time>2021-10-12T21:20:01.726Z</time>
      </trkpt>
      <trkpt lat="43.62979" lon="1.41068">
        <ele>131.04955409373</ele>
        <time>2021-10-12T21:20:01.882Z</time>
      </trkpt>
      <trkpt lat="43.62993" lon="1.41088">
        <ele>130.98382662964</ele>
        <time>2021-10-12T21:20:02.041Z</time>
      </trkpt>
      <trkpt lat="43.63002" lon="1.41107">
        <ele>130.92383638085</ele>
        <time>2021-10-12T21:20:02.203Z</time>
      </trkpt>
      <trkpt lat="43.63023" lon="1.41163">
        <ele>130.88632383845</ele>
        <time>2021-10-12T21:20:02.372Z</time>
      </trkpt>
      <trkpt lat="43.631" lon="1.41376">
        <ele>130.76687477294</ele>
        <time>2021-10-12T21:20:02.569Z</time>
      </trkpt>
      <trkpt lat="43.63163" lon="1.41551">
        <ele>130.5708547303</ele>
        <time>2021-10-12T21:20:02.789Z</time>
      </trkpt>
      <trkpt lat="43.63158" lon="1.41556">
        <ele>130.51070733644</ele>
        <time>2021-10-12T21:20:03.010Z</time>
      </trkpt>
      <trkpt lat="43.63159" lon="1.41565">
        <ele>130.46631937605</ele>
        <time>2021-10-12T21:20:03.232Z</time>
      </trkpt>
      <trkpt lat="43.63163" lon="1.41569">
        <ele>130.42382231649</ele>
        <time>2021-10-12T21:20:03.455Z</time>
      </trkpt>
      <trkpt lat="43.6317" lon="1.41568">
        <ele>130.39464214871</ele>
        <time>2021-10-12T21:20:03.679Z</time>
      </trkpt>
      <trkpt lat="43.63199" lon="1.41649">
        <ele>130.37458611885</ele>
        <time>2021-10-12T21:20:03.913Z</time>
      </trkpt>
      <trkpt lat="43.63214" lon="1.41671">
        <ele>130.39943240482</ele>
        <time>2021-10-12T21:20:04.151Z</time>
      </trkpt>
      <trkpt lat="43.6323" lon="1.41686">
        <ele>130.43882860028</ele>
        <time>2021-10-12T21:20:04.392Z</time>
      </trkpt>
      <trkpt lat="43.6325" lon="1.41696">
        <ele>130.49313238403</ele>
        <time>2021-10-12T21:20:04.636Z</time>
      </trkpt>
      <trkpt lat="43.63266" lon="1.41699">
        <ele>130.56045997882</ele>
        <time>2021-10-12T21:20:04.883Z</time>
      </trkpt>
      <trkpt lat="43.63452" lon="1.41727">
        <ele>130.72781183586</ele>
        <time>2021-10-12T21:20:05.160Z</time>
      </trkpt>
      <trkpt lat="43.63488" lon="1.41733">
        <ele>130.79524635335</ele>
        <time>2021-10-12T21:20:05.443Z</time>
      </trkpt>
      <trkpt lat="43.63502" lon="1.41748">
        <ele>130.88900664055</ele>
        <time>2021-10-12T21:20:05.728Z</time>
      </trkpt>
      <trkpt lat="43.63509" lon="1.4176">
        <ele>131.00135502046</ele>
        <time>2021-10-12T21:20:06.015Z</time>
      </trkpt>
      <trkpt lat="43.6351" lon="1.41767">
        <ele>131.13294179589</ele>
        <time>2021-10-12T21:20:06.303Z</time>
      </trkpt>
      <trkpt lat="43.63513" lon="1.41773">
        <ele>131.27465850228</ele>
        <time>2021-10-12T21:20:06.592Z</time>
      </trkpt>
      <trkpt lat="43.63516" lon="1.41777">
        <ele>131.42865815527</ele>
        <time>2021-10-12T21:20:06.881Z</time>
      </trkpt>
      <trkpt lat="43.63523" lon="1.41779">
        <ele>131.60007067083</ele>
        <time>2021-10-12T21:20:07.172Z</time>
      </trkpt>
      <trkpt lat="43.63541" lon="1.41804">
        <ele>131.78715062041</ele>
        <time>2021-10-12T21:20:07.467Z</time>
      </trkpt>
      <trkpt lat="43.63558" lon="1.41862">
        <ele>132.02413868744</ele>
        <time>2021-10-12T21:20:07.769Z</time>
      </trkpt>
      <trkpt lat="43.63615" lon="1.42026">
        <ele>132.31927732182</ele>
        <time>2021-10-12T21:20:08.092Z</time>
      </trkpt>
      <trkpt lat="43.63611" lon="1.4203">
        <ele>132.5224626109</ele>
        <time>2021-10-12T21:20:08.416Z</time>
      </trkpt>
      <trkpt lat="43.63608" lon="1.42037">
        <ele>132.72330938369</ele>
        <time>2021-10-12T21:20:08.741Z</time>
      </trkpt>
      <trkpt lat="43.63606" lon="1.42045">
        <ele>132.92059616434</ele>
        <time>2021-10-12T21:20:09.067Z</time>
      </trkpt>
      <trkpt lat="43.63608" lon="1.42053">
        <ele>133.1125959988</ele>
        <time>2021-10-12T21:20:09.394Z</time>
      </trkpt>
      <trkpt lat="43.63611" lon="1.42059">
        <ele>133.29770202105</ele>
        <time>2021-10-12T21:20:09.722Z</time>
      </trkpt>
      <trkpt lat="43.63615" lon="1.42064">
        <ele>133.47369176386</ele>
        <time>2021-10-12T21:20:10.050Z</time>
      </trkpt>
      <trkpt lat="43.6362" lon="1.42066">
        <ele>133.63911309177</ele>
        <time>2021-10-12T21:20:10.379Z</time>
      </trkpt>
      <trkpt lat="43.63626" lon="1.42065">
        <ele>133.79185231959</ele>
        <time>2021-10-12T21:20:10.709Z</time>
      </trkpt>
      <trkpt lat="43.6363" lon="1.42062">
        <ele>133.92982934529</ele>
        <time>2021-10-12T21:20:11.040Z</time>
      </trkpt>
      <trkpt lat="43.63633" lon="1.42057">
        <ele>134.05173326184</ele>
        <time>2021-10-12T21:20:11.372Z</time>
      </trkpt>
      <trkpt lat="43.63636" lon="1.42044">
        <ele>134.1571357214</ele>
        <time>2021-10-12T21:20:11.705Z</time>
      </trkpt>
      <trkpt lat="43.63644" lon="1.42045">
        <ele>134.24796698205</ele>
        <time>2021-10-12T21:20:12.039Z</time>
      </trkpt>
      <trkpt lat="43.63663" lon="1.42042">
        <ele>134.32811761811</ele>
        <time>2021-10-12T21:20:12.377Z</time>
      </trkpt>
      <trkpt lat="43.63683" lon="1.42037">
        <ele>134.37268776887</ele>
        <time>2021-10-12T21:20:12.718Z</time>
      </trkpt>
      <trkpt lat="43.63751" lon="1.42007">
        <ele>134.48146114442</ele>
        <time>2021-10-12T21:20:13.070Z</time>
      </trkpt>
      <trkpt lat="43.63763" lon="1.42">
        <ele>134.52181671707</ele>
        <time>2021-10-12T21:20:13.424Z</time>
      </trkpt>
      <trkpt lat="43.63763" lon="1.42">
        <ele>134.51082702039</ele>
        <time>2021-10-12T21:20:13.778Z</time>
      </trkpt>
      <trkpt lat="43.6383" lon="1.41964">
        <ele>134.42100143555</ele>
        <time>2021-10-12T21:20:14.144Z</time>
      </trkpt>
      <trkpt lat="43.63924" lon="1.41906">
        <ele>134.36847654976</ele>
        <time>2021-10-12T21:20:14.526Z</time>
      </trkpt>
      <trkpt lat="43.63965" lon="1.41874">
        <ele>134.2080377916</ele>
        <time>2021-10-12T21:20:14.916Z</time>
      </trkpt>
      <trkpt lat="43.63965" lon="1.41874">
        <ele>134.10151007869</ele>
        <time>2021-10-12T21:20:15.306Z</time>
      </trkpt>
      <trkpt lat="43.64082" lon="1.41765">
        <ele>133.93972609809</ele>
        <time>2021-10-12T21:20:15.718Z</time>
      </trkpt>
      <trkpt lat="43.64213" lon="1.41642">
        <ele>133.8577572676</ele>
        <time>2021-10-12T21:20:16.156Z</time>
      </trkpt>
      <trkpt lat="43.64263" lon="1.41598">
        <ele>133.71648387335</ele>
        <time>2021-10-12T21:20:16.603Z</time>
      </trkpt>
      <trkpt lat="43.64273" lon="1.41593">
        <ele>133.53365378</ele>
        <time>2021-10-12T21:20:17.052Z</time>
      </trkpt>
      <trkpt lat="43.64281" lon="1.41586">
        <ele>133.31029615744</ele>
        <time>2021-10-12T21:20:17.503Z</time>
      </trkpt>
      <trkpt lat="43.64347" lon="1.41547">
        <ele>133.09028449317</ele>
        <time>2021-10-12T21:20:17.965Z</time>
      </trkpt>
      <trkpt lat="43.64411" lon="1.41513">
        <ele>132.82125087208</ele>
        <time>2021-10-12T21:20:18.438Z</time>
      </trkpt>
      <trkpt lat="43.6447" lon="1.41488">
        <ele>132.56962201299</ele>
        <time>2021-10-12T21:20:18.921Z</time>
      </trkpt>
      <trkpt lat="43.64509" lon="1.41474">
        <ele>132.31299781022</ele>
        <time>2021-10-12T21:20:19.410Z</time>
      </trkpt>
      <trkpt lat="43.64573" lon="1.41456">
        <ele>132.18960344317</ele>
        <time>2021-10-12T21:20:19.910Z</time>
      </trkpt>
      <trkpt lat="43.64651" lon="1.41449">
        <ele>131.9871040057</ele>
        <time>2021-10-12T21:20:20.422Z</time>
      </trkpt>
      <trkpt lat="43.64693" lon="1.41439">
        <ele>131.7613524956</ele>
        <time>2021-10-12T21:20:20.941Z</time>
      </trkpt>
      <trkpt lat="43.64731" lon="1.41428">
        <ele>131.55839926651</ele>
        <time>2021-10-12T21:20:21.466Z</time>
      </trkpt>
      <trkpt lat="43.64737" lon="1.41428">
        <ele>131.3405696747</ele>
        <time>2021-10-12T21:20:21.992Z</time>
      </trkpt>
      <trkpt lat="43.64749" lon="1.41433">
        <ele>131.12363215262</ele>
        <time>2021-10-12T21:20:22.520Z</time>
      </trkpt>
      <trkpt lat="43.64751" lon="1.41423">
        <ele>130.90464163548</ele>
        <time>2021-10-12T21:20:23.049Z</time>
      </trkpt>
      <trkpt lat="43.64756" lon="1.41418">
        <ele>130.68927899601</ele>
        <time>2021-10-12T21:20:23.579Z</time>
      </trkpt>
      <trkpt lat="43.64778" lon="1.41408">
        <ele>130.46191147671</ele>
        <time>2021-10-12T21:20:24.113Z</time>
      </trkpt>
      <trkpt lat="43.64848" lon="1.41385">
        <ele>130.21587409025</ele>
        <time>2021-10-12T21:20:24.659Z</time>
      </trkpt>
      <trkpt lat="43.64879" lon="1.41378">
        <ele>130.03302414259</ele>
        <time>2021-10-12T21:20:25.210Z</time>
      </trkpt>
      <trkpt lat="43.64879" lon="1.41378">
        <ele>129.84263056584</ele>
        <time>2021-10-12T21:20:25.761Z</time>
      </trkpt>
      <trkpt lat="43.64968" lon="1.41363">
        <ele>129.63263106214</ele>
        <time>2021-10-12T21:20:26.326Z</time>
      </trkpt>
      <trkpt lat="43.65007" lon="1.41355">
        <ele>129.43686193924</ele>
        <time>2021-10-12T21:20:26.897Z</time>
      </trkpt>
      <trkpt lat="43.65017" lon="1.41351">
        <ele>129.26210578449</ele>
        <time>2021-10-12T21:20:27.470Z</time>
      </trkpt>
      <trkpt lat="43.65041" lon="1.41346">
        <ele>129.08810584189</ele>
        <time>2021-10-12T21:20:28.047Z</time>
      </trkpt>
      <trkpt lat="43.65074" lon="1.41336">
        <ele>128.91625816836</ele>
        <time>2021-10-12T21:20:28.629Z</time>
      </trkpt>
      <trkpt lat="43.65083" lon="1.41333">
        <ele>128.77724826207</ele>
        <time>2021-10-12T21:20:29.213Z</time>
      </trkpt>
      <trkpt lat="43.65171" lon="1.41284">
        <ele>128.67969564008</ele>
        <time>2021-10-12T21:20:29.812Z</time>
      </trkpt>
      <trkpt lat="43.65179" lon="1.41278">
        <ele>128.58172752305</ele>
        <time>2021-10-12T21:20:30.412Z</time>
      </trkpt>
      <trkpt lat="43.65317" lon="1.41223">
        <ele>128.41698675249</ele>
        <time>2021-10-12T21:20:31.035Z</time>
      </trkpt>
      <trkpt lat="43.65352" lon="1.41207">
        <ele>128.37904337913</ele>
        <time>2021-10-12T21:20:31.664Z</time>
      </trkpt>
      <trkpt lat="43.65358" lon="1.41202">
        <ele>128.33512049847</ele>
        <time>2021-10-12T21:20:32.294Z</time>
      </trkpt>
      <trkpt lat="43.65393" lon="1.41327">
        <ele>128.40412948055</ele>
        <time>2021-10-12T21:20:32.940Z</time>
      </trkpt>
      <trkpt lat="43.65415" lon="1.41423">
        <ele>128.37407992662</ele>
        <time>2021-10-12T21:20:33.598Z</time>
      </trkpt>
      <trkpt lat="43.65415" lon="1.41423">
        <ele>128.34819690665</ele>
        <time>2021-10-12T21:20:34.256Z</time>
      </trkpt>
      <trkpt lat="43.65428" lon="1.41482">
        <ele>128.27693519169</ele>
        <time>2021-10-12T21:20:34.921Z</time>
      </trkpt>
      <trkpt lat="43.65438" lon="1.41544">
        <ele>128.15378918873</ele>
        <time>2021-10-12T21:20:35.593Z</time>
      </trkpt>
      <trkpt lat="43.65446" lon="1.41586">
        <ele>128.09451365585</ele>
        <time>2021-10-12T21:20:36.270Z</time>
      </trkpt>
      <trkpt lat="43.6546" lon="1.41584">
        <ele>128.12359456457</ele>
        <time>2021-10-12T21:20:36.950Z</time>
      </trkpt>
      <trkpt lat="43.65473" lon="1.41579">
        <ele>128.17110821635</ele>
        <time>2021-10-12T21:20:37.632Z</time>
      </trkpt>
      <trkpt lat="43.65494" lon="1.41566">
        <ele>128.24783365021</ele>
        <time>2021-10-12T21:20:38.317Z</time>
      </trkpt>
      <trkpt lat="43.6554" lon="1.41548">
        <ele>128.35053765209</ele>
        <time>2021-10-12T21:20:39.010Z</time>
      </trkpt>
      <trkpt lat="43.65577" lon="1.41537">
        <ele>128.46241157511</ele>
        <time>2021-10-12T21:20:39.709Z</time>
      </trkpt>
      <trkpt lat="43.65583" lon="1.41558">
        <ele>128.52649181045</ele>
        <time>2021-10-12T21:20:40.411Z</time>
      </trkpt>
      <trkpt lat="43.65585" lon="1.41566">
        <ele>128.61303378294</ele>
        <time>2021-10-12T21:20:41.114Z</time>
      </trkpt>
      <trkpt lat="43.65595" lon="1.41596">
        <ele>128.65870064174</ele>
        <time>2021-10-12T21:20:41.821Z</time>
      </trkpt>
      <trkpt lat="43.65595" lon="1.41596">
        <ele>128.7632421202</ele>
        <time>2021-10-12T21:20:42.528Z</time>
      </trkpt>
      <trkpt lat="43.65607" lon="1.41642">
        <ele>128.79444877056</ele>
        <time>2021-10-12T21:20:43.240Z</time>
      </trkpt>
      <trkpt lat="43.65621" lon="1.41708">
        <ele>128.94213830626</ele>
        <time>2021-10-12T21:20:43.960Z</time>
      </trkpt>
      <trkpt lat="43.65645" lon="1.41823">
        <ele>129.14904337138</ele>
        <time>2021-10-12T21:20:44.694Z</time>
      </trkpt>
      <trkpt lat="43.65662" lon="1.41938">
        <ele>129.31193072762</ele>
        <time>2021-10-12T21:20:45.442Z</time>
      </trkpt>
      <trkpt lat="43.65664" lon="1.41947">
        <ele>129.42926721831</ele>
        <time>2021-10-12T21:20:46.191Z</time>
      </trkpt>
      <trkpt lat="43.65692" lon="1.42011">
        <ele>129.6103939609</ele>
        <time>2021-10-12T21:20:46.949Z</time>
      </trkpt>
      <trkpt lat="43.65692" lon="1.42019">
        <ele>129.7235651164</ele>
        <time>2021-10-12T21:20:47.707Z</time>
      </trkpt>
      <trkpt lat="43.65687" lon="1.42041">
        <ele>129.864095101</ele>
        <time>2021-10-12T21:20:48.468Z</time>
      </trkpt>
      <trkpt lat="43.65679" lon="1.42067">
        <ele>129.9744008159</ele>
        <time>2021-10-12T21:20:49.232Z</time>
      </trkpt>
      <trkpt lat="43.65681" lon="1.42073">
        <ele>130.04620275153</ele>
        <time>2021-10-12T21:20:49.997Z</time>
      </trkpt>
      <trkpt lat="43.65685" lon="1.42078">
        <ele>130.09835642092</ele>
        <time>2021-10-12T21:20:50.763Z</time>
      </trkpt>
      <trkpt lat="43.65689" lon="1.42081">
        <ele>130.1157174672</ele>
        <time>2021-10-12T21:20:51.530Z</time>
      </trkpt>
      <trkpt lat="43.65692" lon="1.42078">
        <ele>130.10032555419</ele>
        <time>2021-10-12T21:20:52.297Z</time>
      </trkpt>
      <trkpt lat="43.65753" lon="1.42023">
        <ele>129.92622751811</ele>
        <time>2021-10-12T21:20:53.076Z</time>
      </trkpt>
      <trkpt lat="43.65753" lon="1.42023">
        <ele>129.90322256165</ele>
        <time>2021-10-12T21:20:53.855Z</time>
      </trkpt>
      <trkpt lat="43.65819" lon="1.41965">
        <ele>129.88453986855</ele>
        <time>2021-10-12T21:20:54.646Z</time>
      </trkpt>
      <trkpt lat="43.65884" lon="1.41907">
        <ele>129.73688526737</ele>
        <time>2021-10-12T21:20:55.450Z</time>
      </trkpt>
      <trkpt lat="43.65888" lon="1.41914">
        <ele>129.70650993147</ele>
        <time>2021-10-12T21:20:56.255Z</time>
      </trkpt>
      <trkpt lat="43.65888" lon="1.41914">
        <ele>129.67515598785</ele>
        <time>2021-10-12T21:20:57.060Z</time>
      </trkpt>
      <trkpt lat="43.65908" lon="1.41941">
        <ele>129.66746408256</ele>
        <time>2021-10-12T21:20:57.869Z</time>
      </trkpt>
      <trkpt lat="43.65916" lon="1.41973">
        <ele>129.67598100333</ele>
        <time>2021-10-12T21:20:58.682Z</time>
      </trkpt>
      <trkpt lat="43.65916" lon="1.41973">
        <ele>129.66662033012</ele>
        <time>2021-10-12T21:20:59.495Z</time>
      </trkpt>
      <trkpt lat="43.65947" lon="1.42081">
        <ele>129.61539255883</ele>
        <time>2021-10-12T21:21:00.322Z</time>
      </trkpt>
      <trkpt lat="43.65951" lon="1.42079">
        <ele>129.62494003958</ele>
        <time>2021-10-12T21:21:01.149Z</time>
      </trkpt>
      <trkpt lat="43.65995" lon="1.42228">
        <ele>129.71744046652</ele>
        <time>2021-10-12T21:21:01.995Z</time>
      </trkpt>
      <trkpt lat="43.65995" lon="1.42228">
        <ele>129.75557700084</ele>
        <time>2021-10-12T21:21:02.841Z</time>
      </trkpt>
      <trkpt lat="43.66023" lon="1.42321">
        <ele>129.799186405</ele>
        <time>2021-10-12T21:21:03.699Z</time>
      </trkpt>
      <trkpt lat="43.66055" lon="1.42427">
        <ele>129.92487523496</ele>
        <time>2021-10-12T21:21:04.570Z</time>
      </trkpt>
      <trkpt lat="43.66078" lon="1.42501">
        <ele>130.02374382386</ele>
        <time>2021-10-12T21:21:05.451Z</time>
      </trkpt>
      <trkpt lat="43.66078" lon="1.42501">
        <ele>130.10936046464</ele>
        <time>2021-10-12T21:21:06.332Z</time>
      </trkpt>
      <trkpt lat="43.66103" lon="1.42593">
        <ele>130.12977871613</ele>
        <time>2021-10-12T21:21:07.224Z</time>
      </trkpt>
      <trkpt lat="43.6612" lon="1.42677">
        <ele>130.2902618552</ele>
        <time>2021-10-12T21:21:08.126Z</time>
      </trkpt>
      <trkpt lat="43.66134" lon="1.42773">
        <ele>130.46130894024</ele>
        <time>2021-10-12T21:21:09.039Z</time>
      </trkpt>
      <trkpt lat="43.66137" lon="1.42807">
        <ele>130.58672289637</ele>
        <time>2021-10-12T21:21:09.956Z</time>
      </trkpt>
      <trkpt lat="43.66132" lon="1.42807">
        <ele>130.71348807645</ele>
        <time>2021-10-12T21:21:10.874Z</time>
      </trkpt>
      <trkpt lat="43.66125" lon="1.4275">
        <ele>130.84230309253</ele>
        <time>2021-10-12T21:21:11.799Z</time>
      </trkpt>
      <trkpt lat="43.66125" lon="1.4275">
        <ele>130.98451762089</ele>
        <time>2021-10-12T21:21:12.724Z</time>
      </trkpt>
      <trkpt lat="43.66132" lon="1.42807">
        <ele>130.71348807645</ele>
        <time>2021-10-12T21:21:13.656Z</time>
      </trkpt>
      <trkpt lat="43.66136" lon="1.42828">
        <ele>131.30233945418</ele>
        <time>2021-10-12T21:21:14.590Z</time>
      </trkpt>
      <trkpt lat="43.66131" lon="1.42834">
        <ele>131.4589096023</ele>
        <time>2021-10-12T21:21:15.526Z</time>
      </trkpt>
      <trkpt lat="43.6613" lon="1.42843">
        <ele>131.62280728207</ele>
        <time>2021-10-12T21:21:16.463Z</time>
      </trkpt>
      <trkpt lat="43.66132" lon="1.42848">
        <ele>131.78919478229</ele>
        <time>2021-10-12T21:21:17.400Z</time>
      </trkpt>
      <trkpt lat="43.66135" lon="1.42851">
        <ele>131.95668692813</ele>
        <time>2021-10-12T21:21:18.338Z</time>
      </trkpt>
      <trkpt lat="43.6614" lon="1.42852">
        <ele>132.12455133719</ele>
        <time>2021-10-12T21:21:19.277Z</time>
      </trkpt>
      <trkpt lat="43.66144" lon="1.42904">
        <ele>132.31888761155</ele>
        <time>2021-10-12T21:21:20.222Z</time>
      </trkpt>
      <trkpt lat="43.66152" lon="1.42975">
        <ele>132.45956721627</ele>
        <time>2021-10-12T21:21:21.175Z</time>
      </trkpt>
      <trkpt lat="43.66165" lon="1.43077">
        <ele>132.72281572821</ele>
        <time>2021-10-12T21:21:22.140Z</time>
      </trkpt>
      <trkpt lat="43.66163" lon="1.43127">
        <ele>132.85008885209</ele>
        <time>2021-10-12T21:21:23.111Z</time>
      </trkpt>
      <trkpt lat="43.66161" lon="1.43136">
        <ele>133.00070353523</ele>
        <time>2021-10-12T21:21:24.083Z</time>
      </trkpt>
      <trkpt lat="43.66161" lon="1.43136">
        <ele>133.1529655049</ele>
        <time>2021-10-12T21:21:25.055Z</time>
      </trkpt>
      <trkpt lat="43.66163" lon="1.43147">
        <ele>133.29337903518</ele>
        <time>2021-10-12T21:21:26.028Z</time>
      </trkpt>
      <trkpt lat="43.66168" lon="1.43153">
        <ele>133.43844831779</ele>
        <time>2021-10-12T21:21:27.002Z</time>
      </trkpt>
      <trkpt lat="43.66178" lon="1.4318">
        <ele>133.59458208191</ele>
        <time>2021-10-12T21:21:27.980Z</time>
      </trkpt>
      <trkpt lat="43.66184" lon="1.43244">
        <ele>133.76219018246</ele>
        <time>2021-10-12T21:21:28.965Z</time>
      </trkpt>
      <trkpt lat="43.66185" lon="1.43269">
        <ele>133.88989531124</ele>
        <time>2021-10-12T21:21:29.953Z</time>
      </trkpt>
      <trkpt lat="43.66188" lon="1.4335">
        <ele>134.01133664728</ele>
        <time>2021-10-12T21:21:30.951Z</time>
      </trkpt>
      <trkpt lat="43.66185" lon="1.43375">
        <ele>134.12546141019</ele>
        <time>2021-10-12T21:21:31.952Z</time>
      </trkpt>
      <trkpt lat="43.66181" lon="1.43382">
        <ele>134.23204993655</ele>
        <time>2021-10-12T21:21:32.954Z</time>
      </trkpt>
      <trkpt lat="43.66181" lon="1.43389">
        <ele>134.33432476391</ele>
        <time>2021-10-12T21:21:33.956Z</time>
      </trkpt>
      <trkpt lat="43.66185" lon="1.43394">
        <ele>134.43234235908</ele>
        <time>2021-10-12T21:21:34.959Z</time>
      </trkpt>
      <trkpt lat="43.66188" lon="1.43396">
        <ele>134.5228736587</ele>
        <time>2021-10-12T21:21:35.963Z</time>
      </trkpt>
      <trkpt lat="43.66199" lon="1.43419">
        <ele>134.59329773628</ele>
        <time>2021-10-12T21:21:36.970Z</time>
      </trkpt>
      <trkpt lat="43.66206" lon="1.43449">
        <ele>134.6509209261</ele>
        <time>2021-10-12T21:21:37.981Z</time>
      </trkpt>
      <trkpt lat="43.66215" lon="1.43472">
        <ele>134.70658012231</ele>
        <time>2021-10-12T21:21:38.995Z</time>
      </trkpt>
      <trkpt lat="43.66228" lon="1.43499">
        <ele>134.75400793929</ele>
        <time>2021-10-12T21:21:40.012Z</time>
      </trkpt>
      <trkpt lat="43.66263" lon="1.43555">
        <ele>134.77634112163</ele>
        <time>2021-10-12T21:21:41.038Z</time>
      </trkpt>
      <trkpt lat="43.66477" lon="1.43861">
        <ele>134.90357287279</ele>
        <time>2021-10-12T21:21:42.113Z</time>
      </trkpt>
      <trkpt lat="43.66497" lon="1.43876">
        <ele>134.98116945501</ele>
        <time>2021-10-12T21:21:43.192Z</time>
      </trkpt>
      <trkpt lat="43.66554" lon="1.43893">
        <ele>135.09811343346</ele>
        <time>2021-10-12T21:21:44.280Z</time>
      </trkpt>
      <trkpt lat="43.66567" lon="1.43898">
        <ele>135.13800952259</ele>
        <time>2021-10-12T21:21:45.370Z</time>
      </trkpt>
      <trkpt lat="43.66573" lon="1.43903">
        <ele>135.14748569082</ele>
        <time>2021-10-12T21:21:46.462Z</time>
      </trkpt>
      <trkpt lat="43.66573" lon="1.43903">
        <ele>135.13778556937</ele>
        <time>2021-10-12T21:21:47.554Z</time>
      </trkpt>
      <trkpt lat="43.66586" lon="1.43914">
        <ele>135.11386867262</ele>
        <time>2021-10-12T21:21:48.648Z</time>
      </trkpt>
      <trkpt lat="43.66599" lon="1.43937">
        <ele>135.06046767355</ele>
        <time>2021-10-12T21:21:49.745Z</time>
      </trkpt>
      <trkpt lat="43.66604" lon="1.4395">
        <ele>134.99296107908</ele>
        <time>2021-10-12T21:21:50.844Z</time>
      </trkpt>
      <trkpt lat="43.66608" lon="1.43973">
        <ele>134.89203816633</ele>
        <time>2021-10-12T21:21:51.946Z</time>
      </trkpt>
      <trkpt lat="43.66608" lon="1.43987">
        <ele>134.78725571885</ele>
        <time>2021-10-12T21:21:53.050Z</time>
      </trkpt>
      <trkpt lat="43.66605" lon="1.43996">
        <ele>134.68286855685</ele>
        <time>2021-10-12T21:21:54.155Z</time>
      </trkpt>
      <trkpt lat="43.66602" lon="1.44004">
        <ele>134.56960316062</ele>
        <time>2021-10-12T21:21:55.261Z</time>
      </trkpt>
      <trkpt lat="43.666" lon="1.44012">
        <ele>134.44492309808</ele>
        <time>2021-10-12T21:21:56.368Z</time>
      </trkpt>
      <trkpt lat="43.666" lon="1.44021">
        <ele>134.31338803436</ele>
        <time>2021-10-12T21:21:57.476Z</time>
      </trkpt>
      <trkpt lat="43.66605" lon="1.44032">
        <ele>134.17102784671</ele>
        <time>2021-10-12T21:21:58.585Z</time>
      </trkpt>
      <trkpt lat="43.66607" lon="1.44049">
        <ele>134.01991607187</ele>
        <time>2021-10-12T21:21:59.696Z</time>
      </trkpt>
      <trkpt lat="43.66607" lon="1.44059">
        <ele>133.87552816084</ele>
        <time>2021-10-12T21:22:00.808Z</time>
      </trkpt>
      <trkpt lat="43.66607" lon="1.44059">
        <ele>133.74504078235</ele>
        <time>2021-10-12T21:22:01.920Z</time>
      </trkpt>
      <trkpt lat="43.66587" lon="1.44112">
        <ele>133.6505849581</ele>
        <time>2021-10-12T21:22:03.039Z</time>
      </trkpt>
      <trkpt lat="43.6658" lon="1.44131">
        <ele>133.53451824729</ele>
        <time>2021-10-12T21:22:04.161Z</time>
      </trkpt>
      <trkpt lat="43.66562" lon="1.44173">
        <ele>133.38751274016</ele>
        <time>2021-10-12T21:22:05.289Z</time>
      </trkpt>
      <trkpt lat="43.66555" lon="1.44196">
        <ele>133.27068369883</ele>
        <time>2021-10-12T21:22:06.419Z</time>
      </trkpt>
      <trkpt lat="43.66535" lon="1.44246">
        <ele>133.15462931459</ele>
        <time>2021-10-12T21:22:07.556Z</time>
      </trkpt>
      <trkpt lat="43.66518" lon="1.44292">
        <ele>133.03433597728</ele>
        <time>2021-10-12T21:22:08.699Z</time>
      </trkpt>
      <trkpt lat="43.66505" lon="1.44313">
        <ele>132.92018465992</ele>
        <time>2021-10-12T21:22:09.845Z</time>
      </trkpt>
      <trkpt lat="43.66488" lon="1.44329">
        <ele>132.82505276383</ele>
        <time>2021-10-12T21:22:10.994Z</time>
      </trkpt>
      <trkpt lat="43.66473" lon="1.44339">
        <ele>132.73994621294</ele>
        <time>2021-10-12T21:22:12.146Z</time>
      </trkpt>
      <trkpt lat="43.66473" lon="1.44339">
        <ele>132.6730938646</ele>
        <time>2021-10-12T21:22:13.298Z</time>
      </trkpt>
      <trkpt lat="43.66343" lon="1.44426">
        <ele>132.60999416949</ele>
        <time>2021-10-12T21:22:14.473Z</time>
      </trkpt>
      <trkpt lat="43.66311" lon="1.44458">
        <ele>132.54949795047</ele>
        <time>2021-10-12T21:22:15.655Z</time>
      </trkpt>
      <trkpt lat="43.66224" lon="1.44552">
        <ele>132.60846219968</ele>
        <time>2021-10-12T21:22:16.854Z</time>
      </trkpt>
      <trkpt lat="43.66214" lon="1.44562">
        <ele>132.60031510166</ele>
        <time>2021-10-12T21:22:18.055Z</time>
      </trkpt>
      <trkpt lat="43.66157" lon="1.44619">
        <ele>132.51258816061</ele>
        <time>2021-10-12T21:22:19.268Z</time>
      </trkpt>
      <trkpt lat="43.6615" lon="1.4463">
        <ele>132.52860349428</ele>
        <time>2021-10-12T21:22:20.482Z</time>
      </trkpt>
      <trkpt lat="43.66137" lon="1.44645">
        <ele>132.56404099364</ele>
        <time>2021-10-12T21:22:21.699Z</time>
      </trkpt>
      <trkpt lat="43.66127" lon="1.44653">
        <ele>132.61279535066</ele>
        <time>2021-10-12T21:22:22.918Z</time>
      </trkpt>
      <trkpt lat="43.66108" lon="1.44674">
        <ele>132.68087432428</ele>
        <time>2021-10-12T21:22:24.141Z</time>
      </trkpt>
      <trkpt lat="43.66057" lon="1.44738">
        <ele>132.75501006512</ele>
        <time>2021-10-12T21:22:25.375Z</time>
      </trkpt>
      <trkpt lat="43.66034" lon="1.44772">
        <ele>132.82357780006</ele>
        <time>2021-10-12T21:22:26.614Z</time>
      </trkpt>
      <trkpt lat="43.66025" lon="1.448">
        <ele>132.89693937946</ele>
        <time>2021-10-12T21:22:27.857Z</time>
      </trkpt>
      <trkpt lat="43.66017" lon="1.44804">
        <ele>133.00265031979</ele>
        <time>2021-10-12T21:22:29.101Z</time>
      </trkpt>
      <trkpt lat="43.66013" lon="1.44812">
        <ele>133.12465081232</ele>
        <time>2021-10-12T21:22:30.346Z</time>
      </trkpt>
      <trkpt lat="43.65996" lon="1.44838">
        <ele>133.28055863252</ele>
        <time>2021-10-12T21:22:31.595Z</time>
      </trkpt>
      <trkpt lat="43.65945" lon="1.44918">
        <ele>133.46481692588</ele>
        <time>2021-10-12T21:22:32.857Z</time>
      </trkpt>
      <trkpt lat="43.65941" lon="1.44917">
        <ele>133.61156678695</ele>
        <time>2021-10-12T21:22:34.119Z</time>
      </trkpt>
      <trkpt lat="43.65938" lon="1.44923">
        <ele>133.76906575322</ele>
        <time>2021-10-12T21:22:35.382Z</time>
      </trkpt>
      <trkpt lat="43.65939" lon="1.44928">
        <ele>133.93190540799</ele>
        <time>2021-10-12T21:22:36.646Z</time>
      </trkpt>
      <trkpt lat="43.65941" lon="1.44974">
        <ele>134.12280401003</ele>
        <time>2021-10-12T21:22:37.915Z</time>
      </trkpt>
      <trkpt lat="43.65944" lon="1.45075">
        <ele>134.33067558688</ele>
        <time>2021-10-12T21:22:39.196Z</time>
      </trkpt>
      <trkpt lat="43.65944" lon="1.45096">
        <ele>134.47179417254</ele>
        <time>2021-10-12T21:22:40.479Z</time>
      </trkpt>
      <trkpt lat="43.65944" lon="1.45126">
        <ele>134.60054570125</ele>
        <time>2021-10-12T21:22:41.766Z</time>
      </trkpt>
      <trkpt lat="43.65944" lon="1.45198">
        <ele>134.78795663244</ele>
        <time>2021-10-12T21:22:43.061Z</time>
      </trkpt>
      <trkpt lat="43.65944" lon="1.45209">
        <ele>134.93302481689</ele>
        <time>2021-10-12T21:22:44.357Z</time>
      </trkpt>
      <trkpt lat="43.65945" lon="1.45258">
        <ele>135.08636509965</ele>
        <time>2021-10-12T21:22:45.659Z</time>
      </trkpt>
      <trkpt lat="43.65946" lon="1.45283">
        <ele>135.19046408937</ele>
        <time>2021-10-12T21:22:46.964Z</time>
      </trkpt>
      <trkpt lat="43.6595" lon="1.45403">
        <ele>135.33198318445</ele>
        <time>2021-10-12T21:22:48.283Z</time>
      </trkpt>
      <trkpt lat="43.65947" lon="1.45442">
        <ele>135.35593928478</ele>
        <time>2021-10-12T21:22:49.607Z</time>
      </trkpt>
      <trkpt lat="43.65944" lon="1.45457">
        <ele>135.38697438723</ele>
        <time>2021-10-12T21:22:50.932Z</time>
      </trkpt>
      <trkpt lat="43.65936" lon="1.45469">
        <ele>135.39919283009</ele>
        <time>2021-10-12T21:22:52.259Z</time>
      </trkpt>
      <trkpt lat="43.65934" lon="1.45477">
        <ele>135.41073043973</ele>
        <time>2021-10-12T21:22:53.587Z</time>
      </trkpt>
      <trkpt lat="43.65932" lon="1.45486">
        <ele>135.41201883656</ele>
        <time>2021-10-12T21:22:54.916Z</time>
      </trkpt>
      <trkpt lat="43.65936" lon="1.45498">
        <ele>135.38592571417</ele>
        <time>2021-10-12T21:22:56.247Z</time>
      </trkpt>
      <trkpt lat="43.65942" lon="1.45509">
        <ele>135.35936603247</ele>
        <time>2021-10-12T21:22:57.579Z</time>
      </trkpt>
      <trkpt lat="43.65949" lon="1.45513">
        <ele>135.32922062553</ele>
        <time>2021-10-12T21:22:58.913Z</time>
      </trkpt>
      <trkpt lat="43.65954" lon="1.45514">
        <ele>135.28981447062</ele>
        <time>2021-10-12T21:23:00.247Z</time>
      </trkpt>
      <trkpt lat="43.6596" lon="1.45513">
        <ele>135.24312167373</ele>
        <time>2021-10-12T21:23:01.583Z</time>
      </trkpt>
      <trkpt lat="43.65966" lon="1.45511">
        <ele>135.18553195821</ele>
        <time>2021-10-12T21:23:02.919Z</time>
      </trkpt>
      <trkpt lat="43.65972" lon="1.45502">
        <ele>135.12734813207</ele>
        <time>2021-10-12T21:23:04.257Z</time>
      </trkpt>
      <trkpt lat="43.65973" lon="1.45501">
        <ele>135.04289543622</ele>
        <time>2021-10-12T21:23:05.595Z</time>
      </trkpt>
      <trkpt lat="43.65989" lon="1.45494">
        <ele>134.97727189929</ele>
        <time>2021-10-12T21:23:06.936Z</time>
      </trkpt>
      <trkpt lat="43.65996" lon="1.45495">
        <ele>134.88020479601</ele>
        <time>2021-10-12T21:23:08.278Z</time>
      </trkpt>
      <trkpt lat="43.66017" lon="1.45501">
        <ele>134.78887497733</ele>
        <time>2021-10-12T21:23:09.623Z</time>
      </trkpt>
      <trkpt lat="43.66043" lon="1.45523">
        <ele>134.64820545748</ele>
        <time>2021-10-12T21:23:10.973Z</time>
      </trkpt>
      <trkpt lat="43.66062" lon="1.45536">
        <ele>134.51302035939</ele>
        <time>2021-10-12T21:23:12.327Z</time>
      </trkpt>
      <trkpt lat="43.66112" lon="1.45571">
        <ele>134.33469212853</ele>
        <time>2021-10-12T21:23:13.689Z</time>
      </trkpt>
      <trkpt lat="43.66119" lon="1.45576">
        <ele>134.20104815667</ele>
        <time>2021-10-12T21:23:15.053Z</time>
      </trkpt>
      <trkpt lat="43.66147" lon="1.456">
        <ele>134.02235841693</ele>
        <time>2021-10-12T21:23:16.422Z</time>
      </trkpt>
      <trkpt lat="43.66147" lon="1.456">
        <ele>133.92208128519</ele>
        <time>2021-10-12T21:23:17.791Z</time>
      </trkpt>
      <trkpt lat="43.66188" lon="1.4564">
        <ele>133.73165464587</ele>
        <time>2021-10-12T21:23:19.168Z</time>
      </trkpt>
      <trkpt lat="43.66232" lon="1.457">
        <ele>133.71785161511</ele>
        <time>2021-10-12T21:23:20.555Z</time>
      </trkpt>
      <trkpt lat="43.6626" lon="1.45744">
        <ele>133.70925523464</ele>
        <time>2021-10-12T21:23:21.949Z</time>
      </trkpt>
      <trkpt lat="43.66289" lon="1.45801">
        <ele>133.70364055963</ele>
        <time>2021-10-12T21:23:23.351Z</time>
      </trkpt>
      <trkpt lat="43.66299" lon="1.45827">
        <ele>133.68733813078</ele>
        <time>2021-10-12T21:23:24.756Z</time>
      </trkpt>
      <trkpt lat="43.66313" lon="1.45867">
        <ele>133.67279455898</ele>
        <time>2021-10-12T21:23:26.167Z</time>
      </trkpt>
      <trkpt lat="43.66313" lon="1.45867">
        <ele>133.67951583367</ele>
        <time>2021-10-12T21:23:27.578Z</time>
      </trkpt>
      <trkpt lat="43.66339" lon="1.45992">
        <ele>133.69317064916</ele>
        <time>2021-10-12T21:23:29.004Z</time>
      </trkpt>
      <trkpt lat="43.66349" lon="1.46034">
        <ele>133.71227259848</ele>
        <time>2021-10-12T21:23:30.435Z</time>
      </trkpt>
      <trkpt lat="43.66349" lon="1.46034">
        <ele>133.76983006913</ele>
        <time>2021-10-12T21:23:31.866Z</time>
      </trkpt>
      <trkpt lat="43.66372" lon="1.46141">
        <ele>133.91004481997</ele>
        <time>2021-10-12T21:23:33.310Z</time>
      </trkpt>
      <trkpt lat="43.66372" lon="1.46141">
        <ele>133.99943574967</ele>
        <time>2021-10-12T21:23:34.754Z</time>
      </trkpt>
      <trkpt lat="43.6639" lon="1.46222">
        <ele>134.12620879775</ele>
        <time>2021-10-12T21:23:36.208Z</time>
      </trkpt>
      <trkpt lat="43.66392" lon="1.46254">
        <ele>134.27520737455</ele>
        <time>2021-10-12T21:23:37.665Z</time>
      </trkpt>
      <trkpt lat="43.66391" lon="1.46269">
        <ele>134.42516471602</ele>
        <time>2021-10-12T21:23:39.124Z</time>
      </trkpt>
      <trkpt lat="43.66387" lon="1.46284">
        <ele>134.56707412361</ele>
        <time>2021-10-12T21:23:40.585Z</time>
      </trkpt>
      <trkpt lat="43.66382" lon="1.46301">
        <ele>134.71821600084</ele>
        <time>2021-10-12T21:23:42.048Z</time>
      </trkpt>
      <trkpt lat="43.66364" lon="1.46327">
        <ele>134.879449833</ele>
        <time>2021-10-12T21:23:43.515Z</time>
      </trkpt>
      <trkpt lat="43.66205" lon="1.46519">
        <ele>135.04543315544</ele>
        <time>2021-10-12T21:23:45.016Z</time>
      </trkpt>
      <trkpt lat="43.6619" lon="1.46542">
        <ele>135.22197978668</ele>
        <time>2021-10-12T21:23:46.521Z</time>
      </trkpt>
      <trkpt lat="43.66152" lon="1.46605">
        <ele>135.40211216022</ele>
        <time>2021-10-12T21:23:48.035Z</time>
      </trkpt>
      <trkpt lat="43.66137" lon="1.46634">
        <ele>135.61508427914</ele>
        <time>2021-10-12T21:23:49.553Z</time>
      </trkpt>
      <trkpt lat="43.66133" lon="1.46651">
        <ele>135.83554562982</ele>
        <time>2021-10-12T21:23:51.073Z</time>
      </trkpt>
      <trkpt lat="43.66102" lon="1.46796">
        <ele>136.09659072015</ele>
        <time>2021-10-12T21:23:52.611Z</time>
      </trkpt>
      <trkpt lat="43.66096" lon="1.46817">
        <ele>136.33793132039</ele>
        <time>2021-10-12T21:23:54.151Z</time>
      </trkpt>
      <trkpt lat="43.66085" lon="1.46841">
        <ele>136.62140662461</ele>
        <time>2021-10-12T21:23:55.695Z</time>
      </trkpt>
      <trkpt lat="43.66073" lon="1.46866">
        <ele>136.91181042697</ele>
        <time>2021-10-12T21:23:57.242Z</time>
      </trkpt>
      <trkpt lat="43.66073" lon="1.46866">
        <ele>137.16085087122</ele>
        <time>2021-10-12T21:23:58.789Z</time>
      </trkpt>
      <trkpt lat="43.66049" lon="1.46912">
        <ele>137.45472596589</ele>
        <time>2021-10-12T21:24:00.343Z</time>
      </trkpt>
      <trkpt lat="43.66028" lon="1.46959">
        <ele>137.73291525665</ele>
        <time>2021-10-12T21:24:01.903Z</time>
      </trkpt>
      <trkpt lat="43.65998" lon="1.47017">
        <ele>137.99710279819</ele>
        <time>2021-10-12T21:24:03.471Z</time>
      </trkpt>
      <trkpt lat="43.65985" lon="1.47029">
        <ele>138.26497247103</ele>
        <time>2021-10-12T21:24:05.042Z</time>
      </trkpt>
      <trkpt lat="43.65976" lon="1.47037">
        <ele>138.54469334117</ele>
        <time>2021-10-12T21:24:06.615Z</time>
      </trkpt>
      <trkpt lat="43.65968" lon="1.47038">
        <ele>138.83494795927</ele>
        <time>2021-10-12T21:24:08.189Z</time>
      </trkpt>
      <trkpt lat="43.65964" lon="1.47042">
        <ele>139.1399793975</ele>
        <time>2021-10-12T21:24:09.764Z</time>
      </trkpt>
      <trkpt lat="43.6596" lon="1.47053">
        <ele>139.45915129982</ele>
        <time>2021-10-12T21:24:11.340Z</time>
      </trkpt>
      <trkpt lat="43.65963" lon="1.47066">
        <ele>139.79651273642</ele>
        <time>2021-10-12T21:24:12.918Z</time>
      </trkpt>
      <trkpt lat="43.65969" lon="1.47072">
        <ele>140.16356001478</ele>
        <time>2021-10-12T21:24:14.497Z</time>
      </trkpt>
      <trkpt lat="43.65974" lon="1.47072">
        <ele>140.53521303666</ele>
        <time>2021-10-12T21:24:16.077Z</time>
      </trkpt>
      <trkpt lat="43.6598" lon="1.47071">
        <ele>140.92170002565</ele>
        <time>2021-10-12T21:24:17.658Z</time>
      </trkpt>
      <trkpt lat="43.65988" lon="1.47074">
        <ele>141.33559663638</ele>
        <time>2021-10-12T21:24:19.240Z</time>
      </trkpt>
      <trkpt lat="43.66004" lon="1.47074">
        <ele>141.7647853501</ele>
        <time>2021-10-12T21:24:20.825Z</time>
      </trkpt>
      <trkpt lat="43.66013" lon="1.47072">
        <ele>142.20088592133</ele>
        <time>2021-10-12T21:24:22.411Z</time>
      </trkpt>
      <trkpt lat="43.66013" lon="1.47072">
        <ele>142.6503014775</ele>
        <time>2021-10-12T21:24:23.997Z</time>
      </trkpt>
      <trkpt lat="43.66076" lon="1.47075">
        <ele>143.19033391858</ele>
        <time>2021-10-12T21:24:25.593Z</time>
      </trkpt>
      <trkpt lat="43.66111" lon="1.47074">
        <ele>143.70013253393</ele>
        <time>2021-10-12T21:24:27.195Z</time>
      </trkpt>
      <trkpt lat="43.66229" lon="1.47071">
        <ele>144.3313208669</ele>
        <time>2021-10-12T21:24:28.816Z</time>
      </trkpt>
      <trkpt lat="43.66274" lon="1.47071">
        <ele>144.86665575057</ele>
        <time>2021-10-12T21:24:30.444Z</time>
      </trkpt>
      <trkpt lat="43.66312" lon="1.47077">
        <ele>145.37783714087</ele>
        <time>2021-10-12T21:24:32.078Z</time>
      </trkpt>
      <trkpt lat="43.66338" lon="1.4709">
        <ele>145.8838757628</ele>
        <time>2021-10-12T21:24:33.716Z</time>
      </trkpt>
      <trkpt lat="43.66398" lon="1.4715">
        <ele>146.37825242516</ele>
        <time>2021-10-12T21:24:35.366Z</time>
      </trkpt>
      <trkpt lat="43.66458" lon="1.47213">
        <ele>146.97252473304</ele>
        <time>2021-10-12T21:24:37.028Z</time>
      </trkpt>
      <trkpt lat="43.66489" lon="1.47241">
        <ele>147.51160709752</ele>
        <time>2021-10-12T21:24:38.696Z</time>
      </trkpt>
      <trkpt lat="43.66488" lon="1.47251">
        <ele>147.94203169638</ele>
        <time>2021-10-12T21:24:40.365Z</time>
      </trkpt>
      <trkpt lat="43.66489" lon="1.47256">
        <ele>148.35710230132</ele>
        <time>2021-10-12T21:24:42.035Z</time>
      </trkpt>
      <trkpt lat="43.66495" lon="1.47263">
        <ele>148.76421100369</ele>
        <time>2021-10-12T21:24:43.706Z</time>
      </trkpt>
      <trkpt lat="43.66498" lon="1.47264">
        <ele>149.15306878476</ele>
        <time>2021-10-12T21:24:45.378Z</time>
      </trkpt>
      <trkpt lat="43.66504" lon="1.47262">
        <ele>149.53492435237</ele>
        <time>2021-10-12T21:24:47.051Z</time>
      </trkpt>
      <trkpt lat="43.66524" lon="1.47272">
        <ele>149.91951446336</ele>
        <time>2021-10-12T21:24:48.727Z</time>
      </trkpt>
      <trkpt lat="43.6654" lon="1.47275">
        <ele>150.24899622701</ele>
        <time>2021-10-12T21:24:50.406Z</time>
      </trkpt>
      <trkpt lat="43.66586" lon="1.47298">
        <ele>150.51910937744</ele>
        <time>2021-10-12T21:24:52.093Z</time>
      </trkpt>
      <trkpt lat="43.6662" lon="1.47313">
        <ele>150.82558674143</ele>
        <time>2021-10-12T21:24:53.785Z</time>
      </trkpt>
      <trkpt lat="43.66629" lon="1.47318">
        <ele>151.20935167228</ele>
        <time>2021-10-12T21:24:55.479Z</time>
      </trkpt>
      <trkpt lat="43.66701" lon="1.47343">
        <ele>151.49535737834</ele>
        <time>2021-10-12T21:24:57.185Z</time>
      </trkpt>
      <trkpt lat="43.66701" lon="1.47343">
        <ele>151.95067721405</ele>
        <time>2021-10-12T21:24:58.891Z</time>
      </trkpt>
      <trkpt lat="43.6671" lon="1.47347">
        <ele>152.43387304251</ele>
        <time>2021-10-12T21:25:00.598Z</time>
      </trkpt>
      <trkpt lat="43.66898" lon="1.4742">
        <ele>153.45376250323</ele>
        <time>2021-10-12T21:25:02.336Z</time>
      </trkpt>
      <trkpt lat="43.66912" lon="1.47426">
        <ele>154.05565663165</ele>
        <time>2021-10-12T21:25:04.077Z</time>
      </trkpt>
      <trkpt lat="43.66926" lon="1.47436">
        <ele>154.65717599428</ele>
        <time>2021-10-12T21:25:05.820Z</time>
      </trkpt>
      <trkpt lat="43.67026" lon="1.47544">
        <ele>155.26003604104</ele>
        <time>2021-10-12T21:25:07.584Z</time>
      </trkpt>
      <trkpt lat="43.6706" lon="1.47582">
        <ele>156.05071547318</ele>
        <time>2021-10-12T21:25:09.355Z</time>
      </trkpt>
      <trkpt lat="43.67067" lon="1.47592">
        <ele>156.72493992047</ele>
        <time>2021-10-12T21:25:11.127Z</time>
      </trkpt>
      <trkpt lat="43.67073" lon="1.47603">
        <ele>157.42428760308</ele>
        <time>2021-10-12T21:25:12.901Z</time>
      </trkpt>
      <trkpt lat="43.67077" lon="1.47614">
        <ele>158.1261319079</ele>
        <time>2021-10-12T21:25:14.676Z</time>
      </trkpt>
      <trkpt lat="43.67077" lon="1.47614">
        <ele>158.85523150816</ele>
        <time>2021-10-12T21:25:16.451Z</time>
      </trkpt>
      <trkpt lat="43.67077" lon="1.47614">
        <ele>159.6147775092</ele>
        <time>2021-10-12T21:25:18.226Z</time>
      </trkpt>
      <trkpt lat="43.67093" lon="1.47701">
        <ele>160.22817878689</ele>
        <time>2021-10-12T21:25:20.012Z</time>
      </trkpt>
      <trkpt lat="43.67103" lon="1.47732">
        <ele>160.98109798358</ele>
        <time>2021-10-12T21:25:21.802Z</time>
      </trkpt>
      <trkpt lat="43.67118" lon="1.47746">
        <ele>161.83849474132</ele>
        <time>2021-10-12T21:25:23.595Z</time>
      </trkpt>
      <trkpt lat="43.67129" lon="1.47749">
        <ele>162.79253272408</ele>
        <time>2021-10-12T21:25:25.389Z</time>
      </trkpt>
      <trkpt lat="43.67143" lon="1.47748">
        <ele>163.84709891838</ele>
        <time>2021-10-12T21:25:27.186Z</time>
      </trkpt>
      <trkpt lat="43.67186" lon="1.47744">
        <ele>165.20177993207</ele>
        <time>2021-10-12T21:25:28.989Z</time>
      </trkpt>
      <trkpt lat="43.67201" lon="1.4774">
        <ele>166.23365868223</ele>
        <time>2021-10-12T21:25:30.795Z</time>
      </trkpt>
      <trkpt lat="43.67212" lon="1.47735">
        <ele>167.28167835586</ele>
        <time>2021-10-12T21:25:32.603Z</time>
      </trkpt>
      <trkpt lat="43.67244" lon="1.4771">
        <ele>168.53534731076</ele>
        <time>2021-10-12T21:25:34.417Z</time>
      </trkpt>
      <trkpt lat="43.67253" lon="1.47706">
        <ele>169.57792514716</ele>
        <time>2021-10-12T21:25:36.232Z</time>
      </trkpt>
      <trkpt lat="43.67263" lon="1.47708">
        <ele>170.55880805031</ele>
        <time>2021-10-12T21:25:38.049Z</time>
      </trkpt>
      <trkpt lat="43.67272" lon="1.47714">
        <ele>171.52771008442</ele>
        <time>2021-10-12T21:25:39.867Z</time>
      </trkpt>
      <trkpt lat="43.6728" lon="1.47725">
        <ele>172.46477368474</ele>
        <time>2021-10-12T21:25:41.687Z</time>
      </trkpt>
      <trkpt lat="43.67289" lon="1.47744">
        <ele>173.3676773134</ele>
        <time>2021-10-12T21:25:43.510Z</time>
      </trkpt>
      <trkpt lat="43.67297" lon="1.47759">
        <ele>174.30245549203</ele>
        <time>2021-10-12T21:25:45.335Z</time>
      </trkpt>
      <trkpt lat="43.67304" lon="1.47768">
        <ele>175.24818350393</ele>
        <time>2021-10-12T21:25:47.162Z</time>
      </trkpt>
      <trkpt lat="43.67311" lon="1.47771">
        <ele>176.24841717229</ele>
        <time>2021-10-12T21:25:48.990Z</time>
      </trkpt>
      <trkpt lat="43.67323" lon="1.47777">
        <ele>177.26270994387</ele>
        <time>2021-10-12T21:25:50.820Z</time>
      </trkpt>
      <trkpt lat="43.67374" lon="1.47776">
        <ele>178.6288196882</ele>
        <time>2021-10-12T21:25:52.658Z</time>
      </trkpt>
      <trkpt lat="43.67386" lon="1.47778">
        <ele>179.61725345547</ele>
        <time>2021-10-12T21:25:54.498Z</time>
      </trkpt>
      <trkpt lat="43.67395" lon="1.47784">
        <ele>180.53407230052</ele>
        <time>2021-10-12T21:25:56.340Z</time>
      </trkpt>
      <trkpt lat="43.67402" lon="1.47793">
        <ele>181.40925422944</ele>
        <time>2021-10-12T21:25:58.183Z</time>
      </trkpt>
      <trkpt lat="43.67413" lon="1.47812">
        <ele>182.21320794294</ele>
        <time>2021-10-12T21:26:00.029Z</time>
      </trkpt>
      <trkpt lat="43.67422" lon="1.47824">
        <ele>183.038926482</ele>
        <time>2021-10-12T21:26:01.877Z</time>
      </trkpt>
      <trkpt lat="43.67428" lon="1.47828">
        <ele>183.88817097945</ele>
        <time>2021-10-12T21:26:03.726Z</time>
      </trkpt>
      <trkpt lat="43.67438" lon="1.47828">
        <ele>184.77924165613</ele>
        <time>2021-10-12T21:26:05.577Z</time>
      </trkpt>
      <trkpt lat="43.67471" lon="1.47819">
        <ele>185.82961401888</ele>
        <time>2021-10-12T21:26:07.433Z</time>
      </trkpt>
      <trkpt lat="43.67482" lon="1.47822">
        <ele>186.66609453197</ele>
        <time>2021-10-12T21:26:09.291Z</time>
      </trkpt>
      <trkpt lat="43.67491" lon="1.47833">
        <ele>187.45488184534</ele>
        <time>2021-10-12T21:26:11.151Z</time>
      </trkpt>
      <trkpt lat="43.67497" lon="1.47846">
        <ele>188.2024068369</ele>
        <time>2021-10-12T21:26:13.012Z</time>
      </trkpt>
      <trkpt lat="43.67503" lon="1.47905">
        <ele>188.68576360022</ele>
        <time>2021-10-12T21:26:14.880Z</time>
      </trkpt>
      <trkpt lat="43.67507" lon="1.47916">
        <ele>189.36073810412</ele>
        <time>2021-10-12T21:26:16.750Z</time>
      </trkpt>
      <trkpt lat="43.67514" lon="1.47924">
        <ele>190.0996045933</ele>
        <time>2021-10-12T21:26:18.621Z</time>
      </trkpt>
      <trkpt lat="43.67526" lon="1.47928">
        <ele>190.90355837455</ele>
        <time>2021-10-12T21:26:20.494Z</time>
      </trkpt>
      <trkpt lat="43.67539" lon="1.47927">
        <ele>191.75562243949</ele>
        <time>2021-10-12T21:26:22.369Z</time>
      </trkpt>
      <trkpt lat="43.6756" lon="1.47921">
        <ele>192.67277415024</ele>
        <time>2021-10-12T21:26:24.248Z</time>
      </trkpt>
      <trkpt lat="43.67584" lon="1.47906">
        <ele>193.64560798582</ele>
        <time>2021-10-12T21:26:26.131Z</time>
      </trkpt>
      <trkpt lat="43.67602" lon="1.47888">
        <ele>194.54942094193</ele>
        <time>2021-10-12T21:26:28.017Z</time>
      </trkpt>
      <trkpt lat="43.67615" lon="1.47861">
        <ele>195.40140373949</ele>
        <time>2021-10-12T21:26:29.907Z</time>
      </trkpt>
      <trkpt lat="43.67637" lon="1.47813">
        <ele>196.24043567455</ele>
        <time>2021-10-12T21:26:31.804Z</time>
      </trkpt>
      <trkpt lat="43.67646" lon="1.47791">
        <ele>196.92018588047</ele>
        <time>2021-10-12T21:26:33.704Z</time>
      </trkpt>
      <trkpt lat="43.67662" lon="1.47756">
        <ele>197.57423749771</ele>
        <time>2021-10-12T21:26:35.609Z</time>
      </trkpt>
      <trkpt lat="43.67677" lon="1.47734">
        <ele>198.16885336639</ele>
        <time>2021-10-12T21:26:37.517Z</time>
      </trkpt>
      <trkpt lat="43.67687" lon="1.47722">
        <ele>198.67577790785</ele>
        <time>2021-10-12T21:26:39.427Z</time>
      </trkpt>
      <trkpt lat="43.67696" lon="1.47715">
        <ele>199.1506007838</ele>
        <time>2021-10-12T21:26:41.339Z</time>
      </trkpt>
      <trkpt lat="43.67732" lon="1.47701">
        <ele>199.60317633604</ele>
        <time>2021-10-12T21:26:43.257Z</time>
      </trkpt>
      <trkpt lat="43.67816" lon="1.47685">
        <ele>199.96655629527</ele>
        <time>2021-10-12T21:26:45.189Z</time>
      </trkpt>
      <trkpt lat="43.67836" lon="1.47682">
        <ele>200.23572340412</ele>
        <time>2021-10-12T21:26:47.124Z</time>
      </trkpt>
      <trkpt lat="43.67836" lon="1.47682">
        <ele>200.52846491425</ele>
        <time>2021-10-12T21:26:49.059Z</time>
      </trkpt>
      <trkpt lat="43.67859" lon="1.47687">
        <ele>200.7369815771</ele>
        <time>2021-10-12T21:26:50.997Z</time>
      </trkpt>
      <trkpt lat="43.67939" lon="1.47711">
        <ele>201.0654063092</ele>
        <time>2021-10-12T21:26:52.948Z</time>
      </trkpt>
      <trkpt lat="43.67951" lon="1.47718">
        <ele>201.25205486169</ele>
        <time>2021-10-12T21:26:54.902Z</time>
      </trkpt>
      <trkpt lat="43.67962" lon="1.4773">
        <ele>201.40934784166</ele>
        <time>2021-10-12T21:26:56.858Z</time>
      </trkpt>
      <trkpt lat="43.68007" lon="1.47792">
        <ele>201.42760258098</ele>
        <time>2021-10-12T21:26:58.824Z</time>
      </trkpt>
      <trkpt lat="43.68007" lon="1.47792">
        <ele>201.53933277957</ele>
        <time>2021-10-12T21:27:00.790Z</time>
      </trkpt>
      <trkpt lat="43.68054" lon="1.47857">
        <ele>201.70454311691</ele>
        <time>2021-10-12T21:27:02.767Z</time>
      </trkpt>
      <trkpt lat="43.68054" lon="1.47857">
        <ele>201.78636910626</ele>
        <time>2021-10-12T21:27:04.744Z</time>
      </trkpt>
      <trkpt lat="43.68095" lon="1.47918">
        <ele>202.01835199071</ele>
        <time>2021-10-12T21:27:06.730Z</time>
      </trkpt>
      <trkpt lat="43.68129" lon="1.47962">
        <ele>202.12502094554</ele>
        <time>2021-10-12T21:27:08.724Z</time>
      </trkpt>
      <trkpt lat="43.68134" lon="1.47971">
        <ele>202.1814258525</ele>
        <time>2021-10-12T21:27:10.719Z</time>
      </trkpt>
      <trkpt lat="43.6814" lon="1.47994">
        <ele>202.22882576902</ele>
        <time>2021-10-12T21:27:12.717Z</time>
      </trkpt>
      <trkpt lat="43.68157" lon="1.48039">
        <ele>202.2521558869</ele>
        <time>2021-10-12T21:27:14.721Z</time>
      </trkpt>
      <trkpt lat="43.68189" lon="1.48136">
        <ele>202.12547158443</ele>
        <time>2021-10-12T21:27:16.737Z</time>
      </trkpt>
      <trkpt lat="43.68189" lon="1.48136">
        <ele>202.20312428283</ele>
        <time>2021-10-12T21:27:18.753Z</time>
      </trkpt>
      <trkpt lat="43.68242" lon="1.48299">
        <ele>202.04860338337</ele>
        <time>2021-10-12T21:27:20.790Z</time>
      </trkpt>
      <trkpt lat="43.68255" lon="1.48339">
        <ele>202.20155783417</ele>
        <time>2021-10-12T21:27:22.832Z</time>
      </trkpt>
      <trkpt lat="43.68261" lon="1.48366">
        <ele>202.38975901294</ele>
        <time>2021-10-12T21:27:24.877Z</time>
      </trkpt>
      <trkpt lat="43.68264" lon="1.48475">
        <ele>202.79971238467</ele>
        <time>2021-10-12T21:27:26.935Z</time>
      </trkpt>
      <trkpt lat="43.68258" lon="1.48513">
        <ele>202.98966032038</ele>
        <time>2021-10-12T21:27:28.997Z</time>
      </trkpt>
      <trkpt lat="43.68262" lon="1.48524">
        <ele>203.26429373173</ele>
        <time>2021-10-12T21:27:31.061Z</time>
      </trkpt>
      <trkpt lat="43.68264" lon="1.48527">
        <ele>203.53164994886</ele>
        <time>2021-10-12T21:27:33.125Z</time>
      </trkpt>
      <trkpt lat="43.68267" lon="1.48529">
        <ele>203.82680463416</ele>
        <time>2021-10-12T21:27:35.190Z</time>
      </trkpt>
      <trkpt lat="43.68282" lon="1.48528">
        <ele>204.13666534486</ele>
        <time>2021-10-12T21:27:37.257Z</time>
      </trkpt>
      <trkpt lat="43.68289" lon="1.4853">
        <ele>204.41192005825</ele>
        <time>2021-10-12T21:27:39.325Z</time>
      </trkpt>
      <trkpt lat="43.68302" lon="1.48539">
        <ele>204.70829646721</ele>
        <time>2021-10-12T21:27:41.396Z</time>
      </trkpt>
      <trkpt lat="43.68361" lon="1.48576">
        <ele>205.07435422895</ele>
        <time>2021-10-12T21:27:43.477Z</time>
      </trkpt>
      <trkpt lat="43.6841" lon="1.48606">
        <ele>205.34887336446</ele>
        <time>2021-10-12T21:27:45.567Z</time>
      </trkpt>
      <trkpt lat="43.68428" lon="1.48617">
        <ele>205.60770613155</ele>
        <time>2021-10-12T21:27:47.660Z</time>
      </trkpt>
      <trkpt lat="43.68455" lon="1.48635">
        <ele>205.89224247022</ele>
        <time>2021-10-12T21:27:49.758Z</time>
      </trkpt>
      <trkpt lat="43.68455" lon="1.48635">
        <ele>206.12294378681</ele>
        <time>2021-10-12T21:27:51.856Z</time>
      </trkpt>
      <trkpt lat="43.68488" lon="1.48656">
        <ele>206.41164399704</ele>
        <time>2021-10-12T21:27:53.959Z</time>
      </trkpt>
      <trkpt lat="43.68511" lon="1.48668">
        <ele>206.66138609216</ele>
        <time>2021-10-12T21:27:56.066Z</time>
      </trkpt>
      <trkpt lat="43.68528" lon="1.48674">
        <ele>206.84921618429</ele>
        <time>2021-10-12T21:27:58.176Z</time>
      </trkpt>
      <trkpt lat="43.68552" lon="1.48698">
        <ele>206.95251407719</ele>
        <time>2021-10-12T21:28:00.291Z</time>
      </trkpt>
      <trkpt lat="43.68557" lon="1.48705">
        <ele>207.09270537176</ele>
        <time>2021-10-12T21:28:02.407Z</time>
      </trkpt>
      <trkpt lat="43.68561" lon="1.48712">
        <ele>207.22032776607</ele>
        <time>2021-10-12T21:28:04.524Z</time>
      </trkpt>
      <trkpt lat="43.68563" lon="1.48736">
        <ele>207.33441814819</ele>
        <time>2021-10-12T21:28:06.644Z</time>
      </trkpt>
      <trkpt lat="43.68564" lon="1.48742">
        <ele>207.45792960804</ele>
        <time>2021-10-12T21:28:08.765Z</time>
      </trkpt>
      <trkpt lat="43.68569" lon="1.48793">
        <ele>207.57245938419</ele>
        <time>2021-10-12T21:28:10.892Z</time>
      </trkpt>
      <trkpt lat="43.68567" lon="1.4881">
        <ele>207.69806277497</ele>
        <time>2021-10-12T21:28:13.021Z</time>
      </trkpt>
      <trkpt lat="43.68564" lon="1.48878">
        <ele>207.84994585812</ele>
        <time>2021-10-12T21:28:15.157Z</time>
      </trkpt>
      <trkpt lat="43.6856" lon="1.48904">
        <ele>207.96782846847</ele>
        <time>2021-10-12T21:28:17.297Z</time>
      </trkpt>
      <trkpt lat="43.68545" lon="1.48983">
        <ele>208.06070896451</ele>
        <time>2021-10-12T21:28:19.446Z</time>
      </trkpt>
      <trkpt lat="43.68545" lon="1.49007">
        <ele>208.25407079756</ele>
        <time>2021-10-12T21:28:21.598Z</time>
      </trkpt>
      <trkpt lat="43.6855" lon="1.49049">
        <ele>208.39057373241</ele>
        <time>2021-10-12T21:28:23.755Z</time>
      </trkpt>
      <trkpt lat="43.68562" lon="1.49106">
        <ele>208.63783386054</ele>
        <time>2021-10-12T21:28:25.919Z</time>
      </trkpt>
      <trkpt lat="43.68565" lon="1.4914">
        <ele>208.87718966928</ele>
        <time>2021-10-12T21:28:28.087Z</time>
      </trkpt>
      <trkpt lat="43.68565" lon="1.49157">
        <ele>209.1268196805</ele>
        <time>2021-10-12T21:28:30.257Z</time>
      </trkpt>
      <trkpt lat="43.68563" lon="1.4923">
        <ele>209.37981861301</ele>
        <time>2021-10-12T21:28:32.435Z</time>
      </trkpt>
      <trkpt lat="43.68565" lon="1.49253">
        <ele>209.67023997237</ele>
        <time>2021-10-12T21:28:34.616Z</time>
      </trkpt>
      <trkpt lat="43.68565" lon="1.49253">
        <ele>210.01280017344</ele>
        <time>2021-10-12T21:28:36.797Z</time>
      </trkpt>
      <trkpt lat="43.68571" lon="1.49276">
        <ele>210.36719269969</ele>
        <time>2021-10-12T21:28:38.981Z</time>
      </trkpt>
      <trkpt lat="43.6859" lon="1.49306">
        <ele>210.7743090057</ele>
        <time>2021-10-12T21:28:41.169Z</time>
      </trkpt>
      <trkpt lat="43.68646" lon="1.49359">
        <ele>211.3471978504</ele>
        <time>2021-10-12T21:28:43.368Z</time>
      </trkpt>
      <trkpt lat="43.68672" lon="1.49388">
        <ele>211.8849311551</ele>
        <time>2021-10-12T21:28:45.572Z</time>
      </trkpt>
      <trkpt lat="43.68692" lon="1.49423">
        <ele>212.42276743391</ele>
        <time>2021-10-12T21:28:47.782Z</time>
      </trkpt>
      <trkpt lat="43.68714" lon="1.49505">
        <ele>212.97961246531</ele>
        <time>2021-10-12T21:28:50.002Z</time>
      </trkpt>
      <trkpt lat="43.68721" lon="1.49519">
        <ele>213.48685159452</ele>
        <time>2021-10-12T21:28:52.224Z</time>
      </trkpt>
      <trkpt lat="43.68737" lon="1.49569">
        <ele>213.9920147108</ele>
        <time>2021-10-12T21:28:54.452Z</time>
      </trkpt>
      <trkpt lat="43.68737" lon="1.49569">
        <ele>214.48807768133</ele>
        <time>2021-10-12T21:28:56.680Z</time>
      </trkpt>
      <trkpt lat="43.68753" lon="1.49618">
        <ele>214.98883907156</ele>
        <time>2021-10-12T21:28:58.914Z</time>
      </trkpt>
      <trkpt lat="43.68767" lon="1.49648">
        <ele>215.49805567997</ele>
        <time>2021-10-12T21:29:01.152Z</time>
      </trkpt>
      <trkpt lat="43.68782" lon="1.49672">
        <ele>215.99501683525</ele>
        <time>2021-10-12T21:29:03.394Z</time>
      </trkpt>
      <trkpt lat="43.68796" lon="1.49687">
        <ele>216.47527884266</ele>
        <time>2021-10-12T21:29:05.639Z</time>
      </trkpt>
      <trkpt lat="43.68798" lon="1.49689">
        <ele>216.91231055424</ele>
        <time>2021-10-12T21:29:07.884Z</time>
      </trkpt>
      <trkpt lat="43.68806" lon="1.49694">
        <ele>217.33603628863</ele>
        <time>2021-10-12T21:29:10.131Z</time>
      </trkpt>
      <trkpt lat="43.68825" lon="1.49702">
        <ele>217.75982671151</ele>
        <time>2021-10-12T21:29:12.381Z</time>
      </trkpt>
      <trkpt lat="43.68868" lon="1.49712">
        <ele>218.1807909599</ele>
        <time>2021-10-12T21:29:14.638Z</time>
      </trkpt>
      <trkpt lat="43.6893" lon="1.49741">
        <ele>218.51072182408</ele>
        <time>2021-10-12T21:29:16.905Z</time>
      </trkpt>
      <trkpt lat="43.6895" lon="1.49754">
        <ele>218.74766952997</ele>
        <time>2021-10-12T21:29:19.176Z</time>
      </trkpt>
      <trkpt lat="43.68976" lon="1.49766">
        <ele>218.92957784523</ele>
        <time>2021-10-12T21:29:21.451Z</time>
      </trkpt>
      <trkpt lat="43.68994" lon="1.4978">
        <ele>219.07530046434</ele>
        <time>2021-10-12T21:29:23.730Z</time>
      </trkpt>
      <trkpt lat="43.68997" lon="1.49787">
        <ele>219.19227864337</ele>
        <time>2021-10-12T21:29:26.010Z</time>
      </trkpt>
      <trkpt lat="43.68993" lon="1.4981">
        <ele>219.26202041319</ele>
        <time>2021-10-12T21:29:28.292Z</time>
      </trkpt>
      <trkpt lat="43.68943" lon="1.49928">
        <ele>219.39212155853</ele>
        <time>2021-10-12T21:29:30.590Z</time>
      </trkpt>
      <trkpt lat="43.68898" lon="1.50045">
        <ele>219.42386670695</ele>
        <time>2021-10-12T21:29:32.904Z</time>
      </trkpt>
      <trkpt lat="43.68878" lon="1.50092">
        <ele>219.37426331977</ele>
        <time>2021-10-12T21:29:35.224Z</time>
      </trkpt>
      <trkpt lat="43.68862" lon="1.50123">
        <ele>219.26716415916</ele>
        <time>2021-10-12T21:29:37.548Z</time>
      </trkpt>
      <trkpt lat="43.68862" lon="1.50123">
        <ele>219.09524355285</ele>
        <time>2021-10-12T21:29:39.872Z</time>
      </trkpt>
      <trkpt lat="43.6886" lon="1.50126">
        <ele>218.86949815109</ele>
        <time>2021-10-12T21:29:42.197Z</time>
      </trkpt>
      <trkpt lat="43.68824" lon="1.50183">
        <ele>218.5337574731</ele>
        <time>2021-10-12T21:29:44.531Z</time>
      </trkpt>
      <trkpt lat="43.68775" lon="1.50276">
        <ele>218.2346795281</ele>
        <time>2021-10-12T21:29:46.878Z</time>
      </trkpt>
      <trkpt lat="43.68771" lon="1.50282">
        <ele>217.84305846529</ele>
        <time>2021-10-12T21:29:49.226Z</time>
      </trkpt>
      <trkpt lat="43.68771" lon="1.50282">
        <ele>217.4085719781</ele>
        <time>2021-10-12T21:29:51.574Z</time>
      </trkpt>
      <trkpt lat="43.68761" lon="1.50308">
        <ele>216.87447423218</ele>
        <time>2021-10-12T21:29:53.925Z</time>
      </trkpt>
      <trkpt lat="43.68731" lon="1.5041">
        <ele>216.16435622798</ele>
        <time>2021-10-12T21:29:56.289Z</time>
      </trkpt>
      <trkpt lat="43.68691" lon="1.50549">
        <ele>215.5565153495</ele>
        <time>2021-10-12T21:29:58.670Z</time>
      </trkpt>
      <trkpt lat="43.68685" lon="1.50581">
        <ele>215.00892064811</ele>
        <time>2021-10-12T21:30:01.055Z</time>
      </trkpt>
      <trkpt lat="43.68682" lon="1.50606">
        <ele>214.45221936164</ele>
        <time>2021-10-12T21:30:03.443Z</time>
      </trkpt>
      <trkpt lat="43.68682" lon="1.50606">
        <ele>213.81347757511</ele>
        <time>2021-10-12T21:30:05.831Z</time>
      </trkpt>
      <trkpt lat="43.68668" lon="1.50777">
        <ele>213.18766881738</ele>
        <time>2021-10-12T21:30:08.239Z</time>
      </trkpt>
      <trkpt lat="43.6866" lon="1.50826">
        <ele>212.41587342585</ele>
        <time>2021-10-12T21:30:10.653Z</time>
      </trkpt>
      <trkpt lat="43.68648" lon="1.50886">
        <ele>211.62101283332</ele>
        <time>2021-10-12T21:30:13.074Z</time>
      </trkpt>
      <trkpt lat="43.68647" lon="1.5089">
        <ele>210.94044541049</ele>
        <time>2021-10-12T21:30:15.496Z</time>
      </trkpt>
      <trkpt lat="43.68615" lon="1.50998">
        <ele>210.13903748508</ele>
        <time>2021-10-12T21:30:17.931Z</time>
      </trkpt>
      <trkpt lat="43.68599" lon="1.51063">
        <ele>209.46420835873</ele>
        <time>2021-10-12T21:30:20.374Z</time>
      </trkpt>
      <trkpt lat="43.68565" lon="1.51139">
        <ele>208.80221075381</ele>
        <time>2021-10-12T21:30:22.828Z</time>
      </trkpt>
      <trkpt lat="43.68534" lon="1.51236">
        <ele>208.05657810371</ele>
        <time>2021-10-12T21:30:25.294Z</time>
      </trkpt>
      <trkpt lat="43.68528" lon="1.51236">
        <ele>207.45508892354</ele>
        <time>2021-10-12T21:30:27.761Z</time>
      </trkpt>
      <trkpt lat="43.68522" lon="1.51241">
        <ele>206.89540028217</ele>
        <time>2021-10-12T21:30:30.229Z</time>
      </trkpt>
      <trkpt lat="43.68521" lon="1.51245">
        <ele>206.37927836974</ele>
        <time>2021-10-12T21:30:32.697Z</time>
      </trkpt>
      <trkpt lat="43.68522" lon="1.51255">
        <ele>205.91063063033</ele>
        <time>2021-10-12T21:30:35.167Z</time>
      </trkpt>
      <trkpt lat="43.68527" lon="1.5126">
        <ele>205.47948176062</ele>
        <time>2021-10-12T21:30:37.638Z</time>
      </trkpt>
      <trkpt lat="43.68533" lon="1.5126">
        <ele>205.08658354244</ele>
        <time>2021-10-12T21:30:40.110Z</time>
      </trkpt>
      <trkpt lat="43.68538" lon="1.51254">
        <ele>204.73248589156</ele>
        <time>2021-10-12T21:30:42.583Z</time>
      </trkpt>
      <trkpt lat="43.68557" lon="1.51271">
        <ele>204.45758016746</ele>
        <time>2021-10-12T21:30:45.059Z</time>
      </trkpt>
      <trkpt lat="43.68661" lon="1.5135">
        <ele>204.19033475074</ele>
        <time>2021-10-12T21:30:47.554Z</time>
      </trkpt>
      <trkpt lat="43.68778" lon="1.51447">
        <ele>203.61047911125</ele>
        <time>2021-10-12T21:30:50.071Z</time>
      </trkpt>
      <trkpt lat="43.68778" lon="1.51447">
        <ele>203.47295997649</ele>
        <time>2021-10-12T21:30:52.588Z</time>
      </trkpt>
      <trkpt lat="43.68854" lon="1.51502">
        <ele>203.37013203529</ele>
        <time>2021-10-12T21:30:55.119Z</time>
      </trkpt>
      <trkpt lat="43.68854" lon="1.51502">
        <ele>203.34627791249</ele>
        <time>2021-10-12T21:30:57.650Z</time>
      </trkpt>
      <trkpt lat="43.68898" lon="1.51531">
        <ele>203.56304311767</ele>
        <time>2021-10-12T21:31:00.189Z</time>
      </trkpt>
      <trkpt lat="43.6891" lon="1.51535">
        <ele>203.65754558069</ele>
        <time>2021-10-12T21:31:02.730Z</time>
      </trkpt>
      <trkpt lat="43.68935" lon="1.51539">
        <ele>203.75467557862</ele>
        <time>2021-10-12T21:31:05.275Z</time>
      </trkpt>
      <trkpt lat="43.68935" lon="1.51539">
        <ele>203.90644435187</ele>
        <time>2021-10-12T21:31:07.820Z</time>
      </trkpt>
      <trkpt lat="43.68945" lon="1.51543">
        <ele>204.09118189235</ele>
        <time>2021-10-12T21:31:10.366Z</time>
      </trkpt>
      <trkpt lat="43.68945" lon="1.51543">
        <ele>204.29359323095</ele>
        <time>2021-10-12T21:31:12.912Z</time>
      </trkpt>
      <trkpt lat="43.68957" lon="1.51551">
        <ele>204.54810031927</ele>
        <time>2021-10-12T21:31:15.460Z</time>
      </trkpt>
      <trkpt lat="43.68964" lon="1.5156">
        <ele>204.81654207021</ele>
        <time>2021-10-12T21:31:18.010Z</time>
      </trkpt>
      <trkpt lat="43.68999" lon="1.51605">
        <ele>205.14147437728</ele>
        <time>2021-10-12T21:31:20.568Z</time>
      </trkpt>
      <trkpt lat="43.69042" lon="1.51656">
        <ele>205.4642583218</ele>
        <time>2021-10-12T21:31:23.135Z</time>
      </trkpt>
      <trkpt lat="43.69066" lon="1.51688">
        <ele>205.70732935031</ele>
        <time>2021-10-12T21:31:25.707Z</time>
      </trkpt>
      <trkpt lat="43.69067" lon="1.51689">
        <ele>205.86158366525</ele>
        <time>2021-10-12T21:31:28.279Z</time>
      </trkpt>
      <trkpt lat="43.6908" lon="1.51704">
        <ele>206.00537208209</ele>
        <time>2021-10-12T21:31:30.854Z</time>
      </trkpt>
      <trkpt lat="43.69086" lon="1.51705">
        <ele>206.07922748258</ele>
        <time>2021-10-12T21:31:33.430Z</time>
      </trkpt>
      <trkpt lat="43.69107" lon="1.51675">
        <ele>206.0307416097</ele>
        <time>2021-10-12T21:31:36.011Z</time>
      </trkpt>
      <trkpt lat="43.69119" lon="1.51671">
        <ele>205.95443110589</ele>
        <time>2021-10-12T21:31:38.594Z</time>
      </trkpt>
      <trkpt lat="43.69124" lon="1.51674">
        <ele>205.86278719596</ele>
        <time>2021-10-12T21:31:41.178Z</time>
      </trkpt>
      <trkpt lat="43.69162" lon="1.51698">
        <ele>205.66669382744</ele>
        <time>2021-10-12T21:31:43.768Z</time>
      </trkpt>
      <trkpt lat="43.69173" lon="1.51707">
        <ele>205.47046031942</ele>
        <time>2021-10-12T21:31:46.360Z</time>
      </trkpt>
      <trkpt lat="43.69196" lon="1.51704">
        <ele>205.20918215949</ele>
        <time>2021-10-12T21:31:48.956Z</time>
      </trkpt>
      <trkpt lat="43.69198" lon="1.51689">
        <ele>204.93943600882</ele>
        <time>2021-10-12T21:31:51.554Z</time>
      </trkpt>
      <trkpt lat="43.692" lon="1.51683">
        <ele>204.61652701694</ele>
        <time>2021-10-12T21:31:54.152Z</time>
      </trkpt>
      <trkpt lat="43.69201" lon="1.51683">
        <ele>204.24825858584</ele>
        <time>2021-10-12T21:31:56.751Z</time>
      </trkpt>
      <trkpt lat="43.69201" lon="1.51683">
        <ele>203.83901027243</ele>
        <time>2021-10-12T21:31:59.350Z</time>
      </trkpt>
      <trkpt lat="43.69207" lon="1.51679">
        <ele>203.38245353371</ele>
        <time>2021-10-12T21:32:01.950Z</time>
      </trkpt>
      <trkpt lat="43.69248" lon="1.51672">
        <ele>202.82512247229</ele>
        <time>2021-10-12T21:32:04.556Z</time>
      </trkpt>
      <trkpt lat="43.6925" lon="1.51692">
        <ele>202.29647427978</ele>
        <time>2021-10-12T21:32:07.164Z</time>
      </trkpt>
      <trkpt lat="43.69286" lon="1.5169">
        <ele>201.65992338063</ele>
        <time>2021-10-12T21:32:09.778Z</time>
      </trkpt>
      <trkpt lat="43.69312" lon="1.51679">
        <ele>201.02310694524</ele>
        <time>2021-10-12T21:32:12.397Z</time>
      </trkpt>
      <trkpt lat="43.69326" lon="1.51677">
        <ele>200.41750136079</ele>
        <time>2021-10-12T21:32:15.018Z</time>
      </trkpt>
      <trkpt lat="43.69334" lon="1.51675">
        <ele>199.82828426039</ele>
        <time>2021-10-12T21:32:17.640Z</time>
      </trkpt>
      <trkpt lat="43.69338" lon="1.51674">
        <ele>199.24932046223</ele>
        <time>2021-10-12T21:32:20.263Z</time>
      </trkpt>
      <trkpt lat="43.69373" lon="1.51664">
        <ele>198.59615011884</ele>
        <time>2021-10-12T21:32:22.892Z</time>
      </trkpt>
      <trkpt lat="43.69433" lon="1.51646">
        <ele>197.96878448208</ele>
        <time>2021-10-12T21:32:25.530Z</time>
      </trkpt>
      <trkpt lat="43.69471" lon="1.51634">
        <ele>197.37669714428</ele>
        <time>2021-10-12T21:32:28.175Z</time>
      </trkpt>
      <trkpt lat="43.69493" lon="1.5163">
        <ele>196.82899752731</ele>
        <time>2021-10-12T21:32:30.823Z</time>
      </trkpt>
      <trkpt lat="43.69506" lon="1.51624">
        <ele>196.3422438686</ele>
        <time>2021-10-12T21:32:33.473Z</time>
      </trkpt>
      <trkpt lat="43.69515" lon="1.51623">
        <ele>195.8850961095</ele>
        <time>2021-10-12T21:32:36.125Z</time>
      </trkpt>
      <trkpt lat="43.69529" lon="1.51616">
        <ele>195.47116038847</ele>
        <time>2021-10-12T21:32:38.779Z</time>
      </trkpt>
      <trkpt lat="43.69535" lon="1.51618">
        <ele>195.07043077801</ele>
        <time>2021-10-12T21:32:41.434Z</time>
      </trkpt>
      <trkpt lat="43.69541" lon="1.51618">
        <ele>194.70178471286</ele>
        <time>2021-10-12T21:32:44.090Z</time>
      </trkpt>
      <trkpt lat="43.69544" lon="1.51616">
        <ele>194.36393078572</ele>
        <time>2021-10-12T21:32:46.747Z</time>
      </trkpt>
      <trkpt lat="43.69549" lon="1.51608">
        <ele>194.06115032898</ele>
        <time>2021-10-12T21:32:49.405Z</time>
      </trkpt>
      <trkpt lat="43.69551" lon="1.51601">
        <ele>193.78057516108</ele>
        <time>2021-10-12T21:32:52.064Z</time>
      </trkpt>
      <trkpt lat="43.69558" lon="1.5159">
        <ele>193.49686983431</ele>
        <time>2021-10-12T21:32:54.724Z</time>
      </trkpt>
      <trkpt lat="43.69558" lon="1.5159">
        <ele>193.23768162709</ele>
        <time>2021-10-12T21:32:57.384Z</time>
      </trkpt>
      <trkpt lat="43.69577" lon="1.51572">
        <ele>192.95470908537</ele>
        <time>2021-10-12T21:33:00.048Z</time>
      </trkpt>
      <trkpt lat="43.69594" lon="1.51554">
        <ele>192.68665032036</ele>
        <time>2021-10-12T21:33:02.716Z</time>
      </trkpt>
      <trkpt lat="43.69641" lon="1.51493">
        <ele>192.34987391334</ele>
        <time>2021-10-12T21:33:05.394Z</time>
      </trkpt>
      <trkpt lat="43.69662" lon="1.51468">
        <ele>192.1082020898</ele>
        <time>2021-10-12T21:33:08.076Z</time>
      </trkpt>
      <trkpt lat="43.69669" lon="1.51457">
        <ele>191.88701439754</ele>
        <time>2021-10-12T21:33:10.760Z</time>
      </trkpt>
      <trkpt lat="43.69677" lon="1.51439">
        <ele>191.68481305973</ele>
        <time>2021-10-12T21:33:13.446Z</time>
      </trkpt>
      <trkpt lat="43.69706" lon="1.51323">
        <ele>191.40592879643</ele>
        <time>2021-10-12T21:33:16.147Z</time>
      </trkpt>
      <trkpt lat="43.69718" lon="1.51293">
        <ele>191.13269037629</ele>
        <time>2021-10-12T21:33:18.852Z</time>
      </trkpt>
      <trkpt lat="43.69739" lon="1.51254">
        <ele>190.83262266195</ele>
        <time>2021-10-12T21:33:21.562Z</time>
      </trkpt>
      <trkpt lat="43.69739" lon="1.51254">
        <ele>190.55771962373</ele>
        <time>2021-10-12T21:33:24.272Z</time>
      </trkpt>
      <trkpt lat="43.69766" lon="1.51219">
        <ele>190.22472381931</ele>
        <time>2021-10-12T21:33:26.988Z</time>
      </trkpt>
      <trkpt lat="43.69793" lon="1.51194">
        <ele>189.86924114744</ele>
        <time>2021-10-12T21:33:29.709Z</time>
      </trkpt>
      <trkpt lat="43.69805" lon="1.51185">
        <ele>189.49100239191</ele>
        <time>2021-10-12T21:33:32.433Z</time>
      </trkpt>
      <trkpt lat="43.69831" lon="1.51175">
        <ele>189.05921691398</ele>
        <time>2021-10-12T21:33:35.161Z</time>
      </trkpt>
      <trkpt lat="43.69881" lon="1.51162">
        <ele>188.57305053791</ele>
        <time>2021-10-12T21:33:37.897Z</time>
      </trkpt>
      <trkpt lat="43.6994" lon="1.51148">
        <ele>188.05875872153</ele>
        <time>2021-10-12T21:33:40.643Z</time>
      </trkpt>
      <trkpt lat="43.69943" lon="1.51142">
        <ele>187.4709789546</ele>
        <time>2021-10-12T21:33:43.389Z</time>
      </trkpt>
      <trkpt lat="43.70077" lon="1.5113">
        <ele>186.86615055472</ele>
        <time>2021-10-12T21:33:46.157Z</time>
      </trkpt>
      <trkpt lat="43.70081" lon="1.51127">
        <ele>186.13963276427</ele>
        <time>2021-10-12T21:33:48.926Z</time>
      </trkpt>
      <trkpt lat="43.70117" lon="1.51114">
        <ele>185.31832515973</ele>
        <time>2021-10-12T21:33:51.701Z</time>
      </trkpt>
      <trkpt lat="43.70237" lon="1.51043">
        <ele>184.27181788893</ele>
        <time>2021-10-12T21:33:54.496Z</time>
      </trkpt>
      <trkpt lat="43.70241" lon="1.51056">
        <ele>183.3008226011</ele>
        <time>2021-10-12T21:33:57.293Z</time>
      </trkpt>
      <trkpt lat="43.70332" lon="1.51047">
        <ele>182.24263085253</ele>
        <time>2021-10-12T21:34:00.105Z</time>
      </trkpt>
      <trkpt lat="43.70365" lon="1.51048">
        <ele>181.06403890756</ele>
        <time>2021-10-12T21:34:02.922Z</time>
      </trkpt>
      <trkpt lat="43.70379" lon="1.5105">
        <ele>179.80699353046</ele>
        <time>2021-10-12T21:34:05.741Z</time>
      </trkpt>
      <trkpt lat="43.70378" lon="1.5105">
        <ele>178.50387445082</ele>
        <time>2021-10-12T21:34:08.560Z</time>
      </trkpt>
      <trkpt lat="43.70399" lon="1.51059">
        <ele>177.06921745343</ele>
        <time>2021-10-12T21:34:11.383Z</time>
      </trkpt>
      <trkpt lat="43.70425" lon="1.51073">
        <ele>175.52770165608</ele>
        <time>2021-10-12T21:34:14.210Z</time>
      </trkpt>
      <trkpt lat="43.70464" lon="1.51097">
        <ele>173.82271440489</ele>
        <time>2021-10-12T21:34:17.044Z</time>
      </trkpt>
      <trkpt lat="43.7051" lon="1.51123">
        <ele>172.01772778664</ele>
        <time>2021-10-12T21:34:19.886Z</time>
      </trkpt>
      <trkpt lat="43.70542" lon="1.51133">
        <ele>170.26494203704</ele>
        <time>2021-10-12T21:34:22.733Z</time>
      </trkpt>
      <trkpt lat="43.70575" lon="1.51138">
        <ele>168.4834062388</ele>
        <time>2021-10-12T21:34:25.585Z</time>
      </trkpt>
      <trkpt lat="43.70607" lon="1.51146">
        <ele>166.67818185477</ele>
        <time>2021-10-12T21:34:28.443Z</time>
      </trkpt>
      <trkpt lat="43.70667" lon="1.51168">
        <ele>164.74476778741</ele>
        <time>2021-10-12T21:34:31.311Z</time>
      </trkpt>
      <trkpt lat="43.70718" lon="1.51184">
        <ele>162.89221357714</ele>
        <time>2021-10-12T21:34:34.187Z</time>
      </trkpt>
      <trkpt lat="43.70798" lon="1.51203">
        <ele>161.02850124452</ele>
        <time>2021-10-12T21:34:37.076Z</time>
      </trkpt>
      <trkpt lat="43.70848" lon="1.51217">
        <ele>159.24292898517</ele>
        <time>2021-10-12T21:34:39.973Z</time>
      </trkpt>
      <trkpt lat="43.71063" lon="1.51311">
        <ele>157.58351562699</ele>
        <time>2021-10-12T21:34:42.906Z</time>
      </trkpt>
      <trkpt lat="43.71102" lon="1.51321">
        <ele>155.92857014584</ele>
        <time>2021-10-12T21:34:45.846Z</time>
      </trkpt>
      <trkpt lat="43.71102" lon="1.51321">
        <ele>154.32227146257</ele>
        <time>2021-10-12T21:34:48.786Z</time>
      </trkpt>
      <trkpt lat="43.71102" lon="1.51321">
        <ele>152.74972805628</ele>
        <time>2021-10-12T21:34:51.726Z</time>
      </trkpt>
      <trkpt lat="43.71104" lon="1.51322">
        <ele>151.21200647307</ele>
        <time>2021-10-12T21:34:54.666Z</time>
      </trkpt>
      <trkpt lat="43.71177" lon="1.51329">
        <ele>149.62675745249</ele>
        <time>2021-10-12T21:34:57.617Z</time>
      </trkpt>
      <trkpt lat="43.71204" lon="1.51331">
        <ele>148.12395222377</ele>
        <time>2021-10-12T21:35:00.573Z</time>
      </trkpt>
      <trkpt lat="43.71281" lon="1.5133">
        <ele>146.53721261328</ele>
        <time>2021-10-12T21:35:03.541Z</time>
      </trkpt>
      <trkpt lat="43.713" lon="1.51335">
        <ele>145.11033302064</ele>
        <time>2021-10-12T21:35:06.512Z</time>
      </trkpt>
      <trkpt lat="43.71318" lon="1.51341">
        <ele>143.73602236421</ele>
        <time>2021-10-12T21:35:09.486Z</time>
      </trkpt>
      <trkpt lat="43.71352" lon="1.51358">
        <ele>142.36530931386</ele>
        <time>2021-10-12T21:35:12.466Z</time>
      </trkpt>
      <trkpt lat="43.71429" lon="1.51407">
        <ele>141.10050441309</ele>
        <time>2021-10-12T21:35:15.460Z</time>
      </trkpt>
      <trkpt lat="43.71574" lon="1.51515">
        <ele>139.81586746568</ele>
        <time>2021-10-12T21:35:18.480Z</time>
      </trkpt>
      <trkpt lat="43.71588" lon="1.51528">
        <ele>138.67914582492</ele>
        <time>2021-10-12T21:35:21.503Z</time>
      </trkpt>
      <trkpt lat="43.71591" lon="1.51538">
        <ele>137.60891201192</ele>
        <time>2021-10-12T21:35:24.527Z</time>
      </trkpt>
      <trkpt lat="43.71599" lon="1.51543">
        <ele>136.58380430081</ele>
        <time>2021-10-12T21:35:27.552Z</time>
      </trkpt>
      <trkpt lat="43.71603" lon="1.51542">
        <ele>135.61690098099</ele>
        <time>2021-10-12T21:35:30.578Z</time>
      </trkpt>
      <trkpt lat="43.71623" lon="1.51542">
        <ele>134.66603074293</ele>
        <time>2021-10-12T21:35:33.607Z</time>
      </trkpt>
      <trkpt lat="43.71672" lon="1.5155">
        <ele>133.70923757752</ele>
        <time>2021-10-12T21:35:36.644Z</time>
      </trkpt>
      <trkpt lat="43.71698" lon="1.51548">
        <ele>132.8565863697</ele>
        <time>2021-10-12T21:35:39.685Z</time>
      </trkpt>
      <trkpt lat="43.71722" lon="1.51538">
        <ele>132.06793350685</ele>
        <time>2021-10-12T21:35:42.730Z</time>
      </trkpt>
      <trkpt lat="43.71878" lon="1.51446">
        <ele>131.2594924796</ele>
        <time>2021-10-12T21:35:45.802Z</time>
      </trkpt>
      <trkpt lat="43.71942" lon="1.51411">
        <ele>130.5437177076</ele>
        <time>2021-10-12T21:35:48.885Z</time>
      </trkpt>
      <trkpt lat="43.71952" lon="1.51409">
        <ele>129.94225273072</ele>
        <time>2021-10-12T21:35:51.970Z</time>
      </trkpt>
      <trkpt lat="43.71962" lon="1.51411">
        <ele>129.3991185874</ele>
        <time>2021-10-12T21:35:55.057Z</time>
      </trkpt>
      <trkpt lat="43.72004" lon="1.51455">
        <ele>128.91050255866</ele>
        <time>2021-10-12T21:35:58.152Z</time>
      </trkpt>
      <trkpt lat="43.72022" lon="1.51469">
        <ele>128.47750804017</ele>
        <time>2021-10-12T21:36:01.250Z</time>
      </trkpt>
      <trkpt lat="43.72039" lon="1.51475">
        <ele>128.10893145478</ele>
        <time>2021-10-12T21:36:04.351Z</time>
      </trkpt>
      <trkpt lat="43.7206" lon="1.51472">
        <ele>127.79713346691</ele>
        <time>2021-10-12T21:36:07.456Z</time>
      </trkpt>
      <trkpt lat="43.72079" lon="1.51462">
        <ele>127.53982393202</ele>
        <time>2021-10-12T21:36:10.564Z</time>
      </trkpt>
      <trkpt lat="43.72162" lon="1.51396">
        <ele>127.33910975743</ele>
        <time>2021-10-12T21:36:13.687Z</time>
      </trkpt>
      <trkpt lat="43.72185" lon="1.51381">
        <ele>127.17327128533</ele>
        <time>2021-10-12T21:36:16.814Z</time>
      </trkpt>
      <trkpt lat="43.72206" lon="1.51376">
        <ele>127.07401774551</ele>
        <time>2021-10-12T21:36:19.945Z</time>
      </trkpt>
      <trkpt lat="43.72298" lon="1.51373">
        <ele>127.05548457456</ele>
        <time>2021-10-12T21:36:23.090Z</time>
      </trkpt>
      <trkpt lat="43.72327" lon="1.51369">
        <ele>127.09967528092</ele>
        <time>2021-10-12T21:36:26.240Z</time>
      </trkpt>
      <trkpt lat="43.72355" lon="1.51357">
        <ele>127.18397105944</ele>
        <time>2021-10-12T21:36:29.395Z</time>
      </trkpt>
      <trkpt lat="43.72371" lon="1.51343">
        <ele>127.32913182093</ele>
        <time>2021-10-12T21:36:32.553Z</time>
      </trkpt>
      <trkpt lat="43.72388" lon="1.51324">
        <ele>127.54504108121</ele>
        <time>2021-10-12T21:36:35.714Z</time>
      </trkpt>
      <trkpt lat="43.72432" lon="1.51262">
        <ele>127.87560468738</ele>
        <time>2021-10-12T21:36:38.885Z</time>
      </trkpt>
      <trkpt lat="43.72444" lon="1.51255">
        <ele>128.30811292671</ele>
        <time>2021-10-12T21:36:42.058Z</time>
      </trkpt>
      <trkpt lat="43.72449" lon="1.51257">
        <ele>128.82757635471</ele>
        <time>2021-10-12T21:36:45.232Z</time>
      </trkpt>
      <trkpt lat="43.72461" lon="1.51266">
        <ele>129.44491356654</ele>
        <time>2021-10-12T21:36:48.408Z</time>
      </trkpt>
      <trkpt lat="43.72473" lon="1.51288">
        <ele>130.15535596443</ele>
        <time>2021-10-12T21:36:51.588Z</time>
      </trkpt>
      <trkpt lat="43.72504" lon="1.51341">
        <ele>130.96476507306</ele>
        <time>2021-10-12T21:36:54.776Z</time>
      </trkpt>
      <trkpt lat="43.72532" lon="1.51395">
        <ele>131.88773278944</ele>
        <time>2021-10-12T21:36:57.971Z</time>
      </trkpt>
      <trkpt lat="43.72537" lon="1.51403">
        <ele>132.93446773936</ele>
        <time>2021-10-12T21:37:01.168Z</time>
      </trkpt>
      <trkpt lat="43.72547" lon="1.51419">
        <ele>134.1024053478</ele>
        <time>2021-10-12T21:37:04.367Z</time>
      </trkpt>
      <trkpt lat="43.72561" lon="1.51439">
        <ele>135.38736124399</ele>
        <time>2021-10-12T21:37:07.569Z</time>
      </trkpt>
      <trkpt lat="43.72599" lon="1.51485">
        <ele>136.8161797549</ele>
        <time>2021-10-12T21:37:10.779Z</time>
      </trkpt>
      <trkpt lat="43.72642" lon="1.51532">
        <ele>138.34986406976</ele>
        <time>2021-10-12T21:37:13.998Z</time>
      </trkpt>
      <trkpt lat="43.72685" lon="1.51571">
        <ele>139.99244084773</ele>
        <time>2021-10-12T21:37:17.225Z</time>
      </trkpt>
      <trkpt lat="43.72757" lon="1.5163">
        <ele>141.82528625587</ele>
        <time>2021-10-12T21:37:20.466Z</time>
      </trkpt>
      <trkpt lat="43.72862" lon="1.51705">
        <ele>143.99048976793</ele>
        <time>2021-10-12T21:37:23.726Z</time>
      </trkpt>
      <trkpt lat="43.72883" lon="1.51721">
        <ele>145.89381721025</ele>
        <time>2021-10-12T21:37:26.989Z</time>
      </trkpt>
      <trkpt lat="43.72913" lon="1.51749">
        <ele>147.89685114281</ele>
        <time>2021-10-12T21:37:30.258Z</time>
      </trkpt>
      <trkpt lat="43.72921" lon="1.51755">
        <ele>149.84472595038</ele>
        <time>2021-10-12T21:37:33.529Z</time>
      </trkpt>
      <trkpt lat="43.72937" lon="1.5176">
        <ele>151.84585125756</ele>
        <time>2021-10-12T21:37:36.802Z</time>
      </trkpt>
      <trkpt lat="43.72977" lon="1.51767">
        <ele>153.94344867879</ele>
        <time>2021-10-12T21:37:40.082Z</time>
      </trkpt>
      <trkpt lat="43.72992" lon="1.51772">
        <ele>155.96743539563</ele>
        <time>2021-10-12T21:37:43.364Z</time>
      </trkpt>
      <trkpt lat="43.73004" lon="1.51781">
        <ele>157.98117248998</ele>
        <time>2021-10-12T21:37:46.648Z</time>
      </trkpt>
      <trkpt lat="43.73031" lon="1.51819">
        <ele>160.05388925205</ele>
        <time>2021-10-12T21:37:49.939Z</time>
      </trkpt>
      <trkpt lat="43.73042" lon="1.5183">
        <ele>161.99349432277</ele>
        <time>2021-10-12T21:37:53.232Z</time>
      </trkpt>
      <trkpt lat="43.73061" lon="1.5184">
        <ele>163.91393647279</ele>
        <time>2021-10-12T21:37:56.528Z</time>
      </trkpt>
      <trkpt lat="43.73074" lon="1.51841">
        <ele>165.78401258941</ele>
        <time>2021-10-12T21:37:59.826Z</time>
      </trkpt>
      <trkpt lat="43.7311" lon="1.51841">
        <ele>167.64996264068</ele>
        <time>2021-10-12T21:38:03.130Z</time>
      </trkpt>
      <trkpt lat="43.73126" lon="1.51843">
        <ele>169.37831422968</ele>
        <time>2021-10-12T21:38:06.436Z</time>
      </trkpt>
      <trkpt lat="43.73208" lon="1.51868">
        <ele>171.16795068503</ele>
        <time>2021-10-12T21:38:09.756Z</time>
      </trkpt>
      <trkpt lat="43.73222" lon="1.51869">
        <ele>172.76508726964</ele>
        <time>2021-10-12T21:38:13.078Z</time>
      </trkpt>
      <trkpt lat="43.73229" lon="1.51867">
        <ele>174.23451550698</ele>
        <time>2021-10-12T21:38:16.401Z</time>
      </trkpt>
      <trkpt lat="43.73262" lon="1.51833">
        <ele>175.65038025805</ele>
        <time>2021-10-12T21:38:19.731Z</time>
      </trkpt>
      <trkpt lat="43.73271" lon="1.51826">
        <ele>176.86048820707</ele>
        <time>2021-10-12T21:38:23.062Z</time>
      </trkpt>
      <trkpt lat="43.73283" lon="1.51821">
        <ele>177.9550681629</ele>
        <time>2021-10-12T21:38:26.395Z</time>
      </trkpt>
      <trkpt lat="43.73366" lon="1.51793">
        <ele>179.12233551689</ele>
        <time>2021-10-12T21:38:29.742Z</time>
      </trkpt>
      <trkpt lat="43.73384" lon="1.51788">
        <ele>179.88823012541</ele>
        <time>2021-10-12T21:38:33.092Z</time>
      </trkpt>
      <trkpt lat="43.73404" lon="1.5179">
        <ele>180.49806436709</ele>
        <time>2021-10-12T21:38:36.445Z</time>
      </trkpt>
      <trkpt lat="43.73441" lon="1.51807">
        <ele>180.98080163583</ele>
        <time>2021-10-12T21:38:39.804Z</time>
      </trkpt>
      <trkpt lat="43.73457" lon="1.51812">
        <ele>181.23368948869</ele>
        <time>2021-10-12T21:38:43.166Z</time>
      </trkpt>
      <trkpt lat="43.73474" lon="1.51817">
        <ele>181.29882291737</ele>
        <time>2021-10-12T21:38:46.531Z</time>
      </trkpt>
      <trkpt lat="43.73501" lon="1.51826">
        <ele>181.17930313137</ele>
        <time>2021-10-12T21:38:49.900Z</time>
      </trkpt>
      <trkpt lat="43.73509" lon="1.5183">
        <ele>180.82520461852</ele>
        <time>2021-10-12T21:38:53.271Z</time>
      </trkpt>
      <trkpt lat="43.73502" lon="1.51862">
        <ele>180.20264810901</ele>
        <time>2021-10-12T21:38:56.646Z</time>
      </trkpt>
      <trkpt lat="43.73491" lon="1.51904">
        <ele>179.39497416048</ele>
        <time>2021-10-12T21:39:00.026Z</time>
      </trkpt>
      <trkpt lat="43.73458" lon="1.51988">
        <ele>178.26718818085</ele>
        <time>2021-10-12T21:39:03.417Z</time>
      </trkpt>
      <trkpt lat="43.73451" lon="1.51999">
        <ele>177.13870396126</ele>
        <time>2021-10-12T21:39:06.810Z</time>
      </trkpt>
      <trkpt lat="43.73443" lon="1.52012">
        <ele>175.83114647621</ele>
        <time>2021-10-12T21:39:10.205Z</time>
      </trkpt>
      <trkpt lat="43.73429" lon="1.52028">
        <ele>174.38041728467</ele>
        <time>2021-10-12T21:39:13.602Z</time>
      </trkpt>
      <trkpt lat="43.7341" lon="1.52049">
        <ele>172.80393447735</ele>
        <time>2021-10-12T21:39:17.003Z</time>
      </trkpt>
      <trkpt lat="43.734" lon="1.52066">
        <ele>171.12562382995</ele>
        <time>2021-10-12T21:39:20.407Z</time>
      </trkpt>
      <trkpt lat="43.73386" lon="1.52096">
        <ele>169.35914656548</ele>
        <time>2021-10-12T21:39:23.815Z</time>
      </trkpt>
      <trkpt lat="43.73375" lon="1.52121">
        <ele>167.41212731615</ele>
        <time>2021-10-12T21:39:27.226Z</time>
      </trkpt>
      <trkpt lat="43.73365" lon="1.52147">
        <ele>165.39450537783</ele>
        <time>2021-10-12T21:39:30.641Z</time>
      </trkpt>
      <trkpt lat="43.73357" lon="1.52189">
        <ele>163.35288037426</ele>
        <time>2021-10-12T21:39:34.061Z</time>
      </trkpt>
      <trkpt lat="43.73346" lon="1.52256">
        <ele>161.28626553735</ele>
        <time>2021-10-12T21:39:37.489Z</time>
      </trkpt>
      <trkpt lat="43.73342" lon="1.52281">
        <ele>159.30713361142</ele>
        <time>2021-10-12T21:39:40.920Z</time>
      </trkpt>
      <trkpt lat="43.73334" lon="1.52301">
        <ele>157.3559267473</ele>
        <time>2021-10-12T21:39:44.353Z</time>
      </trkpt>
      <trkpt lat="43.73307" lon="1.52361">
        <ele>155.33835608425</ele>
        <time>2021-10-12T21:39:47.795Z</time>
      </trkpt>
      <trkpt lat="43.73296" lon="1.52389">
        <ele>153.29911189931</ele>
        <time>2021-10-12T21:39:51.240Z</time>
      </trkpt>
      <trkpt lat="43.73284" lon="1.52411">
        <ele>151.43517337562</ele>
        <time>2021-10-12T21:39:54.688Z</time>
      </trkpt>
      <trkpt lat="43.7324" lon="1.52476">
        <ele>149.49406412054</ele>
        <time>2021-10-12T21:39:58.147Z</time>
      </trkpt>
      <trkpt lat="43.73232" lon="1.52489">
        <ele>147.98627811021</ele>
        <time>2021-10-12T21:40:01.608Z</time>
      </trkpt>
      <trkpt lat="43.73229" lon="1.52501">
        <ele>146.62709882045</ele>
        <time>2021-10-12T21:40:05.070Z</time>
      </trkpt>
      <trkpt lat="43.7323" lon="1.52514">
        <ele>145.42983480948</ele>
        <time>2021-10-12T21:40:08.534Z</time>
      </trkpt>
      <trkpt lat="43.73233" lon="1.52525">
        <ele>144.40292629413</ele>
        <time>2021-10-12T21:40:11.999Z</time>
      </trkpt>
      <trkpt lat="43.73266" lon="1.52597">
        <ele>143.58652190005</ele>
        <time>2021-10-12T21:40:15.474Z</time>
      </trkpt>
      <trkpt lat="43.73287" lon="1.52661">
        <ele>142.93933910769</ele>
        <time>2021-10-12T21:40:18.957Z</time>
      </trkpt>
      <trkpt lat="43.73332" lon="1.52764">
        <ele>142.4065495357</ele>
        <time>2021-10-12T21:40:22.454Z</time>
      </trkpt>
      <trkpt lat="43.73344" lon="1.52794">
        <ele>142.04924913392</ele>
        <time>2021-10-12T21:40:25.955Z</time>
      </trkpt>
      <trkpt lat="43.73345" lon="1.52801">
        <ele>141.93511146728</ele>
        <time>2021-10-12T21:40:29.457Z</time>
      </trkpt>
      <trkpt lat="43.73348" lon="1.52832">
        <ele>142.02451000377</ele>
        <time>2021-10-12T21:40:32.963Z</time>
      </trkpt>
      <trkpt lat="43.73344" lon="1.52857">
        <ele>142.33739556831</ele>
        <time>2021-10-12T21:40:36.471Z</time>
      </trkpt>
      <trkpt lat="43.73333" lon="1.52888">
        <ele>142.86382117652</ele>
        <time>2021-10-12T21:40:39.983Z</time>
      </trkpt>
      <trkpt lat="43.73329" lon="1.52899">
        <ele>143.5798913671</ele>
        <time>2021-10-12T21:40:43.497Z</time>
      </trkpt>
      <trkpt lat="43.73329" lon="1.52899">
        <ele>144.45285939552</ele>
        <time>2021-10-12T21:40:47.011Z</time>
      </trkpt>
      <trkpt lat="43.73303" lon="1.52951">
        <ele>145.6088257826</ele>
        <time>2021-10-12T21:40:50.532Z</time>
      </trkpt>
      <trkpt lat="43.73283" lon="1.52982">
        <ele>146.84098550993</ele>
        <time>2021-10-12T21:40:54.058Z</time>
      </trkpt>
      <trkpt lat="43.73225" lon="1.53065">
        <ele>148.65111165537</ele>
        <time>2021-10-12T21:40:57.597Z</time>
      </trkpt>
      <trkpt lat="43.73183" lon="1.53116">
        <ele>150.3547500801</ele>
        <time>2021-10-12T21:41:01.145Z</time>
      </trkpt>
      <trkpt lat="43.7316" lon="1.53147">
        <ele>152.05700910633</ele>
        <time>2021-10-12T21:41:04.698Z</time>
      </trkpt>
      <trkpt lat="43.73153" lon="1.53162">
        <ele>153.77725835514</ele>
        <time>2021-10-12T21:41:08.254Z</time>
      </trkpt>
      <trkpt lat="43.73124" lon="1.53244">
        <ele>155.71472727371</ele>
        <time>2021-10-12T21:41:11.820Z</time>
      </trkpt>
      <trkpt lat="43.73109" lon="1.53281">
        <ele>157.57831838567</ele>
        <time>2021-10-12T21:41:15.391Z</time>
      </trkpt>
      <trkpt lat="43.73099" lon="1.53301">
        <ele>159.4784795386</ele>
        <time>2021-10-12T21:41:18.965Z</time>
      </trkpt>
      <trkpt lat="43.73099" lon="1.53301">
        <ele>161.40217384241</ele>
        <time>2021-10-12T21:41:22.539Z</time>
      </trkpt>
      <trkpt lat="43.73099" lon="1.53301">
        <ele>159.4784795386</ele>
        <time>2021-10-12T21:41:26.113Z</time>
      </trkpt>
      <trkpt lat="43.73056" lon="1.53391">
        <ele>165.55929540284</ele>
        <time>2021-10-12T21:41:29.699Z</time>
      </trkpt>
      <trkpt lat="43.73025" lon="1.53447">
        <ele>167.52350341254</ele>
        <time>2021-10-12T21:41:33.294Z</time>
      </trkpt>
      <trkpt lat="43.72997" lon="1.53492">
        <ele>169.52577676228</ele>
        <time>2021-10-12T21:41:36.895Z</time>
      </trkpt>
      <trkpt lat="43.72929" lon="1.53583">
        <ele>171.76213828103</ele>
        <time>2021-10-12T21:41:40.512Z</time>
      </trkpt>
      <trkpt lat="43.72875" lon="1.53658">
        <ele>173.91820721012</ele>
        <time>2021-10-12T21:41:44.141Z</time>
      </trkpt>
      <trkpt lat="43.72851" lon="1.53697">
        <ele>175.87137227931</ele>
        <time>2021-10-12T21:41:47.776Z</time>
      </trkpt>
      <trkpt lat="43.7283" lon="1.53736">
        <ele>177.79438996808</ele>
        <time>2021-10-12T21:41:51.416Z</time>
      </trkpt>
      <trkpt lat="43.72789" lon="1.53829">
        <ele>179.82798583738</ele>
        <time>2021-10-12T21:41:55.069Z</time>
      </trkpt>
      <trkpt lat="43.72772" lon="1.53859">
        <ele>181.64362835858</ele>
        <time>2021-10-12T21:41:58.727Z</time>
      </trkpt>
      <trkpt lat="43.72722" lon="1.53932">
        <ele>183.5031848843</ele>
        <time>2021-10-12T21:42:02.396Z</time>
      </trkpt>
      <trkpt lat="43.72663" lon="1.54006">
        <ele>185.29862626621</ele>
        <time>2021-10-12T21:42:06.078Z</time>
      </trkpt>
      <trkpt lat="43.72593" lon="1.54101">
        <ele>187.01560615818</ele>
        <time>2021-10-12T21:42:09.776Z</time>
      </trkpt>
      <trkpt lat="43.72573" lon="1.54135">
        <ele>188.70298941027</ele>
        <time>2021-10-12T21:42:13.479Z</time>
      </trkpt>
      <trkpt lat="43.72516" lon="1.54243">
        <ele>190.46033364957</ele>
        <time>2021-10-12T21:42:17.197Z</time>
      </trkpt>
      <trkpt lat="43.72491" lon="1.54286">
        <ele>191.96932473878</ele>
        <time>2021-10-12T21:42:20.922Z</time>
      </trkpt>
      <trkpt lat="43.72442" lon="1.54358">
        <ele>193.52785870831</ele>
        <time>2021-10-12T21:42:24.658Z</time>
      </trkpt>
      <trkpt lat="43.724" lon="1.5441">
        <ele>194.98393903387</ele>
        <time>2021-10-12T21:42:28.403Z</time>
      </trkpt>
      <trkpt lat="43.72383" lon="1.54434">
        <ele>196.32508266839</ele>
        <time>2021-10-12T21:42:32.152Z</time>
      </trkpt>
      <trkpt lat="43.72369" lon="1.54462">
        <ele>197.56718415009</ele>
        <time>2021-10-12T21:42:35.905Z</time>
      </trkpt>
      <trkpt lat="43.72357" lon="1.5449">
        <ele>198.75713442919</ele>
        <time>2021-10-12T21:42:39.662Z</time>
      </trkpt>
      <trkpt lat="43.72354" lon="1.54497">
        <ele>199.89930414193</ele>
        <time>2021-10-12T21:42:43.420Z</time>
      </trkpt>
      <trkpt lat="43.72284" lon="1.54695">
        <ele>201.222942862</ele>
        <time>2021-10-12T21:42:47.203Z</time>
      </trkpt>
      <trkpt lat="43.72247" lon="1.54813">
        <ele>202.21640272037</ele>
        <time>2021-10-12T21:42:51.001Z</time>
      </trkpt>
      <trkpt lat="43.72171" lon="1.55093">
        <ele>203.28433503883</ele>
        <time>2021-10-12T21:42:54.834Z</time>
      </trkpt>
      <trkpt lat="43.72168" lon="1.55112">
        <ele>204.18199566226</ele>
        <time>2021-10-12T21:42:58.669Z</time>
      </trkpt>
      <trkpt lat="43.72167" lon="1.55129">
        <ele>205.01582687905</ele>
        <time>2021-10-12T21:43:02.506Z</time>
      </trkpt>
      <trkpt lat="43.72168" lon="1.55149">
        <ele>205.78195155536</ele>
        <time>2021-10-12T21:43:06.345Z</time>
      </trkpt>
      <trkpt lat="43.72168" lon="1.55149">
        <ele>206.47388869217</ele>
        <time>2021-10-12T21:43:10.184Z</time>
      </trkpt>
      <trkpt lat="43.72176" lon="1.55189">
        <ele>207.1193206996</ele>
        <time>2021-10-12T21:43:14.028Z</time>
      </trkpt>
      <trkpt lat="43.72176" lon="1.55202">
        <ele>207.69777641876</ele>
        <time>2021-10-12T21:43:17.874Z</time>
      </trkpt>
      <trkpt lat="43.72172" lon="1.55216">
        <ele>208.21779304532</ele>
        <time>2021-10-12T21:43:21.721Z</time>
      </trkpt>
      <trkpt lat="43.72164" lon="1.5524">
        <ele>208.70793179659</ele>
        <time>2021-10-12T21:43:25.572Z</time>
      </trkpt>
      <trkpt lat="43.72141" lon="1.55283">
        <ele>209.14105788237</ele>
        <time>2021-10-12T21:43:29.429Z</time>
      </trkpt>
      <trkpt lat="43.72018" lon="1.5546">
        <ele>209.6734685542</ele>
        <time>2021-10-12T21:43:33.314Z</time>
      </trkpt>
      <trkpt lat="43.72006" lon="1.55482">
        <ele>210.00807617852</ele>
        <time>2021-10-12T21:43:37.202Z</time>
      </trkpt>
      <trkpt lat="43.71882" lon="1.55752">
        <ele>210.35097830071</ele>
        <time>2021-10-12T21:43:41.127Z</time>
      </trkpt>
      <trkpt lat="43.71882" lon="1.55752">
        <ele>210.55385814599</ele>
        <time>2021-10-12T21:43:45.052Z</time>
      </trkpt>
      <trkpt lat="43.71848" lon="1.55825">
        <ele>210.73355302086</ele>
        <time>2021-10-12T21:43:48.987Z</time>
      </trkpt>
      <trkpt lat="43.71841" lon="1.55846">
        <ele>210.82092153374</ele>
        <time>2021-10-12T21:43:52.925Z</time>
      </trkpt>
      <trkpt lat="43.7183" lon="1.55887">
        <ele>210.85766786262</ele>
        <time>2021-10-12T21:43:56.868Z</time>
      </trkpt>
      <trkpt lat="43.71812" lon="1.55962">
        <ele>210.86328509448</ele>
        <time>2021-10-12T21:44:00.820Z</time>
      </trkpt>
      <trkpt lat="43.71809" lon="1.55974">
        <ele>210.80435623895</ele>
        <time>2021-10-12T21:44:04.774Z</time>
      </trkpt>
      <trkpt lat="43.71793" lon="1.56018">
        <ele>210.71589779191</ele>
        <time>2021-10-12T21:44:08.734Z</time>
      </trkpt>
      <trkpt lat="43.71767" lon="1.56093">
        <ele>210.62815819761</ele>
        <time>2021-10-12T21:44:12.703Z</time>
      </trkpt>
      <trkpt lat="43.71754" lon="1.56115">
        <ele>210.36214549348</ele>
        <time>2021-10-12T21:44:16.676Z</time>
      </trkpt>
      <trkpt lat="43.7175" lon="1.5612">
        <ele>210.08474914922</ele>
        <time>2021-10-12T21:44:20.649Z</time>
      </trkpt>
      <trkpt lat="43.71742" lon="1.56123">
        <ele>209.75828115138</ele>
        <time>2021-10-12T21:44:24.624Z</time>
      </trkpt>
      <trkpt lat="43.71729" lon="1.56123">
        <ele>209.40761823373</ele>
        <time>2021-10-12T21:44:28.601Z</time>
      </trkpt>
      <trkpt lat="43.7172" lon="1.5612">
        <ele>209.0223324201</ele>
        <time>2021-10-12T21:44:32.579Z</time>
      </trkpt>
      <trkpt lat="43.71687" lon="1.56099">
        <ele>208.57292410575</ele>
        <time>2021-10-12T21:44:36.563Z</time>
      </trkpt>
      <trkpt lat="43.71654" lon="1.56078">
        <ele>208.05759861431</ele>
        <time>2021-10-12T21:44:40.553Z</time>
      </trkpt>
      <trkpt lat="43.7164" lon="1.56071">
        <ele>207.58330967154</ele>
        <time>2021-10-12T21:44:44.545Z</time>
      </trkpt>
      <trkpt lat="43.71627" lon="1.56068">
        <ele>207.10634125775</ele>
        <time>2021-10-12T21:44:48.539Z</time>
      </trkpt>
      <trkpt lat="43.71604" lon="1.56066">
        <ele>206.60704796555</ele>
        <time>2021-10-12T21:44:52.537Z</time>
      </trkpt>
      <trkpt lat="43.71592" lon="1.56066">
        <ele>206.14470726635</ele>
        <time>2021-10-12T21:44:56.537Z</time>
      </trkpt>
      <trkpt lat="43.71581" lon="1.56069">
        <ele>205.69464658203</ele>
        <time>2021-10-12T21:45:00.539Z</time>
      </trkpt>
      <trkpt lat="43.71572" lon="1.56075">
        <ele>205.26503677073</ele>
        <time>2021-10-12T21:45:04.542Z</time>
      </trkpt>
      <trkpt lat="43.71565" lon="1.56082">
        <ele>204.86065880742</ele>
        <time>2021-10-12T21:45:08.547Z</time>
      </trkpt>
      <trkpt lat="43.7156" lon="1.56093">
        <ele>204.48464893863</ele>
        <time>2021-10-12T21:45:12.553Z</time>
      </trkpt>
      <trkpt lat="43.71549" lon="1.56128">
        <ele>204.1123571874</ele>
        <time>2021-10-12T21:45:16.564Z</time>
      </trkpt>
      <trkpt lat="43.71532" lon="1.56143">
        <ele>203.71942924135</ele>
        <time>2021-10-12T21:45:20.578Z</time>
      </trkpt>
      <trkpt lat="43.71524" lon="1.5614">
        <ele>203.38912729498</ele>
        <time>2021-10-12T21:45:24.593Z</time>
      </trkpt>
      <trkpt lat="43.71516" lon="1.56142">
        <ele>203.10766987967</ele>
        <time>2021-10-12T21:45:28.610Z</time>
      </trkpt>
      <trkpt lat="43.71509" lon="1.56147">
        <ele>202.84459233238</ele>
        <time>2021-10-12T21:45:32.628Z</time>
      </trkpt>
      <trkpt lat="43.71505" lon="1.56155">
        <ele>202.61797318219</ele>
        <time>2021-10-12T21:45:36.647Z</time>
      </trkpt>
      <trkpt lat="43.71503" lon="1.56166">
        <ele>202.45733437739</ele>
        <time>2021-10-12T21:45:40.667Z</time>
      </trkpt>
      <trkpt lat="43.71504" lon="1.56175">
        <ele>202.35186015068</ele>
        <time>2021-10-12T21:45:44.688Z</time>
      </trkpt>
      <trkpt lat="43.71508" lon="1.56186">
        <ele>202.30181096296</ele>
        <time>2021-10-12T21:45:48.711Z</time>
      </trkpt>
      <trkpt lat="43.71516" lon="1.56194">
        <ele>202.3067162184</ele>
        <time>2021-10-12T21:45:52.735Z</time>
      </trkpt>
      <trkpt lat="43.71529" lon="1.56206">
        <ele>202.37371070775</ele>
        <time>2021-10-12T21:45:56.762Z</time>
      </trkpt>
      <trkpt lat="43.7154" lon="1.56226">
        <ele>202.47618945241</ele>
        <time>2021-10-12T21:46:00.792Z</time>
      </trkpt>
      <trkpt lat="43.71565" lon="1.56303">
        <ele>202.71189936005</ele>
        <time>2021-10-12T21:46:04.832Z</time>
      </trkpt>
      <trkpt lat="43.71567" lon="1.56321">
        <ele>202.86883323239</ele>
        <time>2021-10-12T21:46:08.874Z</time>
      </trkpt>
      <trkpt lat="43.71569" lon="1.56344">
        <ele>203.00615379527</ele>
        <time>2021-10-12T21:46:12.918Z</time>
      </trkpt>
      <trkpt lat="43.71576" lon="1.56489">
        <ele>203.00959988411</ele>
        <time>2021-10-12T21:46:16.979Z</time>
      </trkpt>
      <trkpt lat="43.71577" lon="1.5652">
        <ele>203.20246183881</ele>
        <time>2021-10-12T21:46:21.044Z</time>
      </trkpt>
      <trkpt lat="43.71581" lon="1.56607">
        <ele>203.50262691785</ele>
        <time>2021-10-12T21:46:25.119Z</time>
      </trkpt>
      <trkpt lat="43.71583" lon="1.56658">
        <ele>203.87120878515</ele>
        <time>2021-10-12T21:46:29.200Z</time>
      </trkpt>
      <trkpt lat="43.71581" lon="1.56671">
        <ele>204.21296641379</ele>
        <time>2021-10-12T21:46:33.282Z</time>
      </trkpt>
      <trkpt lat="43.71573" lon="1.56694">
        <ele>204.56207226498</ele>
        <time>2021-10-12T21:46:37.367Z</time>
      </trkpt>
      <trkpt lat="43.71566" lon="1.56701">
        <ele>204.93247173224</ele>
        <time>2021-10-12T21:46:41.454Z</time>
      </trkpt>
      <trkpt lat="43.71563" lon="1.56711">
        <ele>205.37160177541</ele>
        <time>2021-10-12T21:46:45.542Z</time>
      </trkpt>
      <trkpt lat="43.71562" lon="1.56723">
        <ele>205.85302037484</ele>
        <time>2021-10-12T21:46:49.631Z</time>
      </trkpt>
      <trkpt lat="43.71564" lon="1.56733">
        <ele>206.36597517839</ele>
        <time>2021-10-12T21:46:53.722Z</time>
      </trkpt>
      <trkpt lat="43.71568" lon="1.56743">
        <ele>206.8911848202</ele>
        <time>2021-10-12T21:46:57.814Z</time>
      </trkpt>
      <trkpt lat="43.71575" lon="1.56749">
        <ele>207.43020133331</ele>
        <time>2021-10-12T21:47:01.907Z</time>
      </trkpt>
      <trkpt lat="43.71583" lon="1.56753">
        <ele>207.98083122302</ele>
        <time>2021-10-12T21:47:06.002Z</time>
      </trkpt>
      <trkpt lat="43.71602" lon="1.56786">
        <ele>208.65862079241</ele>
        <time>2021-10-12T21:47:10.101Z</time>
      </trkpt>
      <trkpt lat="43.71616" lon="1.56805">
        <ele>209.25213569786</ele>
        <time>2021-10-12T21:47:14.204Z</time>
      </trkpt>
      <trkpt lat="43.71628" lon="1.5682">
        <ele>209.81782416756</ele>
        <time>2021-10-12T21:47:18.309Z</time>
      </trkpt>
      <trkpt lat="43.71685" lon="1.56866">
        <ele>210.40361492115</ele>
        <time>2021-10-12T21:47:22.425Z</time>
      </trkpt>
      <trkpt lat="43.71704" lon="1.56887">
        <ele>210.90471311096</ele>
        <time>2021-10-12T21:47:26.545Z</time>
      </trkpt>
      <trkpt lat="43.71709" lon="1.56897">
        <ele>211.39666244444</ele>
        <time>2021-10-12T21:47:30.666Z</time>
      </trkpt>
      <trkpt lat="43.71719" lon="1.56921">
        <ele>211.91823721872</ele>
        <time>2021-10-12T21:47:34.790Z</time>
      </trkpt>
      <trkpt lat="43.71724" lon="1.56947">
        <ele>212.42936803463</ele>
        <time>2021-10-12T21:47:38.917Z</time>
      </trkpt>
      <trkpt lat="43.71725" lon="1.57044">
        <ele>212.91200939654</ele>
        <time>2021-10-12T21:47:43.056Z</time>
      </trkpt>
      <trkpt lat="43.71727" lon="1.57085">
        <ele>213.405972698</ele>
        <time>2021-10-12T21:47:47.199Z</time>
      </trkpt>
      <trkpt lat="43.7173" lon="1.57123">
        <ele>213.91644797268</ele>
        <time>2021-10-12T21:47:51.347Z</time>
      </trkpt>
      <trkpt lat="43.71743" lon="1.57229">
        <ele>214.34909422008</ele>
        <time>2021-10-12T21:47:55.507Z</time>
      </trkpt>
      <trkpt lat="43.71748" lon="1.57275">
        <ele>214.86570457952</ele>
        <time>2021-10-12T21:47:59.673Z</time>
      </trkpt>
      <trkpt lat="43.7175" lon="1.57341">
        <ele>215.34213632708</ele>
        <time>2021-10-12T21:48:03.846Z</time>
      </trkpt>
      <trkpt lat="43.7175" lon="1.57341">
        <ele>215.96643809382</ele>
        <time>2021-10-12T21:48:08.019Z</time>
      </trkpt>
      <trkpt lat="43.71753" lon="1.57459">
        <ele>216.58496267469</ele>
        <time>2021-10-12T21:48:12.206Z</time>
      </trkpt>
      <trkpt lat="43.71757" lon="1.57508">
        <ele>217.42000933982</ele>
        <time>2021-10-12T21:48:16.399Z</time>
      </trkpt>
      <trkpt lat="43.71791" lon="1.57724">
        <ele>218.56602561031</ele>
        <time>2021-10-12T21:48:20.617Z</time>
      </trkpt>
      <trkpt lat="43.718" lon="1.5777">
        <ele>219.35948623438</ele>
        <time>2021-10-12T21:48:24.841Z</time>
      </trkpt>
      <trkpt lat="43.7181" lon="1.57794">
        <ele>220.1629763234</ele>
        <time>2021-10-12T21:48:29.068Z</time>
      </trkpt>
      <trkpt lat="43.7182" lon="1.5781">
        <ele>221.03405168395</ele>
        <time>2021-10-12T21:48:33.298Z</time>
      </trkpt>
      <trkpt lat="43.71879" lon="1.57886">
        <ele>221.87927917436</ele>
        <time>2021-10-12T21:48:37.541Z</time>
      </trkpt>
      <trkpt lat="43.71892" lon="1.57902">
        <ele>222.86782420643</ele>
        <time>2021-10-12T21:48:41.786Z</time>
      </trkpt>
      <trkpt lat="43.71903" lon="1.57917">
        <ele>223.96129198272</ele>
        <time>2021-10-12T21:48:46.034Z</time>
      </trkpt>
      <trkpt lat="43.71903" lon="1.57917">
        <ele>225.00797458709</ele>
        <time>2021-10-12T21:48:50.282Z</time>
      </trkpt>
      <trkpt lat="43.71904" lon="1.5792">
        <ele>226.09457601081</ele>
        <time>2021-10-12T21:48:54.530Z</time>
      </trkpt>
      <trkpt lat="43.71913" lon="1.57934">
        <ele>227.2647078918</ele>
        <time>2021-10-12T21:48:58.780Z</time>
      </trkpt>
      <trkpt lat="43.71913" lon="1.57934">
        <ele>228.38640469395</ele>
        <time>2021-10-12T21:49:03.030Z</time>
      </trkpt>
      <trkpt lat="43.71922" lon="1.57951">
        <ele>229.59208780681</ele>
        <time>2021-10-12T21:49:07.283Z</time>
      </trkpt>
      <trkpt lat="43.72005" lon="1.58137">
        <ele>231.28355966124</ele>
        <time>2021-10-12T21:49:11.561Z</time>
      </trkpt>
      <trkpt lat="43.72019" lon="1.58178">
        <ele>232.46038447235</ele>
        <time>2021-10-12T21:49:15.845Z</time>
      </trkpt>
      <trkpt lat="43.72049" lon="1.58283">
        <ele>233.49628549571</ele>
        <time>2021-10-12T21:49:20.142Z</time>
      </trkpt>
      <trkpt lat="43.72061" lon="1.58317">
        <ele>234.52327343633</ele>
        <time>2021-10-12T21:49:24.443Z</time>
      </trkpt>
      <trkpt lat="43.72075" lon="1.58349">
        <ele>235.56457968056</ele>
        <time>2021-10-12T21:49:28.748Z</time>
      </trkpt>
      <trkpt lat="43.72122" lon="1.58441">
        <ele>236.60975638938</ele>
        <time>2021-10-12T21:49:33.066Z</time>
      </trkpt>
      <trkpt lat="43.72158" lon="1.58501">
        <ele>237.52533233706</ele>
        <time>2021-10-12T21:49:37.393Z</time>
      </trkpt>
      <trkpt lat="43.7218" lon="1.58529">
        <ele>238.34630274326</ele>
        <time>2021-10-12T21:49:41.725Z</time>
      </trkpt>
      <trkpt lat="43.7218" lon="1.58529">
        <ele>239.05724301247</ele>
        <time>2021-10-12T21:49:46.057Z</time>
      </trkpt>
      <trkpt lat="43.72186" lon="1.58536">
        <ele>239.68808870097</ele>
        <time>2021-10-12T21:49:50.390Z</time>
      </trkpt>
      <trkpt lat="43.72193" lon="1.58544">
        <ele>240.21426592995</ele>
        <time>2021-10-12T21:49:54.725Z</time>
      </trkpt>
      <trkpt lat="43.72228" lon="1.58584">
        <ele>240.60188630533</ele>
        <time>2021-10-12T21:49:59.067Z</time>
      </trkpt>
      <trkpt lat="43.72253" lon="1.58613">
        <ele>240.87828455162</ele>
        <time>2021-10-12T21:50:03.414Z</time>
      </trkpt>
      <trkpt lat="43.72261" lon="1.58623">
        <ele>241.08591057146</ele>
        <time>2021-10-12T21:50:07.763Z</time>
      </trkpt>
      <trkpt lat="43.72283" lon="1.58653">
        <ele>241.20844723679</ele>
        <time>2021-10-12T21:50:12.117Z</time>
      </trkpt>
      <trkpt lat="43.72289" lon="1.58668">
        <ele>241.22334683496</ele>
        <time>2021-10-12T21:50:16.473Z</time>
      </trkpt>
      <trkpt lat="43.72295" lon="1.58681">
        <ele>241.12169729652</ele>
        <time>2021-10-12T21:50:20.831Z</time>
      </trkpt>
      <trkpt lat="43.72301" lon="1.58704">
        <ele>240.88819490015</ele>
        <time>2021-10-12T21:50:25.192Z</time>
      </trkpt>
      <trkpt lat="43.72308" lon="1.58747">
        <ele>240.50941026373</ele>
        <time>2021-10-12T21:50:29.558Z</time>
      </trkpt>
      <trkpt lat="43.72309" lon="1.58766">
        <ele>240.03960568704</ele>
        <time>2021-10-12T21:50:33.926Z</time>
      </trkpt>
      <trkpt lat="43.72309" lon="1.58804">
        <ele>239.42366746821</ele>
        <time>2021-10-12T21:50:38.298Z</time>
      </trkpt>
      <trkpt lat="43.72309" lon="1.58804">
        <ele>238.73763134274</ele>
        <time>2021-10-12T21:50:42.670Z</time>
      </trkpt>
      <trkpt lat="43.72309" lon="1.58837">
        <ele>237.92667514734</ele>
        <time>2021-10-12T21:50:47.046Z</time>
      </trkpt>
      <trkpt lat="43.7231" lon="1.58849">
        <ele>237.01484814618</ele>
        <time>2021-10-12T21:50:51.424Z</time>
      </trkpt>
      <trkpt lat="43.72315" lon="1.5888">
        <ele>235.98213130431</ele>
        <time>2021-10-12T21:50:55.805Z</time>
      </trkpt>
      <trkpt lat="43.72324" lon="1.58906">
        <ele>234.8506272808</ele>
        <time>2021-10-12T21:51:00.190Z</time>
      </trkpt>
      <trkpt lat="43.7233" lon="1.58922">
        <ele>233.6233650928</ele>
        <time>2021-10-12T21:51:04.577Z</time>
      </trkpt>
      <trkpt lat="43.72339" lon="1.58937">
        <ele>232.29458397016</ele>
        <time>2021-10-12T21:51:08.966Z</time>
      </trkpt>
      <trkpt lat="43.72349" lon="1.58952">
        <ele>230.86882072298</ele>
        <time>2021-10-12T21:51:13.357Z</time>
      </trkpt>
      <trkpt lat="43.72361" lon="1.58964">
        <ele>229.25681449285</ele>
        <time>2021-10-12T21:51:17.751Z</time>
      </trkpt>
      <trkpt lat="43.72393" lon="1.58985">
        <ele>227.39829877772</ele>
        <time>2021-10-12T21:51:22.150Z</time>
      </trkpt>
      <trkpt lat="43.72409" lon="1.58994">
        <ele>225.50068817007</ele>
        <time>2021-10-12T21:51:26.552Z</time>
      </trkpt>
      <trkpt lat="43.72426" lon="1.59">
        <ele>223.54348758315</ele>
        <time>2021-10-12T21:51:30.957Z</time>
      </trkpt>
      <trkpt lat="43.72459" lon="1.59007">
        <ele>221.39338811036</ele>
        <time>2021-10-12T21:51:35.367Z</time>
      </trkpt>
      <trkpt lat="43.72735" lon="1.59">
        <ele>218.43558793035</ele>
        <time>2021-10-12T21:51:39.821Z</time>
      </trkpt>
      <trkpt lat="43.72771" lon="1.58996">
        <ele>216.45434549619</ele>
        <time>2021-10-12T21:51:44.281Z</time>
      </trkpt>
      <trkpt lat="43.72824" lon="1.58984">
        <ele>214.55317832861</ele>
        <time>2021-10-12T21:51:48.750Z</time>
      </trkpt>
      <trkpt lat="43.7286" lon="1.58979">
        <ele>212.65990053541</ele>
        <time>2021-10-12T21:51:53.225Z</time>
      </trkpt>
      <trkpt lat="43.72931" lon="1.58983">
        <ele>210.66410950414</ele>
        <time>2021-10-12T21:51:57.711Z</time>
      </trkpt>
      <trkpt lat="43.72995" lon="1.58991">
        <ele>208.7079404587</ele>
        <time>2021-10-12T21:52:02.207Z</time>
      </trkpt>
      <trkpt lat="43.7312" lon="1.59009">
        <ele>206.8449342942</ele>
        <time>2021-10-12T21:52:06.723Z</time>
      </trkpt>
      <trkpt lat="43.73199" lon="1.59017">
        <ele>205.26746477506</ele>
        <time>2021-10-12T21:52:11.252Z</time>
      </trkpt>
      <trkpt lat="43.73349" lon="1.59031">
        <ele>203.75066368738</ele>
        <time>2021-10-12T21:52:15.805Z</time>
      </trkpt>
      <trkpt lat="43.7341" lon="1.59037">
        <ele>202.27846794423</ele>
        <time>2021-10-12T21:52:20.368Z</time>
      </trkpt>
      <trkpt lat="43.73435" lon="1.59043">
        <ele>201.02146862092</ele>
        <time>2021-10-12T21:52:24.935Z</time>
      </trkpt>
      <trkpt lat="43.73454" lon="1.59056">
        <ele>199.84455061441</ele>
        <time>2021-10-12T21:52:29.505Z</time>
      </trkpt>
      <trkpt lat="43.73474" lon="1.59073">
        <ele>198.74158413684</ele>
        <time>2021-10-12T21:52:34.079Z</time>
      </trkpt>
      <trkpt lat="43.73506" lon="1.59109">
        <ele>197.73920726343</ele>
        <time>2021-10-12T21:52:38.660Z</time>
      </trkpt>
      <trkpt lat="43.73526" lon="1.5913">
        <ele>196.75331815683</ele>
        <time>2021-10-12T21:52:43.245Z</time>
      </trkpt>
      <trkpt lat="43.73546" lon="1.59147">
        <ele>195.78606876629</ele>
        <time>2021-10-12T21:52:47.833Z</time>
      </trkpt>
      <trkpt lat="43.73553" lon="1.59152">
        <ele>194.84440572135</ele>
        <time>2021-10-12T21:52:52.423Z</time>
      </trkpt>
      <trkpt lat="43.73566" lon="1.59155">
        <ele>193.93874553723</ele>
        <time>2021-10-12T21:52:57.015Z</time>
      </trkpt>
      <trkpt lat="43.73546" lon="1.59223">
        <ele>193.00789476855</ele>
        <time>2021-10-12T21:53:01.615Z</time>
      </trkpt>
      <trkpt lat="43.7351" lon="1.5934">
        <ele>191.87050485378</ele>
        <time>2021-10-12T21:53:06.230Z</time>
      </trkpt>
      <trkpt lat="43.73501" lon="1.59381">
        <ele>190.77400868311</ele>
        <time>2021-10-12T21:53:10.850Z</time>
      </trkpt>
      <trkpt lat="43.73498" lon="1.59399">
        <ele>189.82519589432</ele>
        <time>2021-10-12T21:53:15.472Z</time>
      </trkpt>
      <trkpt lat="43.735" lon="1.59423">
        <ele>188.80967286286</ele>
        <time>2021-10-12T21:53:20.097Z</time>
      </trkpt>
      <trkpt lat="43.73509" lon="1.59465">
        <ele>187.76499223511</ele>
        <time>2021-10-12T21:53:24.727Z</time>
      </trkpt>
      <trkpt lat="43.73528" lon="1.59527">
        <ele>186.67438272524</ele>
        <time>2021-10-12T21:53:29.365Z</time>
      </trkpt>
      <trkpt lat="43.73535" lon="1.59546">
        <ele>185.5619657284</ele>
        <time>2021-10-12T21:53:34.005Z</time>
      </trkpt>
      <trkpt lat="43.7356" lon="1.59617">
        <ele>184.33875312757</ele>
        <time>2021-10-12T21:53:38.655Z</time>
      </trkpt>
      <trkpt lat="43.73569" lon="1.59645">
        <ele>183.11788825194</ele>
        <time>2021-10-12T21:53:43.308Z</time>
      </trkpt>
      <trkpt lat="43.73584" lon="1.59674">
        <ele>181.86110142988</ele>
        <time>2021-10-12T21:53:47.965Z</time>
      </trkpt>
      <trkpt lat="43.73615" lon="1.59755">
        <ele>180.51576628993</ele>
        <time>2021-10-12T21:53:52.633Z</time>
      </trkpt>
      <trkpt lat="43.73646" lon="1.59836">
        <ele>179.15339363193</ele>
        <time>2021-10-12T21:53:57.312Z</time>
      </trkpt>
      <trkpt lat="43.73667" lon="1.59923">
        <ele>177.66158550899</ele>
        <time>2021-10-12T21:54:02.001Z</time>
      </trkpt>
      <trkpt lat="43.73679" lon="1.6">
        <ele>176.11367547281</ele>
        <time>2021-10-12T21:54:06.699Z</time>
      </trkpt>
      <trkpt lat="43.73679" lon="1.6">
        <ele>174.59453474689</ele>
        <time>2021-10-12T21:54:11.397Z</time>
      </trkpt>
      <trkpt lat="43.73696" lon="1.60128">
        <ele>172.86842113335</ele>
        <time>2021-10-12T21:54:16.110Z</time>
      </trkpt>
      <trkpt lat="43.737" lon="1.60183">
        <ele>171.19084447833</ele>
        <time>2021-10-12T21:54:20.830Z</time>
      </trkpt>
      <trkpt lat="43.73701" lon="1.60296">
        <ele>169.36908594022</ele>
        <time>2021-10-12T21:54:25.563Z</time>
      </trkpt>
      <trkpt lat="43.73707" lon="1.60406">
        <ele>167.45676263034</ele>
        <time>2021-10-12T21:54:30.309Z</time>
      </trkpt>
      <trkpt lat="43.73706" lon="1.60508">
        <ele>165.4878523144</ele>
        <time>2021-10-12T21:54:35.067Z</time>
      </trkpt>
      <trkpt lat="43.73708" lon="1.60537">
        <ele>163.69307659172</ele>
        <time>2021-10-12T21:54:39.828Z</time>
      </trkpt>
      <trkpt lat="43.73712" lon="1.60548">
        <ele>161.99547451026</ele>
        <time>2021-10-12T21:54:44.590Z</time>
      </trkpt>
      <trkpt lat="43.73724" lon="1.60562">
        <ele>160.33098057475</ele>
        <time>2021-10-12T21:54:49.355Z</time>
      </trkpt>
      <trkpt lat="43.73741" lon="1.60577">
        <ele>158.71866641296</ele>
        <time>2021-10-12T21:54:54.123Z</time>
      </trkpt>
      <trkpt lat="43.73747" lon="1.60591">
        <ele>157.12907977187</ele>
        <time>2021-10-12T21:54:58.893Z</time>
      </trkpt>
      <trkpt lat="43.7375" lon="1.60609">
        <ele>155.56447948384</ele>
        <time>2021-10-12T21:55:03.665Z</time>
      </trkpt>
      <trkpt lat="43.73748" lon="1.6062">
        <ele>154.06237350203</ele>
        <time>2021-10-12T21:55:08.438Z</time>
      </trkpt>
      <trkpt lat="43.73741" lon="1.60639">
        <ele>152.59416418188</ele>
        <time>2021-10-12T21:55:13.214Z</time>
      </trkpt>
      <trkpt lat="43.73719" lon="1.6068">
        <ele>151.13028496524</ele>
        <time>2021-10-12T21:55:17.996Z</time>
      </trkpt>
      <trkpt lat="43.73712" lon="1.60697">
        <ele>149.8265997564</ele>
        <time>2021-10-12T21:55:22.780Z</time>
      </trkpt>
      <trkpt lat="43.7371" lon="1.60707">
        <ele>148.62489573127</ele>
        <time>2021-10-12T21:55:27.565Z</time>
      </trkpt>
      <trkpt lat="43.7371" lon="1.60718">
        <ele>147.51401235308</ele>
        <time>2021-10-12T21:55:32.352Z</time>
      </trkpt>
      <trkpt lat="43.73713" lon="1.6073">
        <ele>146.49889131306</ele>
        <time>2021-10-12T21:55:37.140Z</time>
      </trkpt>
      <trkpt lat="43.73717" lon="1.60739">
        <ele>145.58618262418</ele>
        <time>2021-10-12T21:55:41.929Z</time>
      </trkpt>
      <trkpt lat="43.73724" lon="1.60747">
        <ele>144.78222493149</ele>
        <time>2021-10-12T21:55:46.720Z</time>
      </trkpt>
      <trkpt lat="43.73741" lon="1.60764">
        <ele>144.08483470758</ele>
        <time>2021-10-12T21:55:51.514Z</time>
      </trkpt>
      <trkpt lat="43.73748" lon="1.60773">
        <ele>143.49381648838</ele>
        <time>2021-10-12T21:55:56.310Z</time>
      </trkpt>
      <trkpt lat="43.73753" lon="1.60783">
        <ele>143.00489658993</ele>
        <time>2021-10-12T21:56:01.107Z</time>
      </trkpt>
      <trkpt lat="43.73755" lon="1.60796">
        <ele>142.6243575148</ele>
        <time>2021-10-12T21:56:05.906Z</time>
      </trkpt>
      <trkpt lat="43.73758" lon="1.60818">
        <ele>142.35040168411</ele>
        <time>2021-10-12T21:56:10.707Z</time>
      </trkpt>
      <trkpt lat="43.73762" lon="1.60894">
        <ele>142.19567146018</ele>
        <time>2021-10-12T21:56:15.517Z</time>
      </trkpt>
      <trkpt lat="43.73762" lon="1.60951">
        <ele>142.14487557809</ele>
        <time>2021-10-12T21:56:20.334Z</time>
      </trkpt>
      <trkpt lat="43.73753" lon="1.61084">
        <ele>142.08652115532</ele>
        <time>2021-10-12T21:56:25.166Z</time>
      </trkpt>
      <trkpt lat="43.73753" lon="1.61084">
        <ele>142.81604613643</ele>
        <time>2021-10-12T21:56:29.998Z</time>
      </trkpt>
      <trkpt lat="43.73752" lon="1.61106">
        <ele>143.34931757481</ele>
        <time>2021-10-12T21:56:34.833Z</time>
      </trkpt>
      <trkpt lat="43.73739" lon="1.61205">
        <ele>143.96086002446</ele>
        <time>2021-10-12T21:56:39.679Z</time>
      </trkpt>
      <trkpt lat="43.7373" lon="1.61234">
        <ele>144.84514503275</ele>
        <time>2021-10-12T21:56:44.529Z</time>
      </trkpt>
      <trkpt lat="43.73681" lon="1.61327">
        <ele>145.98016439372</ele>
        <time>2021-10-12T21:56:49.392Z</time>
      </trkpt>
      <trkpt lat="43.73663" lon="1.61367">
        <ele>147.2277581627</ele>
        <time>2021-10-12T21:56:54.261Z</time>
      </trkpt>
      <trkpt lat="43.73663" lon="1.61367">
        <ele>148.47796619532</ele>
        <time>2021-10-12T21:56:59.130Z</time>
      </trkpt>
      <trkpt lat="43.73583" lon="1.61517">
        <ele>150.33375598365</ele>
        <time>2021-10-12T21:57:04.020Z</time>
      </trkpt>
      <trkpt lat="43.73534" lon="1.61604">
        <ele>152.08072794925</ele>
        <time>2021-10-12T21:57:08.923Z</time>
      </trkpt>
      <trkpt lat="43.73488" lon="1.61696">
        <ele>153.76051235403</ele>
        <time>2021-10-12T21:57:13.839Z</time>
      </trkpt>
      <trkpt lat="43.73476" lon="1.6173">
        <ele>155.47030959567</ele>
        <time>2021-10-12T21:57:18.760Z</time>
      </trkpt>
      <trkpt lat="43.73436" lon="1.61862">
        <ele>157.2126043836</ele>
        <time>2021-10-12T21:57:23.697Z</time>
      </trkpt>
      <trkpt lat="43.73418" lon="1.61938">
        <ele>158.88649825796</ele>
        <time>2021-10-12T21:57:28.643Z</time>
      </trkpt>
      <trkpt lat="43.73398" lon="1.62082">
        <ele>160.43299184554</ele>
        <time>2021-10-12T21:57:33.606Z</time>
      </trkpt>
      <trkpt lat="43.73385" lon="1.62137">
        <ele>162.10138013347</ele>
        <time>2021-10-12T21:57:38.576Z</time>
      </trkpt>
      <trkpt lat="43.73374" lon="1.62169">
        <ele>163.85523771657</ele>
        <time>2021-10-12T21:57:43.550Z</time>
      </trkpt>
      <trkpt lat="43.73339" lon="1.62251">
        <ele>165.73194692507</ele>
        <time>2021-10-12T21:57:48.535Z</time>
      </trkpt>
      <trkpt lat="43.73334" lon="1.62271">
        <ele>167.53906561961</ele>
        <time>2021-10-12T21:57:53.523Z</time>
      </trkpt>
      <trkpt lat="43.73329" lon="1.62308">
        <ele>169.3532242719</ele>
        <time>2021-10-12T21:57:58.515Z</time>
      </trkpt>
      <trkpt lat="43.73322" lon="1.62377">
        <ele>171.25090194432</ele>
        <time>2021-10-12T21:58:03.515Z</time>
      </trkpt>
      <trkpt lat="43.73318" lon="1.62408">
        <ele>173.00868052992</ele>
        <time>2021-10-12T21:58:08.519Z</time>
      </trkpt>
      <trkpt lat="43.73283" lon="1.62583">
        <ele>174.81327684811</ele>
        <time>2021-10-12T21:58:13.544Z</time>
      </trkpt>
      <trkpt lat="43.73257" lon="1.62702">
        <ele>176.58241400057</ele>
        <time>2021-10-12T21:58:18.583Z</time>
      </trkpt>
      <trkpt lat="43.73239" lon="1.62774">
        <ele>178.2396451508</ele>
        <time>2021-10-12T21:58:23.631Z</time>
      </trkpt>
      <trkpt lat="43.73227" lon="1.62821">
        <ele>179.89134092167</ele>
        <time>2021-10-12T21:58:28.685Z</time>
      </trkpt>
      <trkpt lat="43.73208" lon="1.62877">
        <ele>181.59511168751</ele>
        <time>2021-10-12T21:58:33.746Z</time>
      </trkpt>
      <trkpt lat="43.73195" lon="1.62906">
        <ele>183.16913776676</ele>
        <time>2021-10-12T21:58:38.811Z</time>
      </trkpt>
      <trkpt lat="43.73164" lon="1.62957">
        <ele>184.88089080896</ele>
        <time>2021-10-12T21:58:43.884Z</time>
      </trkpt>
      <trkpt lat="43.73157" lon="1.62974">
        <ele>186.34348196474</ele>
        <time>2021-10-12T21:58:48.959Z</time>
      </trkpt>
      <trkpt lat="43.73149" lon="1.63021">
        <ele>187.79399543954</ele>
        <time>2021-10-12T21:58:54.040Z</time>
      </trkpt>
      <trkpt lat="43.73137" lon="1.63128">
        <ele>189.39535036102</ele>
        <time>2021-10-12T21:58:59.133Z</time>
      </trkpt>
      <trkpt lat="43.73126" lon="1.63197">
        <ele>190.81143614405</ele>
        <time>2021-10-12T21:59:04.234Z</time>
      </trkpt>
      <trkpt lat="43.73118" lon="1.63233">
        <ele>191.99085948199</ele>
        <time>2021-10-12T21:59:09.340Z</time>
      </trkpt>
      <trkpt lat="43.73103" lon="1.63271">
        <ele>193.04906371539</ele>
        <time>2021-10-12T21:59:14.451Z</time>
      </trkpt>
      <trkpt lat="43.73147" lon="1.63336">
        <ele>193.98351753815</ele>
        <time>2021-10-12T21:59:19.572Z</time>
      </trkpt>
      <trkpt lat="43.73178" lon="1.63378">
        <ele>194.81873867249</ele>
        <time>2021-10-12T21:59:24.700Z</time>
      </trkpt>
      <trkpt lat="43.73191" lon="1.63398">
        <ele>195.50658339963</ele>
        <time>2021-10-12T21:59:29.831Z</time>
      </trkpt>
      <trkpt lat="43.73214" lon="1.63445">
        <ele>196.08931686146</ele>
        <time>2021-10-12T21:59:34.969Z</time>
      </trkpt>
      <trkpt lat="43.73227" lon="1.63497">
        <ele>196.48733918236</ele>
        <time>2021-10-12T21:59:40.113Z</time>
      </trkpt>
      <trkpt lat="43.73227" lon="1.63509">
        <ele>196.73143591376</ele>
        <time>2021-10-12T21:59:45.259Z</time>
      </trkpt>
      <trkpt lat="43.73242" lon="1.63524">
        <ele>196.86059047403</ele>
        <time>2021-10-12T21:59:50.408Z</time>
      </trkpt>
      <trkpt lat="43.73289" lon="1.63583">
        <ele>196.74375693167</ele>
        <time>2021-10-12T21:59:55.567Z</time>
      </trkpt>
      <trkpt lat="43.73309" lon="1.63617">
        <ele>196.61422226761</ele>
        <time>2021-10-12T22:00:00.731Z</time>
      </trkpt>
      <trkpt lat="43.73327" lon="1.6366">
        <ele>196.38758097734</ele>
        <time>2021-10-12T22:00:05.901Z</time>
      </trkpt>
      <trkpt lat="43.73331" lon="1.63671">
        <ele>196.19926158472</ele>
        <time>2021-10-12T22:00:11.072Z</time>
      </trkpt>
      <trkpt lat="43.73338" lon="1.63688">
        <ele>195.93976644298</ele>
        <time>2021-10-12T22:00:16.245Z</time>
      </trkpt>
      <trkpt lat="43.73341" lon="1.63698">
        <ele>195.60782734417</ele>
        <time>2021-10-12T22:00:21.420Z</time>
      </trkpt>
      <trkpt lat="43.73345" lon="1.63705">
        <ele>195.21402613248</ele>
        <time>2021-10-12T22:00:26.596Z</time>
      </trkpt>
      <trkpt lat="43.73364" lon="1.63716">
        <ele>194.78079843299</ele>
        <time>2021-10-12T22:00:31.775Z</time>
      </trkpt>
      <trkpt lat="43.73386" lon="1.63721">
        <ele>194.2953132974</ele>
        <time>2021-10-12T22:00:36.957Z</time>
      </trkpt>
      <trkpt lat="43.73395" lon="1.63726">
        <ele>193.74299632382</ele>
        <time>2021-10-12T22:00:42.141Z</time>
      </trkpt>
      <trkpt lat="43.73402" lon="1.63733">
        <ele>193.13811996804</ele>
        <time>2021-10-12T22:00:47.326Z</time>
      </trkpt>
      <trkpt lat="43.73409" lon="1.63746">
        <ele>192.48293210688</ele>
        <time>2021-10-12T22:00:52.513Z</time>
      </trkpt>
      <trkpt lat="43.73417" lon="1.63771">
        <ele>191.77556596283</ele>
        <time>2021-10-12T22:00:57.703Z</time>
      </trkpt>
      <trkpt lat="43.73421" lon="1.63791">
        <ele>191.02950428517</ele>
        <time>2021-10-12T22:01:02.896Z</time>
      </trkpt>
      <trkpt lat="43.73422" lon="1.63813">
        <ele>190.23015362581</ele>
        <time>2021-10-12T22:01:08.091Z</time>
      </trkpt>
      <trkpt lat="43.73421" lon="1.63823">
        <ele>189.40062763395</ele>
        <time>2021-10-12T22:01:13.288Z</time>
      </trkpt>
      <trkpt lat="43.73448" lon="1.63852">
        <ele>188.5346766964</ele>
        <time>2021-10-12T22:01:18.490Z</time>
      </trkpt>
      <trkpt lat="43.73459" lon="1.63865">
        <ele>187.64611174881</ele>
        <time>2021-10-12T22:01:23.694Z</time>
      </trkpt>
      <trkpt lat="43.73502" lon="1.63939">
        <ele>186.53561408553</ele>
        <time>2021-10-12T22:01:28.909Z</time>
      </trkpt>
      <trkpt lat="43.73519" lon="1.63959">
        <ele>185.57314038776</ele>
        <time>2021-10-12T22:01:34.128Z</time>
      </trkpt>
      <trkpt lat="43.73537" lon="1.63978">
        <ele>184.56712406257</ele>
        <time>2021-10-12T22:01:39.351Z</time>
      </trkpt>
      <trkpt lat="43.73613" lon="1.64032">
        <ele>183.41802027842</ele>
        <time>2021-10-12T22:01:44.587Z</time>
      </trkpt>
      <trkpt lat="43.73613" lon="1.64032">
        <ele>182.53366734479</ele>
        <time>2021-10-12T22:01:49.823Z</time>
      </trkpt>
      <trkpt lat="43.73653" lon="1.6406">
        <ele>181.61983141534</ele>
        <time>2021-10-12T22:01:55.066Z</time>
      </trkpt>
      <trkpt lat="43.73692" lon="1.64085">
        <ele>180.72102225008</ele>
        <time>2021-10-12T22:02:00.316Z</time>
      </trkpt>
      <trkpt lat="43.73746" lon="1.64116">
        <ele>179.76374745457</ele>
        <time>2021-10-12T22:02:05.576Z</time>
      </trkpt>
      <trkpt lat="43.73834" lon="1.64168">
        <ele>178.89570550696</ele>
        <time>2021-10-12T22:02:10.851Z</time>
      </trkpt>
      <trkpt lat="43.73857" lon="1.64184">
        <ele>178.05051461125</ele>
        <time>2021-10-12T22:02:16.130Z</time>
      </trkpt>
      <trkpt lat="43.73857" lon="1.64184">
        <ele>177.17581955985</ele>
        <time>2021-10-12T22:02:21.409Z</time>
      </trkpt>
      <trkpt lat="43.7391" lon="1.64224">
        <ele>176.27701843756</ele>
        <time>2021-10-12T22:02:26.698Z</time>
      </trkpt>
      <trkpt lat="43.73954" lon="1.64264">
        <ele>175.35466358749</ele>
        <time>2021-10-12T22:02:31.995Z</time>
      </trkpt>
      <trkpt lat="43.73997" lon="1.64308">
        <ele>174.41155393707</ele>
        <time>2021-10-12T22:02:37.301Z</time>
      </trkpt>
      <trkpt lat="43.74018" lon="1.64336">
        <ele>173.44016893216</ele>
        <time>2021-10-12T22:02:42.611Z</time>
      </trkpt>
      <trkpt lat="43.74077" lon="1.64424">
        <ele>172.46710317172</ele>
        <time>2021-10-12T22:02:47.935Z</time>
      </trkpt>
      <trkpt lat="43.74145" lon="1.64514">
        <ele>171.43914364385</ele>
        <time>2021-10-12T22:02:53.274Z</time>
      </trkpt>
      <trkpt lat="43.7419" lon="1.6457">
        <ele>170.32580191754</ele>
        <time>2021-10-12T22:02:58.623Z</time>
      </trkpt>
      <trkpt lat="43.7419" lon="1.6457">
        <ele>169.10482776147</ele>
        <time>2021-10-12T22:03:03.972Z</time>
      </trkpt>
      <trkpt lat="43.74237" lon="1.64617">
        <ele>167.77761166727</ele>
        <time>2021-10-12T22:03:09.330Z</time>
      </trkpt>
      <trkpt lat="43.74385" lon="1.6478">
        <ele>166.29927205847</ele>
        <time>2021-10-12T22:03:14.719Z</time>
      </trkpt>
      <trkpt lat="43.7444" lon="1.64838">
        <ele>164.78767311841</ele>
        <time>2021-10-12T22:03:20.119Z</time>
      </trkpt>
      <trkpt lat="43.74516" lon="1.64908">
        <ele>162.88466626093</ele>
        <time>2021-10-12T22:03:25.533Z</time>
      </trkpt>
      <trkpt lat="43.7454" lon="1.64941">
        <ele>161.19472787296</ele>
        <time>2021-10-12T22:03:30.953Z</time>
      </trkpt>
      <trkpt lat="43.74554" lon="1.64968">
        <ele>159.48406735353</ele>
        <time>2021-10-12T22:03:36.377Z</time>
      </trkpt>
      <trkpt lat="43.74567" lon="1.65003">
        <ele>157.73302919144</ele>
        <time>2021-10-12T22:03:41.805Z</time>
      </trkpt>
      <trkpt lat="43.74594" lon="1.65107">
        <ele>155.82786069871</ele>
        <time>2021-10-12T22:03:47.246Z</time>
      </trkpt>
      <trkpt lat="43.74611" lon="1.65164">
        <ele>153.8849023904</ele>
        <time>2021-10-12T22:03:52.694Z</time>
      </trkpt>
      <trkpt lat="43.74653" lon="1.6527">
        <ele>151.92782578234</ele>
        <time>2021-10-12T22:03:58.156Z</time>
      </trkpt>
      <trkpt lat="43.74676" lon="1.6532">
        <ele>150.09884853564</ele>
        <time>2021-10-12T22:04:03.625Z</time>
      </trkpt>
      <trkpt lat="43.74712" lon="1.65379">
        <ele>148.15349931574</ele>
        <time>2021-10-12T22:04:09.103Z</time>
      </trkpt>
      <trkpt lat="43.7475" lon="1.65435">
        <ele>146.27080487001</ele>
        <time>2021-10-12T22:04:14.590Z</time>
      </trkpt>
      <trkpt lat="43.74812" lon="1.65513">
        <ele>144.47192018502</ele>
        <time>2021-10-12T22:04:20.090Z</time>
      </trkpt>
      <trkpt lat="43.74934" lon="1.6565">
        <ele>142.39222151968</ele>
        <time>2021-10-12T22:04:25.616Z</time>
      </trkpt>
      <trkpt lat="43.75042" lon="1.65771">
        <ele>140.24586215047</ele>
        <time>2021-10-12T22:04:31.164Z</time>
      </trkpt>
      <trkpt lat="43.75218" lon="1.65941">
        <ele>138.16178514002</ele>
        <time>2021-10-12T22:04:36.746Z</time>
      </trkpt>
      <trkpt lat="43.75239" lon="1.65955">
        <ele>136.46582482884</ele>
        <time>2021-10-12T22:04:42.332Z</time>
      </trkpt>
      <trkpt lat="43.75239" lon="1.65955">
        <ele>134.8861747918</ele>
        <time>2021-10-12T22:04:47.918Z</time>
      </trkpt>
      <trkpt lat="43.75257" lon="1.65961">
        <ele>133.3590350494</ele>
        <time>2021-10-12T22:04:53.507Z</time>
      </trkpt>
      <trkpt lat="43.75268" lon="1.65968">
        <ele>131.91802370082</ele>
        <time>2021-10-12T22:04:59.098Z</time>
      </trkpt>
      <trkpt lat="43.75285" lon="1.65971">
        <ele>130.58829166433</ele>
        <time>2021-10-12T22:05:04.691Z</time>
      </trkpt>
      <trkpt lat="43.7529" lon="1.65976">
        <ele>129.32786774805</ele>
        <time>2021-10-12T22:05:10.286Z</time>
      </trkpt>
      <trkpt lat="43.75297" lon="1.65979">
        <ele>128.15405121281</ele>
        <time>2021-10-12T22:05:15.882Z</time>
      </trkpt>
      <trkpt lat="43.75302" lon="1.65979">
        <ele>127.06387820818</ele>
        <time>2021-10-12T22:05:21.478Z</time>
      </trkpt>
      <trkpt lat="43.75308" lon="1.65977">
        <ele>126.05495186915</ele>
        <time>2021-10-12T22:05:27.076Z</time>
      </trkpt>
      <trkpt lat="43.75314" lon="1.65972">
        <ele>125.12293208616</ele>
        <time>2021-10-12T22:05:32.675Z</time>
      </trkpt>
      <trkpt lat="43.75319" lon="1.65961">
        <ele>124.26939068842</ele>
        <time>2021-10-12T22:05:38.275Z</time>
      </trkpt>
      <trkpt lat="43.75401" lon="1.6599">
        <ele>123.31977900613</ele>
        <time>2021-10-12T22:05:43.889Z</time>
      </trkpt>
      <trkpt lat="43.75444" lon="1.66004">
        <ele>122.43065294303</ele>
        <time>2021-10-12T22:05:49.510Z</time>
      </trkpt>
      <trkpt lat="43.7546" lon="1.66008">
        <ele>121.71565147846</ele>
        <time>2021-10-12T22:05:55.133Z</time>
      </trkpt>
      <trkpt lat="43.75471" lon="1.66009">
        <ele>121.05595719347</ele>
        <time>2021-10-12T22:06:00.758Z</time>
      </trkpt>
      <trkpt lat="43.75488" lon="1.66008">
        <ele>120.44485373935</ele>
        <time>2021-10-12T22:06:06.386Z</time>
      </trkpt>
      <trkpt lat="43.75512" lon="1.66">
        <ele>119.87808945611</ele>
        <time>2021-10-12T22:06:12.018Z</time>
      </trkpt>
      <trkpt lat="43.75533" lon="1.65988">
        <ele>119.37436916422</ele>
        <time>2021-10-12T22:06:17.653Z</time>
      </trkpt>
      <trkpt lat="43.7563" lon="1.6592">
        <ele>118.82445274418</ele>
        <time>2021-10-12T22:06:23.306Z</time>
      </trkpt>
      <trkpt lat="43.75665" lon="1.65902">
        <ele>118.41929431875</ele>
        <time>2021-10-12T22:06:28.965Z</time>
      </trkpt>
      <trkpt lat="43.75666" lon="1.65908">
        <ele>118.06029088131</ele>
        <time>2021-10-12T22:06:34.624Z</time>
      </trkpt>
      <trkpt lat="43.75676" lon="1.65914">
        <ele>117.72966603031</ele>
        <time>2021-10-12T22:06:40.285Z</time>
      </trkpt>
      <trkpt lat="43.7569" lon="1.65912">
        <ele>117.43794279205</ele>
        <time>2021-10-12T22:06:45.948Z</time>
      </trkpt>
      <trkpt lat="43.75767" lon="1.65895">
        <ele>117.17764088149</ele>
        <time>2021-10-12T22:06:51.624Z</time>
      </trkpt>
      <trkpt lat="43.75776" lon="1.65888">
        <ele>116.93903306848</ele>
        <time>2021-10-12T22:06:57.302Z</time>
      </trkpt>
      <trkpt lat="43.75779" lon="1.65869">
        <ele>116.71367320229</ele>
        <time>2021-10-12T22:07:02.982Z</time>
      </trkpt>
      <trkpt lat="43.76136" lon="1.65787">
        <ele>116.35987744506</ele>
        <time>2021-10-12T22:07:08.720Z</time>
      </trkpt>
      <trkpt lat="43.76278" lon="1.65752">
        <ele>116.16536093295</ele>
        <time>2021-10-12T22:07:14.481Z</time>
      </trkpt>
      <trkpt lat="43.76334" lon="1.65743">
        <ele>116.03454448613</ele>
        <time>2021-10-12T22:07:20.251Z</time>
      </trkpt>
      <trkpt lat="43.76336" lon="1.65752">
        <ele>115.89213982286</ele>
        <time>2021-10-12T22:07:26.022Z</time>
      </trkpt>
      <trkpt lat="43.76331" lon="1.65753">
        <ele>115.7488261969</ele>
        <time>2021-10-12T22:07:31.794Z</time>
      </trkpt>
      <trkpt lat="43.76335" lon="1.65763">
        <ele>115.62309083231</ele>
        <time>2021-10-12T22:07:37.567Z</time>
      </trkpt>
      <trkpt lat="43.76346" lon="1.6577">
        <ele>115.50307375998</ele>
        <time>2021-10-12T22:07:43.342Z</time>
      </trkpt>
      <trkpt lat="43.76357" lon="1.65771">
        <ele>115.37359064928</ele>
        <time>2021-10-12T22:07:49.119Z</time>
      </trkpt>
      <trkpt lat="43.76362" lon="1.65768">
        <ele>115.22779672192</ele>
        <time>2021-10-12T22:07:54.897Z</time>
      </trkpt>
      <trkpt lat="43.76366" lon="1.65777">
        <ele>115.08803377352</ele>
        <time>2021-10-12T22:08:00.676Z</time>
      </trkpt>
      <trkpt lat="43.76377" lon="1.65787">
        <ele>114.93221521304</ele>
        <time>2021-10-12T22:08:06.457Z</time>
      </trkpt>
      <trkpt lat="43.76459" lon="1.6583">
        <ele>114.68771183876</ele>
        <time>2021-10-12T22:08:12.252Z</time>
      </trkpt>
      <trkpt lat="43.76489" lon="1.65855">
        <ele>114.53451760103</ele>
        <time>2021-10-12T22:08:18.052Z</time>
      </trkpt>
      <trkpt lat="43.76522" lon="1.65888">
        <ele>114.37553909013</ele>
        <time>2021-10-12T22:08:23.859Z</time>
      </trkpt>
      <trkpt lat="43.76545" lon="1.65918">
        <ele>114.21042004741</ele>
        <time>2021-10-12T22:08:29.671Z</time>
      </trkpt>
      <trkpt lat="43.76567" lon="1.65954">
        <ele>114.03898663112</ele>
        <time>2021-10-12T22:08:35.489Z</time>
      </trkpt>
      <trkpt lat="43.766" lon="1.66018">
        <ele>113.84071933517</ele>
        <time>2021-10-12T22:08:41.316Z</time>
      </trkpt>
      <trkpt lat="43.76624" lon="1.66075">
        <ele>113.62430141635</ele>
        <time>2021-10-12T22:08:47.150Z</time>
      </trkpt>
      <trkpt lat="43.76646" lon="1.66142">
        <ele>113.43604948374</ele>
        <time>2021-10-12T22:08:52.993Z</time>
      </trkpt>
      <trkpt lat="43.76662" lon="1.6621">
        <ele>113.20674693442</ele>
        <time>2021-10-12T22:08:58.844Z</time>
      </trkpt>
      <trkpt lat="43.76673" lon="1.66259">
        <ele>113.02293352071</ele>
        <time>2021-10-12T22:09:04.701Z</time>
      </trkpt>
      <trkpt lat="43.76671" lon="1.66264">
        <ele>112.82933423914</ele>
        <time>2021-10-12T22:09:10.559Z</time>
      </trkpt>
      <trkpt lat="43.76674" lon="1.66267">
        <ele>112.62398788199</ele>
        <time>2021-10-12T22:09:16.417Z</time>
      </trkpt>
      <trkpt lat="43.76712" lon="1.6647">
        <ele>112.42595421509</ele>
        <time>2021-10-12T22:09:22.300Z</time>
      </trkpt>
      <trkpt lat="43.76714" lon="1.66478">
        <ele>112.23165598853</ele>
        <time>2021-10-12T22:09:28.184Z</time>
      </trkpt>
      <trkpt lat="43.76716" lon="1.66488">
        <ele>112.039224931</ele>
        <time>2021-10-12T22:09:34.069Z</time>
      </trkpt>
      <trkpt lat="43.76742" lon="1.66611">
        <ele>111.83060605119</ele>
        <time>2021-10-12T22:09:39.969Z</time>
      </trkpt>
      <trkpt lat="43.76793" lon="1.66751">
        <ele>111.54858554506</ele>
        <time>2021-10-12T22:09:45.887Z</time>
      </trkpt>
      <trkpt lat="43.76867" lon="1.66932">
        <ele>111.23504988984</ele>
        <time>2021-10-12T22:09:51.829Z</time>
      </trkpt>
      <trkpt lat="43.76867" lon="1.66932">
        <ele>111.07172429548</ele>
        <time>2021-10-12T22:09:57.771Z</time>
      </trkpt>
      <trkpt lat="43.76972" lon="1.67213">
        <ele>110.97661016676</ele>
        <time>2021-10-12T22:10:03.750Z</time>
      </trkpt>
      <trkpt lat="43.77039" lon="1.67383">
        <ele>110.92400983144</ele>
        <time>2021-10-12T22:10:09.751Z</time>
      </trkpt>
      <trkpt lat="43.77079" lon="1.67482">
        <ele>110.79374574126</ele>
        <time>2021-10-12T22:10:15.765Z</time>
      </trkpt>
      <trkpt lat="43.77089" lon="1.6751">
        <ele>110.68269200133</ele>
        <time>2021-10-12T22:10:21.783Z</time>
      </trkpt>
      <trkpt lat="43.77107" lon="1.67554">
        <ele>110.58575690393</ele>
        <time>2021-10-12T22:10:27.807Z</time>
      </trkpt>
      <trkpt lat="43.77112" lon="1.67568">
        <ele>110.51683893393</ele>
        <time>2021-10-12T22:10:33.833Z</time>
      </trkpt>
      <trkpt lat="43.77124" lon="1.67598">
        <ele>110.4499300405</ele>
        <time>2021-10-12T22:10:39.863Z</time>
      </trkpt>
      <trkpt lat="43.77118" lon="1.67608">
        <ele>110.40095855621</ele>
        <time>2021-10-12T22:10:45.894Z</time>
      </trkpt>
      <trkpt lat="43.77117" lon="1.67616">
        <ele>110.3730099981</ele>
        <time>2021-10-12T22:10:51.926Z</time>
      </trkpt>
      <trkpt lat="43.77122" lon="1.67624">
        <ele>110.36472407842</ele>
        <time>2021-10-12T22:10:57.959Z</time>
      </trkpt>
      <trkpt lat="43.77125" lon="1.67627">
        <ele>110.37594222291</ele>
        <time>2021-10-12T22:11:03.993Z</time>
      </trkpt>
      <trkpt lat="43.7713" lon="1.67627">
        <ele>110.40698574887</ele>
        <time>2021-10-12T22:11:10.028Z</time>
      </trkpt>
      <trkpt lat="43.77134" lon="1.67626">
        <ele>110.45387787084</ele>
        <time>2021-10-12T22:11:16.063Z</time>
      </trkpt>
      <trkpt lat="43.77146" lon="1.67658">
        <ele>110.50645690577</ele>
        <time>2021-10-12T22:11:22.102Z</time>
      </trkpt>
      <trkpt lat="43.77146" lon="1.67658">
        <ele>110.57951904625</ele>
        <time>2021-10-12T22:11:28.141Z</time>
      </trkpt>
      <trkpt lat="43.77173" lon="1.67727">
        <ele>110.73109348564</ele>
        <time>2021-10-12T22:11:34.189Z</time>
      </trkpt>
      <trkpt lat="43.77193" lon="1.67776">
        <ele>110.83398946405</ele>
        <time>2021-10-12T22:11:40.244Z</time>
      </trkpt>
      <trkpt lat="43.77193" lon="1.67776">
        <ele>110.94283248883</ele>
        <time>2021-10-12T22:11:46.299Z</time>
      </trkpt>
      <trkpt lat="43.77212" lon="1.67827">
        <ele>111.0378519251</ele>
        <time>2021-10-12T22:11:52.361Z</time>
      </trkpt>
      <trkpt lat="43.77212" lon="1.67827">
        <ele>111.1653752637</ele>
        <time>2021-10-12T22:11:58.423Z</time>
      </trkpt>
      <trkpt lat="43.77225" lon="1.6786">
        <ele>111.28694085699</ele>
        <time>2021-10-12T22:12:04.489Z</time>
      </trkpt>
      <trkpt lat="43.77229" lon="1.67881">
        <ele>111.4347757821</ele>
        <time>2021-10-12T22:12:10.557Z</time>
      </trkpt>
      <trkpt lat="43.77234" lon="1.67951">
        <ele>111.64764276829</ele>
        <time>2021-10-12T22:12:16.634Z</time>
      </trkpt>
      <trkpt lat="43.77239" lon="1.68008">
        <ele>111.81246744357</ele>
        <time>2021-10-12T22:12:22.717Z</time>
      </trkpt>
      <trkpt lat="43.77243" lon="1.6804">
        <ele>111.98698294568</ele>
        <time>2021-10-12T22:12:28.804Z</time>
      </trkpt>
      <trkpt lat="43.77246" lon="1.6805">
        <ele>112.14961117248</ele>
        <time>2021-10-12T22:12:34.892Z</time>
      </trkpt>
      <trkpt lat="43.77256" lon="1.68072">
        <ele>112.31440711683</ele>
        <time>2021-10-12T22:12:40.983Z</time>
      </trkpt>
      <trkpt lat="43.77274" lon="1.6811">
        <ele>112.44125379846</ele>
        <time>2021-10-12T22:12:47.080Z</time>
      </trkpt>
      <trkpt lat="43.7728" lon="1.68133">
        <ele>112.59115717825</ele>
        <time>2021-10-12T22:12:53.179Z</time>
      </trkpt>
      <trkpt lat="43.77283" lon="1.68155">
        <ele>112.73967779944</ele>
        <time>2021-10-12T22:12:59.281Z</time>
      </trkpt>
      <trkpt lat="43.77281" lon="1.68193">
        <ele>112.89884804779</ele>
        <time>2021-10-12T22:13:05.387Z</time>
      </trkpt>
      <trkpt lat="43.77284" lon="1.68201">
        <ele>113.05911816219</ele>
        <time>2021-10-12T22:13:11.494Z</time>
      </trkpt>
      <trkpt lat="43.77319" lon="1.68224">
        <ele>113.23902874803</ele>
        <time>2021-10-12T22:13:17.608Z</time>
      </trkpt>
      <trkpt lat="43.77311" lon="1.68236">
        <ele>113.38846931588</ele>
        <time>2021-10-12T22:13:23.724Z</time>
      </trkpt>
      <trkpt lat="43.77299" lon="1.68249">
        <ele>113.53064796612</ele>
        <time>2021-10-12T22:13:29.842Z</time>
      </trkpt>
      <trkpt lat="43.77275" lon="1.68281">
        <ele>113.71326842133</ele>
        <time>2021-10-12T22:13:35.965Z</time>
      </trkpt>
      <trkpt lat="43.77281" lon="1.68308">
        <ele>113.88269411288</ele>
        <time>2021-10-12T22:13:42.092Z</time>
      </trkpt>
      <trkpt lat="43.77323" lon="1.6839">
        <ele>113.99050886589</ele>
        <time>2021-10-12T22:13:48.230Z</time>
      </trkpt>
      <trkpt lat="43.77287" lon="1.68431">
        <ele>114.13961509298</ele>
        <time>2021-10-12T22:13:54.376Z</time>
      </trkpt>
      <trkpt lat="43.77244" lon="1.6848">
        <ele>114.32163348083</ele>
        <time>2021-10-12T22:14:00.531Z</time>
      </trkpt>
      <trkpt lat="43.77272" lon="1.68504">
        <ele>114.41858131664</ele>
        <time>2021-10-12T22:14:06.691Z</time>
      </trkpt>
      <trkpt lat="43.77272" lon="1.68504">
        <ele>114.50205999384</ele>
        <time>2021-10-12T22:14:12.851Z</time>
      </trkpt>
      <trkpt lat="43.77332" lon="1.68553">
        <ele>114.53237966322</ele>
        <time>2021-10-12T22:14:19.022Z</time>
      </trkpt>
      <trkpt lat="43.77332" lon="1.68553">
        <ele>114.58606751294</ele>
        <time>2021-10-12T22:14:25.193Z</time>
      </trkpt>
      <trkpt lat="43.77339" lon="1.68559">
        <ele>114.61964138284</ele>
        <time>2021-10-12T22:14:31.366Z</time>
      </trkpt>
      <trkpt lat="43.77374" lon="1.68583">
        <ele>114.64864522784</ele>
        <time>2021-10-12T22:14:37.545Z</time>
      </trkpt>
      <trkpt lat="43.77377" lon="1.68579">
        <ele>114.66265952572</ele>
        <time>2021-10-12T22:14:43.724Z</time>
      </trkpt>
      <trkpt lat="43.77383" lon="1.68577">
        <ele>114.66350583169</ele>
        <time>2021-10-12T22:14:49.905Z</time>
      </trkpt>
      <trkpt lat="43.77391" lon="1.68583">
        <ele>114.64423405194</ele>
        <time>2021-10-12T22:14:56.087Z</time>
      </trkpt>
      <trkpt lat="43.77392" lon="1.68589">
        <ele>114.6015604889</ele>
        <time>2021-10-12T22:15:02.270Z</time>
      </trkpt>
      <trkpt lat="43.77401" lon="1.68586">
        <ele>114.55798729379</ele>
        <time>2021-10-12T22:15:08.454Z</time>
      </trkpt>
      <trkpt lat="43.77411" lon="1.68579">
        <ele>114.50551883816</ele>
        <time>2021-10-12T22:15:14.640Z</time>
      </trkpt>
      <trkpt lat="43.77414" lon="1.68577">
        <ele>114.32754490926</ele>
        <time>2021-10-12T22:15:20.826Z</time>
      </trkpt>
      <trkpt lat="43.77417" lon="1.68566">
        <ele>114.22692341215</ele>
        <time>2021-10-12T22:15:27.014Z</time>
      </trkpt>
      <trkpt lat="43.77427" lon="1.68489">
        <ele>114.07949263412</ele>
        <time>2021-10-12T22:15:33.211Z</time>
      </trkpt>
      <trkpt lat="43.77427" lon="1.68489">
        <ele>113.95122346488</ele>
        <time>2021-10-12T22:15:39.408Z</time>
      </trkpt>
      <trkpt lat="43.77428" lon="1.68478">
        <ele>113.80531482758</ele>
        <time>2021-10-12T22:15:45.606Z</time>
      </trkpt>
      <trkpt lat="43.77438" lon="1.68413">
        <ele>113.5848853655</ele>
        <time>2021-10-12T22:15:51.812Z</time>
      </trkpt>
      <trkpt lat="43.77451" lon="1.68394">
        <ele>113.4207121931</ele>
        <time>2021-10-12T22:15:58.021Z</time>
      </trkpt>
      <trkpt lat="43.7746" lon="1.68394">
        <ele>113.27894110066</ele>
        <time>2021-10-12T22:16:04.231Z</time>
      </trkpt>
      <trkpt lat="43.77464" lon="1.68392">
        <ele>113.14974646938</ele>
        <time>2021-10-12T22:16:10.442Z</time>
      </trkpt>
      <trkpt lat="43.77467" lon="1.68386">
        <ele>113.03140417437</ele>
        <time>2021-10-12T22:16:16.654Z</time>
      </trkpt>
      <trkpt lat="43.77468" lon="1.68378">
        <ele>112.92744069756</ele>
        <time>2021-10-12T22:16:22.867Z</time>
      </trkpt>
      <trkpt lat="43.77483" lon="1.68377">
        <ele>112.8190278384</ele>
        <time>2021-10-12T22:16:29.082Z</time>
      </trkpt>
      <trkpt lat="43.77536" lon="1.684">
        <ele>112.71174006867</ele>
        <time>2021-10-12T22:16:35.306Z</time>
      </trkpt>
      <trkpt lat="43.77536" lon="1.684">
        <ele>112.65484020146</ele>
        <time>2021-10-12T22:16:41.530Z</time>
      </trkpt>
      <trkpt lat="43.77556" lon="1.68406">
        <ele>112.62856220189</ele>
        <time>2021-10-12T22:16:47.757Z</time>
      </trkpt>
      <trkpt lat="43.7757" lon="1.68406">
        <ele>112.61620602038</ele>
        <time>2021-10-12T22:16:53.987Z</time>
      </trkpt>
      <trkpt lat="43.77581" lon="1.68403">
        <ele>112.61345581107</ele>
        <time>2021-10-12T22:17:00.218Z</time>
      </trkpt>
      <trkpt lat="43.77586" lon="1.68402">
        <ele>112.6326036957</ele>
        <time>2021-10-12T22:17:06.450Z</time>
      </trkpt>
      <trkpt lat="43.7759" lon="1.68412">
        <ele>112.67970005422</ele>
        <time>2021-10-12T22:17:12.683Z</time>
      </trkpt>
      <trkpt lat="43.77599" lon="1.68414">
        <ele>112.73445148202</ele>
        <time>2021-10-12T22:17:18.918Z</time>
      </trkpt>
      <trkpt lat="43.77602" lon="1.68413">
        <ele>112.79310873313</ele>
        <time>2021-10-12T22:17:25.153Z</time>
      </trkpt>
      <trkpt lat="43.77609" lon="1.68403">
        <ele>112.83379585837</ele>
        <time>2021-10-12T22:17:31.390Z</time>
      </trkpt>
      <trkpt lat="43.77609" lon="1.68393">
        <ele>112.92731510112</ele>
        <time>2021-10-12T22:17:37.628Z</time>
      </trkpt>
      <trkpt lat="43.77605" lon="1.68386">
        <ele>113.03657191104</ele>
        <time>2021-10-12T22:17:43.867Z</time>
      </trkpt>
      <trkpt lat="43.77608" lon="1.68367">
        <ele>113.14928066553</ele>
        <time>2021-10-12T22:17:50.108Z</time>
      </trkpt>
      <trkpt lat="43.77612" lon="1.68318">
        <ele>113.30711583373</ele>
        <time>2021-10-12T22:17:56.355Z</time>
      </trkpt>
      <trkpt lat="43.77616" lon="1.68306">
        <ele>113.3983193154</ele>
        <time>2021-10-12T22:18:02.603Z</time>
      </trkpt>
      <trkpt lat="43.77623" lon="1.68291">
        <ele>113.48347333843</ele>
        <time>2021-10-12T22:18:08.853Z</time>
      </trkpt>
      <trkpt lat="43.77656" lon="1.6824">
        <ele>113.58969908124</ele>
        <time>2021-10-12T22:18:15.111Z</time>
      </trkpt>
      <trkpt lat="43.77668" lon="1.68218">
        <ele>113.65064840925</ele>
        <time>2021-10-12T22:18:21.373Z</time>
      </trkpt>
      <trkpt lat="43.77673" lon="1.68208">
        <ele>113.71458305052</ele>
        <time>2021-10-12T22:18:27.636Z</time>
      </trkpt>
      <trkpt lat="43.77681" lon="1.68171">
        <ele>113.7523890674</ele>
        <time>2021-10-12T22:18:33.904Z</time>
      </trkpt>
      <trkpt lat="43.77682" lon="1.68154">
        <ele>113.78410753394</ele>
        <time>2021-10-12T22:18:40.174Z</time>
      </trkpt>
      <trkpt lat="43.77681" lon="1.68138">
        <ele>113.80851903598</ele>
        <time>2021-10-12T22:18:46.445Z</time>
      </trkpt>
      <trkpt lat="43.77667" lon="1.68041">
        <ele>113.82524323009</ele>
        <time>2021-10-12T22:18:52.728Z</time>
      </trkpt>
      <trkpt lat="43.77666" lon="1.68026">
        <ele>113.82143825393</ele>
        <time>2021-10-12T22:18:59.013Z</time>
      </trkpt>
      <trkpt lat="43.77667" lon="1.68012">
        <ele>113.79602020301</ele>
        <time>2021-10-12T22:19:05.299Z</time>
      </trkpt>
      <trkpt lat="43.77669" lon="1.68008">
        <ele>113.74092030348</ele>
        <time>2021-10-12T22:19:11.586Z</time>
      </trkpt>
      <trkpt lat="43.77673" lon="1.68011">
        <ele>113.65664591821</ele>
        <time>2021-10-12T22:19:17.874Z</time>
      </trkpt>
      <trkpt lat="43.77679" lon="1.68009">
        <ele>113.55017282388</ele>
        <time>2021-10-12T22:19:24.163Z</time>
      </trkpt>
      <trkpt lat="43.77682" lon="1.68005">
        <ele>113.41422577617</ele>
        <time>2021-10-12T22:19:30.452Z</time>
      </trkpt>
      <trkpt lat="43.77683" lon="1.67996">
        <ele>113.25152106418</ele>
        <time>2021-10-12T22:19:36.742Z</time>
      </trkpt>
      <trkpt lat="43.77692" lon="1.67993">
        <ele>113.05886790473</ele>
        <time>2021-10-12T22:19:43.034Z</time>
      </trkpt>
      <trkpt lat="43.777" lon="1.67993">
        <ele>112.83483733212</ele>
        <time>2021-10-12T22:19:49.327Z</time>
      </trkpt>
      <trkpt lat="43.7786" lon="1.68107">
        <ele>112.57648806621</ele>
        <time>2021-10-12T22:19:55.649Z</time>
      </trkpt>
      <trkpt lat="43.7786" lon="1.68107">
        <ele>112.29321994913</ele>
        <time>2021-10-12T22:20:01.971Z</time>
      </trkpt>
      <trkpt lat="43.77889" lon="1.68127">
        <ele>111.96605157875</ele>
        <time>2021-10-12T22:20:08.298Z</time>
      </trkpt>
      <trkpt lat="43.77912" lon="1.68136">
        <ele>111.6186763124</ele>
        <time>2021-10-12T22:20:14.629Z</time>
      </trkpt>
      <trkpt lat="43.77953" lon="1.68138">
        <ele>111.23036309283</ele>
        <time>2021-10-12T22:20:20.966Z</time>
      </trkpt>
      <trkpt lat="43.77953" lon="1.68138">
        <ele>110.86154910372</ele>
        <time>2021-10-12T22:20:27.303Z</time>
      </trkpt>
      <trkpt lat="43.77996" lon="1.68138">
        <ele>110.36990123523</ele>
        <time>2021-10-12T22:20:33.647Z</time>
      </trkpt>
      <trkpt lat="43.78251" lon="1.67967">
        <ele>110.13979924878</ele>
        <time>2021-10-12T22:20:40.037Z</time>
      </trkpt>
      <trkpt lat="43.78315" lon="1.67929">
        <ele>109.69071224405</ele>
        <time>2021-10-12T22:20:46.438Z</time>
      </trkpt>
      <trkpt lat="43.78321" lon="1.67916">
        <ele>109.29499887154</ele>
        <time>2021-10-12T22:20:52.841Z</time>
      </trkpt>
      <trkpt lat="43.7833" lon="1.67918">
        <ele>108.90473260427</ele>
        <time>2021-10-12T22:20:59.245Z</time>
      </trkpt>
      <trkpt lat="43.78426" lon="1.67883">
        <ele>108.05014934672</ele>
        <time>2021-10-12T22:21:05.665Z</time>
      </trkpt>
      <trkpt lat="43.78426" lon="1.67883">
        <ele>107.70386178705</ele>
        <time>2021-10-12T22:21:12.085Z</time>
      </trkpt>
      <trkpt lat="43.78499" lon="1.67859">
        <ele>107.28058106448</ele>
        <time>2021-10-12T22:21:18.517Z</time>
      </trkpt>
      <trkpt lat="43.78535" lon="1.6785">
        <ele>107.04644111694</ele>
        <time>2021-10-12T22:21:24.955Z</time>
      </trkpt>
      <trkpt lat="43.78535" lon="1.6785">
        <ele>106.80633038159</ele>
        <time>2021-10-12T22:21:31.393Z</time>
      </trkpt>
      <trkpt lat="43.78564" lon="1.67844">
        <ele>106.73642747227</ele>
        <time>2021-10-12T22:21:37.835Z</time>
      </trkpt>
      <trkpt lat="43.78586" lon="1.67843">
        <ele>106.67604519416</ele>
        <time>2021-10-12T22:21:44.281Z</time>
      </trkpt>
      <trkpt lat="43.786" lon="1.67847">
        <ele>106.61344699605</ele>
        <time>2021-10-12T22:21:50.729Z</time>
      </trkpt>
      <trkpt lat="43.78604" lon="1.67827">
        <ele>106.54179629933</ele>
        <time>2021-10-12T22:21:57.180Z</time>
      </trkpt>
      <trkpt lat="43.78596" lon="1.67741">
        <ele>106.4954378699</ele>
        <time>2021-10-12T22:22:03.641Z</time>
      </trkpt>
      <trkpt lat="43.78595" lon="1.67672">
        <ele>106.56352340533</ele>
        <time>2021-10-12T22:22:10.110Z</time>
      </trkpt>
      <trkpt lat="43.78604" lon="1.6754">
        <ele>106.6002142099</ele>
        <time>2021-10-12T22:22:16.594Z</time>
      </trkpt>
      <trkpt lat="43.78603" lon="1.67455">
        <ele>106.59022711832</ele>
        <time>2021-10-12T22:22:23.088Z</time>
      </trkpt>
      <trkpt lat="43.78609" lon="1.67408">
        <ele>106.65777668321</ele>
        <time>2021-10-12T22:22:29.587Z</time>
      </trkpt>
      <trkpt lat="43.78621" lon="1.67369">
        <ele>106.7380052827</ele>
        <time>2021-10-12T22:22:36.092Z</time>
      </trkpt>
      <trkpt lat="43.78665" lon="1.67313">
        <ele>106.71078350824</ele>
        <time>2021-10-12T22:22:42.606Z</time>
      </trkpt>
      <trkpt lat="43.78671" lon="1.67304">
        <ele>106.82677044256</ele>
        <time>2021-10-12T22:22:49.121Z</time>
      </trkpt>
      <trkpt lat="43.78672" lon="1.67294">
        <ele>106.97715144144</ele>
        <time>2021-10-12T22:22:55.638Z</time>
      </trkpt>
      <trkpt lat="43.78672" lon="1.67286">
        <ele>107.15917131355</ele>
        <time>2021-10-12T22:23:02.156Z</time>
      </trkpt>
      <trkpt lat="43.78665" lon="1.67271">
        <ele>107.37597204988</ele>
        <time>2021-10-12T22:23:08.676Z</time>
      </trkpt>
      <trkpt lat="43.78653" lon="1.67252">
        <ele>107.62890630134</ele>
        <time>2021-10-12T22:23:15.199Z</time>
      </trkpt>
      <trkpt lat="43.78648" lon="1.67237">
        <ele>107.89344635917</ele>
        <time>2021-10-12T22:23:21.723Z</time>
      </trkpt>
      <trkpt lat="43.78648" lon="1.67234">
        <ele>108.18265851395</ele>
        <time>2021-10-12T22:23:28.248Z</time>
      </trkpt>
      <trkpt lat="43.78648" lon="1.67234">
        <ele>108.49507728135</ele>
        <time>2021-10-12T22:23:34.773Z</time>
      </trkpt>
      <trkpt lat="43.78649" lon="1.67223">
        <ele>108.82621787769</ele>
        <time>2021-10-12T22:23:41.299Z</time>
      </trkpt>
      <trkpt lat="43.78662" lon="1.67191">
        <ele>109.19003145217</ele>
        <time>2021-10-12T22:23:47.829Z</time>
      </trkpt>
      <trkpt lat="43.78669" lon="1.67175">
        <ele>109.58670865055</ele>
        <time>2021-10-12T22:23:54.361Z</time>
      </trkpt>
      <trkpt lat="43.78679" lon="1.67135">
        <ele>109.99377491097</ele>
        <time>2021-10-12T22:24:00.898Z</time>
      </trkpt>
      <trkpt lat="43.78686" lon="1.67101">
        <ele>110.35548241807</ele>
        <time>2021-10-12T22:24:07.440Z</time>
      </trkpt>
      <trkpt lat="43.78689" lon="1.67061">
        <ele>110.74072808668</ele>
        <time>2021-10-12T22:24:13.986Z</time>
      </trkpt>
      <trkpt lat="43.7869" lon="1.67027">
        <ele>111.17890663242</ele>
        <time>2021-10-12T22:24:20.536Z</time>
      </trkpt>
      <trkpt lat="43.78685" lon="1.66969">
        <ele>111.63319938857</ele>
        <time>2021-10-12T22:24:27.093Z</time>
      </trkpt>
      <trkpt lat="43.78686" lon="1.66959">
        <ele>112.02635247562</ele>
        <time>2021-10-12T22:24:33.651Z</time>
      </trkpt>
      <trkpt lat="43.78698" lon="1.66859">
        <ele>112.57173736267</ele>
        <time>2021-10-12T22:24:40.221Z</time>
      </trkpt>
      <trkpt lat="43.78701" lon="1.66837">
        <ele>112.910408087</ele>
        <time>2021-10-12T22:24:46.793Z</time>
      </trkpt>
      <trkpt lat="43.78703" lon="1.66825">
        <ele>113.20076360511</ele>
        <time>2021-10-12T22:24:53.367Z</time>
      </trkpt>
      <trkpt lat="43.78703" lon="1.66799">
        <ele>113.47764844567</ele>
        <time>2021-10-12T22:24:59.944Z</time>
      </trkpt>
      <trkpt lat="43.78698" lon="1.66762">
        <ele>113.72554522215</ele>
        <time>2021-10-12T22:25:06.525Z</time>
      </trkpt>
      <trkpt lat="43.78673" lon="1.66648">
        <ele>113.91012027602</ele>
        <time>2021-10-12T22:25:13.120Z</time>
      </trkpt>
      <trkpt lat="43.78669" lon="1.66624">
        <ele>114.07646906336</ele>
        <time>2021-10-12T22:25:19.718Z</time>
      </trkpt>
      <trkpt lat="43.78659" lon="1.66608">
        <ele>114.16646363978</ele>
        <time>2021-10-12T22:25:26.318Z</time>
      </trkpt>
      <trkpt lat="43.78648" lon="1.66598">
        <ele>114.20939112247</ele>
        <time>2021-10-12T22:25:32.920Z</time>
      </trkpt>
      <trkpt lat="43.78608" lon="1.6659">
        <ele>114.12041507106</ele>
        <time>2021-10-12T22:25:39.529Z</time>
      </trkpt>
      <trkpt lat="43.7859" lon="1.66574">
        <ele>114.0411011242</ele>
        <time>2021-10-12T22:25:46.141Z</time>
      </trkpt>
      <trkpt lat="43.78576" lon="1.66547">
        <ele>113.95647777848</ele>
        <time>2021-10-12T22:25:52.757Z</time>
      </trkpt>
      <trkpt lat="43.78533" lon="1.66442">
        <ele>113.84656238932</ele>
        <time>2021-10-12T22:25:59.387Z</time>
      </trkpt>
      <trkpt lat="43.7847" lon="1.66308">
        <ele>113.57299874353</ele>
        <time>2021-10-12T22:26:06.036Z</time>
      </trkpt>
      <trkpt lat="43.78436" lon="1.6625">
        <ele>113.42113275838</ele>
        <time>2021-10-12T22:26:12.693Z</time>
      </trkpt>
      <trkpt lat="43.78419" lon="1.66204">
        <ele>113.31324827032</ele>
        <time>2021-10-12T22:26:19.356Z</time>
      </trkpt>
      <trkpt lat="43.78418" lon="1.66198">
        <ele>113.16009330543</ele>
        <time>2021-10-12T22:26:26.020Z</time>
      </trkpt>
      <trkpt lat="43.78407" lon="1.66109">
        <ele>113.09874701583</ele>
        <time>2021-10-12T22:26:32.694Z</time>
      </trkpt>
      <trkpt lat="43.78394" lon="1.66053">
        <ele>112.91823485415</ele>
        <time>2021-10-12T22:26:39.375Z</time>
      </trkpt>
      <trkpt lat="43.78365" lon="1.65984">
        <ele>112.71387507952</ele>
        <time>2021-10-12T22:26:46.065Z</time>
      </trkpt>
      <trkpt lat="43.78343" lon="1.65939">
        <ele>112.47771843318</ele>
        <time>2021-10-12T22:26:52.762Z</time>
      </trkpt>
      <trkpt lat="43.78255" lon="1.65789">
        <ele>112.23045980999</ele>
        <time>2021-10-12T22:26:59.481Z</time>
      </trkpt>
      <trkpt lat="43.78243" lon="1.65755">
        <ele>111.92017789012</ele>
        <time>2021-10-12T22:27:06.205Z</time>
      </trkpt>
      <trkpt lat="43.78234" lon="1.65718">
        <ele>111.61134726214</ele>
        <time>2021-10-12T22:27:12.933Z</time>
      </trkpt>
      <trkpt lat="43.78227" lon="1.65673">
        <ele>111.29727217785</ele>
        <time>2021-10-12T22:27:19.666Z</time>
      </trkpt>
      <trkpt lat="43.78222" lon="1.6562">
        <ele>110.96706998255</ele>
        <time>2021-10-12T22:27:26.406Z</time>
      </trkpt>
      <trkpt lat="43.78223" lon="1.65535">
        <ele>110.65060702782</ele>
        <time>2021-10-12T22:27:33.155Z</time>
      </trkpt>
      <trkpt lat="43.7819" lon="1.65406">
        <ele>110.29306290361</ele>
        <time>2021-10-12T22:27:39.920Z</time>
      </trkpt>
      <trkpt lat="43.78186" lon="1.65332">
        <ele>109.91472390748</ele>
        <time>2021-10-12T22:27:46.694Z</time>
      </trkpt>
      <trkpt lat="43.78186" lon="1.6525">
        <ele>109.56142778999</ele>
        <time>2021-10-12T22:27:53.477Z</time>
      </trkpt>
      <trkpt lat="43.78196" lon="1.65106">
        <ele>109.1030963939</ele>
        <time>2021-10-12T22:28:00.277Z</time>
      </trkpt>
      <trkpt lat="43.78196" lon="1.65106">
        <ele>108.66753031659</ele>
        <time>2021-10-12T22:28:07.077Z</time>
      </trkpt>
      <trkpt lat="43.78192" lon="1.65075">
        <ele>108.21381079506</ele>
        <time>2021-10-12T22:28:13.881Z</time>
      </trkpt>
      <trkpt lat="43.78186" lon="1.65044">
        <ele>107.7567376538</ele>
        <time>2021-10-12T22:28:20.689Z</time>
      </trkpt>
      <trkpt lat="43.78161" lon="1.64957">
        <ele>107.27392186902</ele>
        <time>2021-10-12T22:28:27.507Z</time>
      </trkpt>
      <trkpt lat="43.78158" lon="1.64907">
        <ele>106.71064501311</ele>
        <time>2021-10-12T22:28:34.331Z</time>
      </trkpt>
      <trkpt lat="43.7816" lon="1.64839">
        <ele>106.22111930404</ele>
        <time>2021-10-12T22:28:41.163Z</time>
      </trkpt>
      <trkpt lat="43.78153" lon="1.64786">
        <ele>105.73746831887</ele>
        <time>2021-10-12T22:28:48.001Z</time>
      </trkpt>
      <trkpt lat="43.78042" lon="1.64489">
        <ele>105.2140491977</ele>
        <time>2021-10-12T22:28:54.878Z</time>
      </trkpt>
      <trkpt lat="43.78026" lon="1.64429">
        <ele>104.67570292188</ele>
        <time>2021-10-12T22:29:01.762Z</time>
      </trkpt>
      <trkpt lat="43.78012" lon="1.64189">
        <ele>104.10754301973</ele>
        <time>2021-10-12T22:29:08.674Z</time>
      </trkpt>
      <trkpt lat="43.78009" lon="1.64127">
        <ele>103.60214423513</ele>
        <time>2021-10-12T22:29:15.594Z</time>
      </trkpt>
      <trkpt lat="43.78013" lon="1.64077">
        <ele>103.19037476641</ele>
        <time>2021-10-12T22:29:22.519Z</time>
      </trkpt>
      <trkpt lat="43.78024" lon="1.64025">
        <ele>102.71444212856</ele>
        <time>2021-10-12T22:29:29.451Z</time>
      </trkpt>
      <trkpt lat="43.78035" lon="1.63972">
        <ele>102.28594103959</ele>
        <time>2021-10-12T22:29:36.389Z</time>
      </trkpt>
      <trkpt lat="43.78074" lon="1.63781">
        <ele>101.95672548304</ele>
        <time>2021-10-12T22:29:43.350Z</time>
      </trkpt>
      <trkpt lat="43.78087" lon="1.63748">
        <ele>101.59236528184</ele>
        <time>2021-10-12T22:29:50.315Z</time>
      </trkpt>
      <trkpt lat="43.78179" lon="1.63566">
        <ele>101.4584156819</ele>
        <time>2021-10-12T22:29:57.306Z</time>
      </trkpt>
      <trkpt lat="43.78182" lon="1.6356">
        <ele>101.32282143547</ele>
        <time>2021-10-12T22:30:04.298Z</time>
      </trkpt>
      <trkpt lat="43.78331" lon="1.6328">
        <ele>101.24970899253</ele>
        <time>2021-10-12T22:30:11.330Z</time>
      </trkpt>
      <trkpt lat="43.78476" lon="1.63065">
        <ele>101.31327180697</ele>
        <time>2021-10-12T22:30:18.396Z</time>
      </trkpt>
      <trkpt lat="43.78634" lon="1.62872">
        <ele>101.38504086301</ele>
        <time>2021-10-12T22:30:25.496Z</time>
      </trkpt>
      <trkpt lat="43.78634" lon="1.62872">
        <ele>101.65360764118</ele>
        <time>2021-10-12T22:30:32.596Z</time>
      </trkpt>
      <trkpt lat="43.78698" lon="1.62798">
        <ele>102.07140059425</ele>
        <time>2021-10-12T22:30:39.709Z</time>
      </trkpt>
      <trkpt lat="43.78768" lon="1.6273">
        <ele>102.70359184667</ele>
        <time>2021-10-12T22:30:46.836Z</time>
      </trkpt>
      <trkpt lat="43.78849" lon="1.62677">
        <ele>103.34831404799</ele>
        <time>2021-10-12T22:30:53.977Z</time>
      </trkpt>
      <trkpt lat="43.78877" lon="1.62672">
        <ele>104.10616220836</ele>
        <time>2021-10-12T22:31:01.123Z</time>
      </trkpt>
      <trkpt lat="43.78908" lon="1.62679">
        <ele>105.07310923748</ele>
        <time>2021-10-12T22:31:08.274Z</time>
      </trkpt>
      <trkpt lat="43.78972" lon="1.62695">
        <ele>106.18335776737</ele>
        <time>2021-10-12T22:31:15.436Z</time>
      </trkpt>
      <trkpt lat="43.79007" lon="1.62688">
        <ele>107.42176246064</ele>
        <time>2021-10-12T22:31:22.603Z</time>
      </trkpt>
      <trkpt lat="43.79166" lon="1.62586">
        <ele>108.83129883075</ele>
        <time>2021-10-12T22:31:29.798Z</time>
      </trkpt>
      <trkpt lat="43.79252" lon="1.62583">
        <ele>110.22664557891</ele>
        <time>2021-10-12T22:31:37.007Z</time>
      </trkpt>
      <trkpt lat="43.79324" lon="1.62583">
        <ele>111.90673400939</ele>
        <time>2021-10-12T22:31:44.227Z</time>
      </trkpt>
      <trkpt lat="43.7935" lon="1.62589">
        <ele>113.74078979683</ele>
        <time>2021-10-12T22:31:51.452Z</time>
      </trkpt>
      <trkpt lat="43.79374" lon="1.62596">
        <ele>115.74158932585</ele>
        <time>2021-10-12T22:31:58.681Z</time>
      </trkpt>
      <trkpt lat="43.79431" lon="1.62579">
        <ele>118.04476605846</ele>
        <time>2021-10-12T22:32:05.919Z</time>
      </trkpt>
      <trkpt lat="43.7946" lon="1.62561">
        <ele>120.44279988625</ele>
        <time>2021-10-12T22:32:13.162Z</time>
      </trkpt>
      <trkpt lat="43.79479" lon="1.62543">
        <ele>122.83965978215</ele>
        <time>2021-10-12T22:32:20.409Z</time>
      </trkpt>
      <trkpt lat="43.79545" lon="1.62455">
        <ele>125.28482262456</ele>
        <time>2021-10-12T22:32:27.670Z</time>
      </trkpt>
      <trkpt lat="43.79658" lon="1.62366">
        <ele>127.85826395409</ele>
        <time>2021-10-12T22:32:34.952Z</time>
      </trkpt>
      <trkpt lat="43.7969" lon="1.62352">
        <ele>130.46594834711</ele>
        <time>2021-10-12T22:32:42.240Z</time>
      </trkpt>
      <trkpt lat="43.7976" lon="1.62354">
        <ele>133.36861650104</ele>
        <time>2021-10-12T22:32:49.539Z</time>
      </trkpt>
      <trkpt lat="43.79783" lon="1.62355">
        <ele>135.90648915489</ele>
        <time>2021-10-12T22:32:56.842Z</time>
      </trkpt>
      <trkpt lat="43.79797" lon="1.62359">
        <ele>138.34170923676</ele>
        <time>2021-10-12T22:33:04.147Z</time>
      </trkpt>
      <trkpt lat="43.79823" lon="1.62374">
        <ele>140.80360448534</ele>
        <time>2021-10-12T22:33:11.456Z</time>
      </trkpt>
      <trkpt lat="43.79842" lon="1.62393">
        <ele>143.22793651752</ele>
        <time>2021-10-12T22:33:18.769Z</time>
      </trkpt>
      <trkpt lat="43.79861" lon="1.62401">
        <ele>145.55734708811</ele>
        <time>2021-10-12T22:33:26.085Z</time>
      </trkpt>
      <trkpt lat="43.79881" lon="1.62399">
        <ele>147.80664054097</ele>
        <time>2021-10-12T22:33:33.404Z</time>
      </trkpt>
      <trkpt lat="43.79891" lon="1.62393">
        <ele>149.90928184832</ele>
        <time>2021-10-12T22:33:40.725Z</time>
      </trkpt>
      <trkpt lat="43.79911" lon="1.6237">
        <ele>151.89152117459</ele>
        <time>2021-10-12T22:33:48.050Z</time>
      </trkpt>
      <trkpt lat="43.79919" lon="1.62351">
        <ele>153.80089510693</ele>
        <time>2021-10-12T22:33:55.378Z</time>
      </trkpt>
      <trkpt lat="43.7993" lon="1.62311">
        <ele>155.56812539302</ele>
        <time>2021-10-12T22:34:02.711Z</time>
      </trkpt>
      <trkpt lat="43.79949" lon="1.6228">
        <ele>157.29507710717</ele>
        <time>2021-10-12T22:34:10.048Z</time>
      </trkpt>
      <trkpt lat="43.80037" lon="1.62176">
        <ele>159.13100025494</ele>
        <time>2021-10-12T22:34:17.404Z</time>
      </trkpt>
      <trkpt lat="43.80037" lon="1.62176">
        <ele>160.59402978806</ele>
        <time>2021-10-12T22:34:24.760Z</time>
      </trkpt>
      <trkpt lat="43.80148" lon="1.62045">
        <ele>162.013224714</ele>
        <time>2021-10-12T22:34:32.139Z</time>
      </trkpt>
      <trkpt lat="43.80164" lon="1.62034">
        <ele>163.2731544164</ele>
        <time>2021-10-12T22:34:39.521Z</time>
      </trkpt>
      <trkpt lat="43.80183" lon="1.62029">
        <ele>164.46167152327</ele>
        <time>2021-10-12T22:34:46.906Z</time>
      </trkpt>
      <trkpt lat="43.802" lon="1.6203">
        <ele>165.41972609965</ele>
        <time>2021-10-12T22:34:54.294Z</time>
      </trkpt>
      <trkpt lat="43.80233" lon="1.62044">
        <ele>166.20478787792</ele>
        <time>2021-10-12T22:35:01.688Z</time>
      </trkpt>
      <trkpt lat="43.8025" lon="1.62046">
        <ele>166.80956394089</ele>
        <time>2021-10-12T22:35:09.084Z</time>
      </trkpt>
      <trkpt lat="43.80264" lon="1.62044">
        <ele>167.2270065115</ele>
        <time>2021-10-12T22:35:16.483Z</time>
      </trkpt>
      <trkpt lat="43.80264" lon="1.62044">
        <ele>167.50769864169</ele>
        <time>2021-10-12T22:35:23.882Z</time>
      </trkpt>
      <trkpt lat="43.80307" lon="1.62022">
        <ele>167.63307119692</ele>
        <time>2021-10-12T22:35:31.288Z</time>
      </trkpt>
      <trkpt lat="43.80327" lon="1.62018">
        <ele>167.58328674219</ele>
        <time>2021-10-12T22:35:38.697Z</time>
      </trkpt>
      <trkpt lat="43.80348" lon="1.6203">
        <ele>167.44243997213</ele>
        <time>2021-10-12T22:35:46.110Z</time>
      </trkpt>
      <trkpt lat="43.80363" lon="1.62049">
        <ele>167.1341796895</ele>
        <time>2021-10-12T22:35:53.526Z</time>
      </trkpt>
      <trkpt lat="43.80415" lon="1.62175">
        <ele>166.53829234797</ele>
        <time>2021-10-12T22:36:00.959Z</time>
      </trkpt>
      <trkpt lat="43.80431" lon="1.6218">
        <ele>165.71586439826</ele>
        <time>2021-10-12T22:36:08.394Z</time>
      </trkpt>
      <trkpt lat="43.80443" lon="1.6218">
        <ele>164.80316671132</ele>
        <time>2021-10-12T22:36:15.831Z</time>
      </trkpt>
      <trkpt lat="43.80461" lon="1.62169">
        <ele>163.78004352611</ele>
        <time>2021-10-12T22:36:23.272Z</time>
      </trkpt>
      <trkpt lat="43.80468" lon="1.62147">
        <ele>162.46706583189</ele>
        <time>2021-10-12T22:36:30.715Z</time>
      </trkpt>
      <trkpt lat="43.80467" lon="1.62125">
        <ele>161.11724548442</ele>
        <time>2021-10-12T22:36:38.161Z</time>
      </trkpt>
      <trkpt lat="43.80455" lon="1.62071">
        <ele>159.67678255371</ele>
        <time>2021-10-12T22:36:45.613Z</time>
      </trkpt>
      <trkpt lat="43.80441" lon="1.62022">
        <ele>157.92990692247</ele>
        <time>2021-10-12T22:36:53.071Z</time>
      </trkpt>
      <trkpt lat="43.80415" lon="1.61963">
        <ele>155.96638394106</ele>
        <time>2021-10-12T22:37:00.537Z</time>
      </trkpt>
      <trkpt lat="43.80404" lon="1.61919">
        <ele>154.00166324558</ele>
        <time>2021-10-12T22:37:08.009Z</time>
      </trkpt>
      <trkpt lat="43.8039" lon="1.61886">
        <ele>151.93895550769</ele>
        <time>2021-10-12T22:37:15.485Z</time>
      </trkpt>
      <trkpt lat="43.80368" lon="1.61873">
        <ele>149.76060747498</ele>
        <time>2021-10-12T22:37:22.965Z</time>
      </trkpt>
      <trkpt lat="43.80354" lon="1.61855">
        <ele>147.52818072087</ele>
        <time>2021-10-12T22:37:30.448Z</time>
      </trkpt>
      <trkpt lat="43.80332" lon="1.61816">
        <ele>145.2184446785</ele>
        <time>2021-10-12T22:37:37.937Z</time>
      </trkpt>
      <trkpt lat="43.80291" lon="1.61772">
        <ele>142.63179940578</ele>
        <time>2021-10-12T22:37:45.434Z</time>
      </trkpt>
      <trkpt lat="43.80275" lon="1.61745">
        <ele>140.12954071499</ele>
        <time>2021-10-12T22:37:52.935Z</time>
      </trkpt>
      <trkpt lat="43.8026" lon="1.61708">
        <ele>137.67414954453</ele>
        <time>2021-10-12T22:38:00.441Z</time>
      </trkpt>
      <trkpt lat="43.80249" lon="1.61667">
        <ele>135.29363818586</ele>
        <time>2021-10-12T22:38:07.952Z</time>
      </trkpt>
      <trkpt lat="43.80242" lon="1.61625">
        <ele>132.82265321622</ele>
        <time>2021-10-12T22:38:15.468Z</time>
      </trkpt>
      <trkpt lat="43.80236" lon="1.61575">
        <ele>130.35525366501</ele>
        <time>2021-10-12T22:38:22.990Z</time>
      </trkpt>
      <trkpt lat="43.8023" lon="1.6153">
        <ele>127.9016776087</ele>
        <time>2021-10-12T22:38:30.517Z</time>
      </trkpt>
      <trkpt lat="43.8022" lon="1.61499">
        <ele>125.46469970804</ele>
        <time>2021-10-12T22:38:38.048Z</time>
      </trkpt>
      <trkpt lat="43.80187" lon="1.61414">
        <ele>122.7685885036</ele>
        <time>2021-10-12T22:38:45.590Z</time>
      </trkpt>
      <trkpt lat="43.80181" lon="1.6139">
        <ele>120.54178753253</ele>
        <time>2021-10-12T22:38:53.135Z</time>
      </trkpt>
      <trkpt lat="43.80185" lon="1.61362">
        <ele>118.47886128722</ele>
        <time>2021-10-12T22:39:00.684Z</time>
      </trkpt>
      <trkpt lat="43.80222" lon="1.61218">
        <ele>116.53083481677</ele>
        <time>2021-10-12T22:39:08.250Z</time>
      </trkpt>
      <trkpt lat="43.80222" lon="1.61218">
        <ele>114.79523048663</ele>
        <time>2021-10-12T22:39:15.816Z</time>
      </trkpt>
      <trkpt lat="43.80216" lon="1.61184">
        <ele>113.1264966724</ele>
        <time>2021-10-12T22:39:23.387Z</time>
      </trkpt>
      <trkpt lat="43.80218" lon="1.61151">
        <ele>111.65635937861</ele>
        <time>2021-10-12T22:39:30.961Z</time>
      </trkpt>
      <trkpt lat="43.80245" lon="1.61026">
        <ele>110.22991087209</ele>
        <time>2021-10-12T22:39:38.550Z</time>
      </trkpt>
      <trkpt lat="43.80248" lon="1.61002">
        <ele>108.92274042022</ele>
        <time>2021-10-12T22:39:46.142Z</time>
      </trkpt>
      <trkpt lat="43.80237" lon="1.60995">
        <ele>107.78965835333</ele>
        <time>2021-10-12T22:39:53.736Z</time>
      </trkpt>
      <trkpt lat="43.80113" lon="1.60914">
        <ele>107.07385001905</ele>
        <time>2021-10-12T22:40:01.352Z</time>
      </trkpt>
      <trkpt lat="43.80113" lon="1.60913">
        <ele>106.35461016729</ele>
        <time>2021-10-12T22:40:08.968Z</time>
      </trkpt>
      <trkpt lat="43.80108" lon="1.60911">
        <ele>105.7966603218</ele>
        <time>2021-10-12T22:40:16.585Z</time>
      </trkpt>
      <trkpt lat="43.80093" lon="1.609">
        <ele>105.38355457427</ele>
        <time>2021-10-12T22:40:24.205Z</time>
      </trkpt>
      <trkpt lat="43.80085" lon="1.60892">
        <ele>105.04706752829</ele>
        <time>2021-10-12T22:40:31.826Z</time>
      </trkpt>
      <trkpt lat="43.80022" lon="1.60832">
        <ele>104.85437661884</ele>
        <time>2021-10-12T22:40:39.460Z</time>
      </trkpt>
      <trkpt lat="43.79981" lon="1.60804">
        <ele>104.69903690168</ele>
        <time>2021-10-12T22:40:47.101Z</time>
      </trkpt>
      <trkpt lat="43.80012" lon="1.60688">
        <ele>104.72326255814</ele>
        <time>2021-10-12T22:40:54.756Z</time>
      </trkpt>
      <trkpt lat="43.80012" lon="1.60688">
        <ele>104.74172074266</ele>
        <time>2021-10-12T22:41:02.411Z</time>
      </trkpt>
      <trkpt lat="43.80014" lon="1.60672">
        <ele>104.83541133482</ele>
        <time>2021-10-12T22:41:10.068Z</time>
      </trkpt>
      <trkpt lat="43.80014" lon="1.60663">
        <ele>104.97297276984</ele>
        <time>2021-10-12T22:41:17.726Z</time>
      </trkpt>
      <trkpt lat="43.80014" lon="1.60655">
        <ele>105.15185091428</ele>
        <time>2021-10-12T22:41:25.385Z</time>
      </trkpt>
      <trkpt lat="43.80016" lon="1.60633">
        <ele>105.36865099751</ele>
        <time>2021-10-12T22:41:33.047Z</time>
      </trkpt>
      <trkpt lat="43.80033" lon="1.60519">
        <ele>105.58163997222</ele>
        <time>2021-10-12T22:41:40.722Z</time>
      </trkpt>
      <trkpt lat="43.80033" lon="1.60519">
        <ele>105.82468448062</ele>
        <time>2021-10-12T22:41:48.397Z</time>
      </trkpt>
      <trkpt lat="43.80034" lon="1.60513">
        <ele>106.0741002858</ele>
        <time>2021-10-12T22:41:56.073Z</time>
      </trkpt>
      <trkpt lat="43.80059" lon="1.60398">
        <ele>106.23107004875</ele>
        <time>2021-10-12T22:42:03.763Z</time>
      </trkpt>
      <trkpt lat="43.80074" lon="1.60333">
        <ele>106.46939250904</ele>
        <time>2021-10-12T22:42:11.461Z</time>
      </trkpt>
      <trkpt lat="43.80088" lon="1.60257">
        <ele>106.71779192527</ele>
        <time>2021-10-12T22:42:19.168Z</time>
      </trkpt>
      <trkpt lat="43.80095" lon="1.6019">
        <ele>106.92518176324</ele>
        <time>2021-10-12T22:42:26.883Z</time>
      </trkpt>
      <trkpt lat="43.80098" lon="1.60156">
        <ele>107.11496567855</ele>
        <time>2021-10-12T22:42:34.602Z</time>
      </trkpt>
      <trkpt lat="43.801" lon="1.60092">
        <ele>107.33910791736</ele>
        <time>2021-10-12T22:42:42.328Z</time>
      </trkpt>
      <trkpt lat="43.80102" lon="1.6">
        <ele>107.56832961067</ele>
        <time>2021-10-12T22:42:50.065Z</time>
      </trkpt>
      <trkpt lat="43.80103" lon="1.59971">
        <ele>107.75704425211</ele>
        <time>2021-10-12T22:42:57.805Z</time>
      </trkpt>
      <trkpt lat="43.80111" lon="1.59901">
        <ele>108.02306729723</ele>
        <time>2021-10-12T22:43:05.553Z</time>
      </trkpt>
      <trkpt lat="43.80134" lon="1.59778">
        <ele>108.02586565821</ele>
        <time>2021-10-12T22:43:13.316Z</time>
      </trkpt>
      <trkpt lat="43.80144" lon="1.59685">
        <ele>107.92914758487</ele>
        <time>2021-10-12T22:43:21.090Z</time>
      </trkpt>
      <trkpt lat="43.80142" lon="1.59633">
        <ele>107.87519432056</ele>
        <time>2021-10-12T22:43:28.870Z</time>
      </trkpt>
      <trkpt lat="43.8014" lon="1.59603">
        <ele>107.81585435158</ele>
        <time>2021-10-12T22:43:36.653Z</time>
      </trkpt>
      <trkpt lat="43.80133" lon="1.5956">
        <ele>107.799897954</ele>
        <time>2021-10-12T22:43:44.441Z</time>
      </trkpt>
      <trkpt lat="43.80117" lon="1.595">
        <ele>107.70249724785</ele>
        <time>2021-10-12T22:43:52.237Z</time>
      </trkpt>
      <trkpt lat="43.80106" lon="1.59457">
        <ele>107.61999315296</ele>
        <time>2021-10-12T22:44:00.038Z</time>
      </trkpt>
      <trkpt lat="43.80106" lon="1.59457">
        <ele>107.53951586485</ele>
        <time>2021-10-12T22:44:07.839Z</time>
      </trkpt>
      <trkpt lat="43.80093" lon="1.59394">
        <ele>107.4554678339</ele>
        <time>2021-10-12T22:44:15.648Z</time>
      </trkpt>
      <trkpt lat="43.80087" lon="1.59325">
        <ele>107.36556616966</ele>
        <time>2021-10-12T22:44:23.465Z</time>
      </trkpt>
      <trkpt lat="43.80089" lon="1.59294">
        <ele>107.23044983787</ele>
        <time>2021-10-12T22:44:31.285Z</time>
      </trkpt>
      <trkpt lat="43.80092" lon="1.59275">
        <ele>107.11210045155</ele>
        <time>2021-10-12T22:44:39.108Z</time>
      </trkpt>
      <trkpt lat="43.80098" lon="1.59264">
        <ele>106.98913994195</ele>
        <time>2021-10-12T22:44:46.932Z</time>
      </trkpt>
      <trkpt lat="43.801" lon="1.5925">
        <ele>106.86319179614</ele>
        <time>2021-10-12T22:44:54.758Z</time>
      </trkpt>
      <trkpt lat="43.80098" lon="1.59236">
        <ele>106.73573243819</ele>
        <time>2021-10-12T22:45:02.586Z</time>
      </trkpt>
      <trkpt lat="43.80095" lon="1.5923">
        <ele>106.60809772396</ele>
        <time>2021-10-12T22:45:10.414Z</time>
      </trkpt>
      <trkpt lat="43.80086" lon="1.59221">
        <ele>106.4814912803</ele>
        <time>2021-10-12T22:45:18.244Z</time>
      </trkpt>
      <trkpt lat="43.80081" lon="1.59219">
        <ele>106.35699435166</ele>
        <time>2021-10-12T22:45:26.075Z</time>
      </trkpt>
      <trkpt lat="43.80074" lon="1.59218">
        <ele>106.23557682506</ele>
        <time>2021-10-12T22:45:33.907Z</time>
      </trkpt>
      <trkpt lat="43.80069" lon="1.59213">
        <ele>106.11810911284</ele>
        <time>2021-10-12T22:45:41.740Z</time>
      </trkpt>
      <trkpt lat="43.80063" lon="1.59201">
        <ele>106.00537458405</ele>
        <time>2021-10-12T22:45:49.575Z</time>
      </trkpt>
      <trkpt lat="43.80059" lon="1.59188">
        <ele>105.89868152579</ele>
        <time>2021-10-12T22:45:57.411Z</time>
      </trkpt>
      <trkpt lat="43.80055" lon="1.59064">
        <ele>105.81520189615</ele>
        <time>2021-10-12T22:46:05.262Z</time>
      </trkpt>
      <trkpt lat="43.80058" lon="1.58978">
        <ele>105.64857457556</ele>
        <time>2021-10-12T22:46:13.123Z</time>
      </trkpt>
      <trkpt lat="43.80063" lon="1.58892">
        <ele>105.5947685809</ele>
        <time>2021-10-12T22:46:20.994Z</time>
      </trkpt>
      <trkpt lat="43.80061" lon="1.58824">
        <ele>105.53658735572</ele>
        <time>2021-10-12T22:46:28.873Z</time>
      </trkpt>
      <trkpt lat="43.80056" lon="1.5877">
        <ele>105.40351757871</ele>
        <time>2021-10-12T22:46:36.758Z</time>
      </trkpt>
      <trkpt lat="43.80024" lon="1.58563">
        <ele>105.36412541966</ele>
        <time>2021-10-12T22:46:44.668Z</time>
      </trkpt>
      <trkpt lat="43.80019" lon="1.58522">
        <ele>105.38176078162</ele>
        <time>2021-10-12T22:46:52.582Z</time>
      </trkpt>
      <trkpt lat="43.80022" lon="1.58493">
        <ele>105.39871379459</ele>
        <time>2021-10-12T22:47:00.500Z</time>
      </trkpt>
      <trkpt lat="43.80063" lon="1.58277">
        <ele>105.24477432657</ele>
        <time>2021-10-12T22:47:08.444Z</time>
      </trkpt>
      <trkpt lat="43.80063" lon="1.58277">
        <ele>105.2172610368</ele>
        <time>2021-10-12T22:47:16.388Z</time>
      </trkpt>
      <trkpt lat="43.80076" lon="1.58217">
        <ele>105.22238396887</ele>
        <time>2021-10-12T22:47:24.339Z</time>
      </trkpt>
      <trkpt lat="43.8008" lon="1.58177">
        <ele>105.25434394161</ele>
        <time>2021-10-12T22:47:32.294Z</time>
      </trkpt>
      <trkpt lat="43.80075" lon="1.58134">
        <ele>105.2838434144</ele>
        <time>2021-10-12T22:47:40.254Z</time>
      </trkpt>
      <trkpt lat="43.8007" lon="1.58112">
        <ele>105.30743542847</ele>
        <time>2021-10-12T22:47:48.217Z</time>
      </trkpt>
      <trkpt lat="43.80062" lon="1.58089">
        <ele>105.33463577943</ele>
        <time>2021-10-12T22:47:56.183Z</time>
      </trkpt>
      <trkpt lat="43.80052" lon="1.58066">
        <ele>105.37256206812</ele>
        <time>2021-10-12T22:48:04.152Z</time>
      </trkpt>
      <trkpt lat="43.80042" lon="1.58048">
        <ele>105.40196813843</ele>
        <time>2021-10-12T22:48:12.124Z</time>
      </trkpt>
      <trkpt lat="43.8003" lon="1.58034">
        <ele>105.45279934201</ele>
        <time>2021-10-12T22:48:20.098Z</time>
      </trkpt>
      <trkpt lat="43.80009" lon="1.58012">
        <ele>105.5165876096</ele>
        <time>2021-10-12T22:48:28.077Z</time>
      </trkpt>
      <trkpt lat="43.79983" lon="1.57995">
        <ele>105.60707216008</ele>
        <time>2021-10-12T22:48:36.060Z</time>
      </trkpt>
      <trkpt lat="43.79967" lon="1.57987">
        <ele>105.72415477933</ele>
        <time>2021-10-12T22:48:44.046Z</time>
      </trkpt>
      <trkpt lat="43.79929" lon="1.5798">
        <ele>105.87168697306</ele>
        <time>2021-10-12T22:48:52.038Z</time>
      </trkpt>
      <trkpt lat="43.79701" lon="1.57965">
        <ele>106.13858501513</ele>
        <time>2021-10-12T22:49:00.067Z</time>
      </trkpt>
      <trkpt lat="43.79678" lon="1.5796">
        <ele>106.33912506946</ele>
        <time>2021-10-12T22:49:08.099Z</time>
      </trkpt>
      <trkpt lat="43.79662" lon="1.57954">
        <ele>106.54167508822</ele>
        <time>2021-10-12T22:49:16.134Z</time>
      </trkpt>
      <trkpt lat="43.79609" lon="1.57924">
        <ele>106.68781722693</ele>
        <time>2021-10-12T22:49:24.178Z</time>
      </trkpt>
      <trkpt lat="43.79548" lon="1.57882">
        <ele>106.96618371848</ele>
        <time>2021-10-12T22:49:32.233Z</time>
      </trkpt>
      <trkpt lat="43.79508" lon="1.57858">
        <ele>107.27086563223</ele>
        <time>2021-10-12T22:49:40.295Z</time>
      </trkpt>
      <trkpt lat="43.79508" lon="1.57858">
        <ele>107.61299178753</ele>
        <time>2021-10-12T22:49:48.357Z</time>
      </trkpt>
      <trkpt lat="43.79491" lon="1.57849">
        <ele>107.97524307467</ele>
        <time>2021-10-12T22:49:56.422Z</time>
      </trkpt>
      <trkpt lat="43.79377" lon="1.57799">
        <ele>108.35691171053</ele>
        <time>2021-10-12T22:50:04.506Z</time>
      </trkpt>
      <trkpt lat="43.7934" lon="1.57784">
        <ele>108.82115564876</ele>
        <time>2021-10-12T22:50:12.596Z</time>
      </trkpt>
      <trkpt lat="43.79306" lon="1.57765">
        <ele>109.32486895756</ele>
        <time>2021-10-12T22:50:20.692Z</time>
      </trkpt>
      <trkpt lat="43.79296" lon="1.57759">
        <ele>109.85673345629</ele>
        <time>2021-10-12T22:50:28.790Z</time>
      </trkpt>
      <trkpt lat="43.79296" lon="1.57759">
        <ele>110.41769327931</ele>
        <time>2021-10-12T22:50:36.888Z</time>
      </trkpt>
      <trkpt lat="43.79222" lon="1.57714">
        <ele>110.99251448198</ele>
        <time>2021-10-12T22:50:44.999Z</time>
      </trkpt>
      <trkpt lat="43.79163" lon="1.57675">
        <ele>111.57117232291</ele>
        <time>2021-10-12T22:50:53.120Z</time>
      </trkpt>
      <trkpt lat="43.79121" lon="1.57645">
        <ele>112.18545194038</ele>
        <time>2021-10-12T22:51:01.249Z</time>
      </trkpt>
      <trkpt lat="43.78881" lon="1.57456">
        <ele>113.12755991957</ele>
        <time>2021-10-12T22:51:09.422Z</time>
      </trkpt>
      <trkpt lat="43.78796" lon="1.57385">
        <ele>114.21578493612</ele>
        <time>2021-10-12T22:51:17.611Z</time>
      </trkpt>
      <trkpt lat="43.78796" lon="1.57385">
        <ele>114.85765900143</ele>
        <time>2021-10-12T22:51:25.800Z</time>
      </trkpt>
      <trkpt lat="43.78778" lon="1.57368">
        <ele>115.5839367004</ele>
        <time>2021-10-12T22:51:33.992Z</time>
      </trkpt>
      <trkpt lat="43.78758" lon="1.57346">
        <ele>116.24458812756</ele>
        <time>2021-10-12T22:51:42.189Z</time>
      </trkpt>
      <trkpt lat="43.78737" lon="1.57319">
        <ele>116.8484059055</ele>
        <time>2021-10-12T22:51:50.390Z</time>
      </trkpt>
      <trkpt lat="43.78722" lon="1.57291">
        <ele>117.33863220815</ele>
        <time>2021-10-12T22:51:58.595Z</time>
      </trkpt>
      <trkpt lat="43.78712" lon="1.57264">
        <ele>117.78148944553</ele>
        <time>2021-10-12T22:52:06.804Z</time>
      </trkpt>
      <trkpt lat="43.78705" lon="1.57236">
        <ele>118.20421323942</ele>
        <time>2021-10-12T22:52:15.016Z</time>
      </trkpt>
      <trkpt lat="43.78701" lon="1.57202">
        <ele>118.61987532662</ele>
        <time>2021-10-12T22:52:23.232Z</time>
      </trkpt>
      <trkpt lat="43.787" lon="1.57172">
        <ele>118.99524892021</ele>
        <time>2021-10-12T22:52:31.452Z</time>
      </trkpt>
      <trkpt lat="43.78713" lon="1.56861">
        <ele>119.19784423043</ele>
        <time>2021-10-12T22:52:39.708Z</time>
      </trkpt>
      <trkpt lat="43.78714" lon="1.56799">
        <ele>119.45742260739</ele>
        <time>2021-10-12T22:52:47.971Z</time>
      </trkpt>
      <trkpt lat="43.78709" lon="1.56763">
        <ele>119.70633182344</ele>
        <time>2021-10-12T22:52:56.238Z</time>
      </trkpt>
      <trkpt lat="43.78703" lon="1.56743">
        <ele>119.91822420076</ele>
        <time>2021-10-12T22:53:04.508Z</time>
      </trkpt>
      <trkpt lat="43.78691" lon="1.56719">
        <ele>120.11581970127</ele>
        <time>2021-10-12T22:53:12.781Z</time>
      </trkpt>
      <trkpt lat="43.78646" lon="1.56642">
        <ele>120.34753661489</ele>
        <time>2021-10-12T22:53:21.065Z</time>
      </trkpt>
      <trkpt lat="43.78629" lon="1.56621">
        <ele>120.52146772055</ele>
        <time>2021-10-12T22:53:29.353Z</time>
      </trkpt>
      <trkpt lat="43.78629" lon="1.56621">
        <ele>120.67523439287</ele>
        <time>2021-10-12T22:53:37.641Z</time>
      </trkpt>
      <trkpt lat="43.78462" lon="1.56434">
        <ele>120.97519669331</ele>
        <time>2021-10-12T22:53:45.964Z</time>
      </trkpt>
      <trkpt lat="43.78435" lon="1.564">
        <ele>121.17933789654</ele>
        <time>2021-10-12T22:53:54.292Z</time>
      </trkpt>
      <trkpt lat="43.78331" lon="1.56259">
        <ele>121.43447664415</ele>
        <time>2021-10-12T22:54:02.644Z</time>
      </trkpt>
      <trkpt lat="43.78293" lon="1.56204">
        <ele>121.55900405279</ele>
        <time>2021-10-12T22:54:11.004Z</time>
      </trkpt>
      <trkpt lat="43.78284" lon="1.56188">
        <ele>121.70735589017</ele>
        <time>2021-10-12T22:54:19.367Z</time>
      </trkpt>
      <trkpt lat="43.78275" lon="1.5617">
        <ele>121.87037202587</ele>
        <time>2021-10-12T22:54:27.732Z</time>
      </trkpt>
      <trkpt lat="43.78266" lon="1.56145">
        <ele>122.05577383247</ele>
        <time>2021-10-12T22:54:36.101Z</time>
      </trkpt>
      <trkpt lat="43.78253" lon="1.56083">
        <ele>122.3022685993</ele>
        <time>2021-10-12T22:54:44.477Z</time>
      </trkpt>
      <trkpt lat="43.78231" lon="1.55908">
        <ele>122.4919078461</ele>
        <time>2021-10-12T22:54:52.874Z</time>
      </trkpt>
      <trkpt lat="43.7822" lon="1.55844">
        <ele>122.82191633023</ele>
        <time>2021-10-12T22:55:01.278Z</time>
      </trkpt>
      <trkpt lat="43.782" lon="1.55746">
        <ele>123.31410260484</ele>
        <time>2021-10-12T22:55:09.694Z</time>
      </trkpt>
      <trkpt lat="43.782" lon="1.55746">
        <ele>123.73061504777</ele>
        <time>2021-10-12T22:55:18.110Z</time>
      </trkpt>
      <trkpt lat="43.78194" lon="1.55713">
        <ele>124.22308511608</ele>
        <time>2021-10-12T22:55:26.530Z</time>
      </trkpt>
      <trkpt lat="43.78191" lon="1.55696">
        <ele>124.78105896135</ele>
        <time>2021-10-12T22:55:34.952Z</time>
      </trkpt>
      <trkpt lat="43.78183" lon="1.55665">
        <ele>125.41516958409</ele>
        <time>2021-10-12T22:55:43.378Z</time>
      </trkpt>
      <trkpt lat="43.78179" lon="1.55656">
        <ele>126.16048755584</ele>
        <time>2021-10-12T22:55:51.805Z</time>
      </trkpt>
      <trkpt lat="43.78174" lon="1.55644">
        <ele>127.01201435542</ele>
        <time>2021-10-12T22:56:00.234Z</time>
      </trkpt>
      <trkpt lat="43.7815" lon="1.55616">
        <ele>127.9676936533</ele>
        <time>2021-10-12T22:56:08.668Z</time>
      </trkpt>
      <trkpt lat="43.78133" lon="1.556">
        <ele>129.04622462612</ele>
        <time>2021-10-12T22:56:17.105Z</time>
      </trkpt>
      <trkpt lat="43.77895" lon="1.55405">
        <ele>130.24349815925</ele>
        <time>2021-10-12T22:56:25.586Z</time>
      </trkpt>
      <trkpt lat="43.77895" lon="1.55405">
        <ele>131.58298637614</ele>
        <time>2021-10-12T22:56:34.067Z</time>
      </trkpt>
      <trkpt lat="43.77672" lon="1.55222">
        <ele>133.12726715607</ele>
        <time>2021-10-12T22:56:42.590Z</time>
      </trkpt>
      <trkpt lat="43.77672" lon="1.55222">
        <ele>134.71918652709</ele>
        <time>2021-10-12T22:56:51.113Z</time>
      </trkpt>
      <trkpt lat="43.77436" lon="1.55028">
        <ele>136.70013633871</ele>
        <time>2021-10-12T22:56:59.680Z</time>
      </trkpt>
      <trkpt lat="43.77099" lon="1.54754">
        <ele>138.62384793804</ele>
        <time>2021-10-12T22:57:08.309Z</time>
      </trkpt>
      <trkpt lat="43.77012" lon="1.5468">
        <ele>141.00569898498</ele>
        <time>2021-10-12T22:57:16.955Z</time>
      </trkpt>
      <trkpt lat="43.77012" lon="1.5468">
        <ele>143.02116766612</ele>
        <time>2021-10-12T22:57:25.601Z</time>
      </trkpt>
      <trkpt lat="43.76965" lon="1.54645">
        <ele>145.20898779951</ele>
        <time>2021-10-12T22:57:34.255Z</time>
      </trkpt>
      <trkpt lat="43.76806" lon="1.54541">
        <ele>147.68996287231</ele>
        <time>2021-10-12T22:57:42.937Z</time>
      </trkpt>
      <trkpt lat="43.7678" lon="1.54521">
        <ele>150.0255230198</ele>
        <time>2021-10-12T22:57:51.624Z</time>
      </trkpt>
      <trkpt lat="43.76769" lon="1.54509">
        <ele>152.32292002438</ele>
        <time>2021-10-12T22:58:00.313Z</time>
      </trkpt>
      <trkpt lat="43.7676" lon="1.54498">
        <ele>154.59991573142</ele>
        <time>2021-10-12T22:58:09.004Z</time>
      </trkpt>
      <trkpt lat="43.76746" lon="1.54461">
        <ele>156.988457423</ele>
        <time>2021-10-12T22:58:17.700Z</time>
      </trkpt>
      <trkpt lat="43.76741" lon="1.54434">
        <ele>159.36020625344</ele>
        <time>2021-10-12T22:58:26.399Z</time>
      </trkpt>
      <trkpt lat="43.76726" lon="1.54347">
        <ele>161.82298900845</ele>
        <time>2021-10-12T22:58:35.109Z</time>
      </trkpt>
      <trkpt lat="43.7672" lon="1.54297">
        <ele>164.15593160208</ele>
        <time>2021-10-12T22:58:43.825Z</time>
      </trkpt>
      <trkpt lat="43.76716" lon="1.54252">
        <ele>166.41954999232</ele>
        <time>2021-10-12T22:58:52.546Z</time>
      </trkpt>
      <trkpt lat="43.7672" lon="1.54177">
        <ele>168.79010235663</ele>
        <time>2021-10-12T22:59:01.276Z</time>
      </trkpt>
      <trkpt lat="43.7672" lon="1.54142">
        <ele>171.00038014811</ele>
        <time>2021-10-12T22:59:10.010Z</time>
      </trkpt>
      <trkpt lat="43.76716" lon="1.54056">
        <ele>173.25353359215</ele>
        <time>2021-10-12T22:59:18.754Z</time>
      </trkpt>
      <trkpt lat="43.76718" lon="1.54003">
        <ele>175.29579759761</ele>
        <time>2021-10-12T22:59:27.504Z</time>
      </trkpt>
      <trkpt lat="43.76747" lon="1.53827">
        <ele>177.34104496478</ele>
        <time>2021-10-12T22:59:36.275Z</time>
      </trkpt>
      <trkpt lat="43.76747" lon="1.53827">
        <ele>179.11594083967</ele>
        <time>2021-10-12T22:59:45.046Z</time>
      </trkpt>
      <trkpt lat="43.76773" lon="1.5371">
        <ele>180.90683221184</ele>
        <time>2021-10-12T22:59:53.831Z</time>
      </trkpt>
      <trkpt lat="43.76779" lon="1.53666">
        <ele>182.51561916119</ele>
        <time>2021-10-12T23:00:02.621Z</time>
      </trkpt>
      <trkpt lat="43.76783" lon="1.53612">
        <ele>184.11760870442</ele>
        <time>2021-10-12T23:00:11.417Z</time>
      </trkpt>
      <trkpt lat="43.76778" lon="1.53508">
        <ele>185.67513994722</ele>
        <time>2021-10-12T23:00:20.226Z</time>
      </trkpt>
      <trkpt lat="43.76766" lon="1.53418">
        <ele>187.01220202129</ele>
        <time>2021-10-12T23:00:29.045Z</time>
      </trkpt>
      <trkpt lat="43.76766" lon="1.53418">
        <ele>188.11174437388</ele>
        <time>2021-10-12T23:00:37.864Z</time>
      </trkpt>
      <trkpt lat="43.76757" lon="1.53355">
        <ele>189.19911706972</ele>
        <time>2021-10-12T23:00:46.691Z</time>
      </trkpt>
      <trkpt lat="43.76757" lon="1.53355">
        <ele>190.07457045055</ele>
        <time>2021-10-12T23:00:55.518Z</time>
      </trkpt>
      <trkpt lat="43.76757" lon="1.53349">
        <ele>190.86158062818</ele>
        <time>2021-10-12T23:01:04.345Z</time>
      </trkpt>
      <trkpt lat="43.76755" lon="1.53291">
        <ele>191.622111102</ele>
        <time>2021-10-12T23:01:13.179Z</time>
      </trkpt>
      <trkpt lat="43.76756" lon="1.53165">
        <ele>192.04464052399</ele>
        <time>2021-10-12T23:01:22.028Z</time>
      </trkpt>
      <trkpt lat="43.76756" lon="1.53165">
        <ele>192.57306842111</ele>
        <time>2021-10-12T23:01:30.877Z</time>
      </trkpt>
      <trkpt lat="43.76756" lon="1.53152">
        <ele>192.99642533549</ele>
        <time>2021-10-12T23:01:39.727Z</time>
      </trkpt>
      <trkpt lat="43.76754" lon="1.53099">
        <ele>193.30077689063</ele>
        <time>2021-10-12T23:01:48.583Z</time>
      </trkpt>
      <trkpt lat="43.7675" lon="1.53078">
        <ele>193.64163085401</ele>
        <time>2021-10-12T23:01:57.442Z</time>
      </trkpt>
      <trkpt lat="43.76747" lon="1.53062">
        <ele>193.99768024119</ele>
        <time>2021-10-12T23:02:06.303Z</time>
      </trkpt>
      <trkpt lat="43.76741" lon="1.53046">
        <ele>194.37874964882</ele>
        <time>2021-10-12T23:02:15.166Z</time>
      </trkpt>
      <trkpt lat="43.76733" lon="1.5303">
        <ele>194.77202891629</ele>
        <time>2021-10-12T23:02:24.031Z</time>
      </trkpt>
      <trkpt lat="43.76722" lon="1.53017">
        <ele>195.19565935541</ele>
        <time>2021-10-12T23:02:32.898Z</time>
      </trkpt>
      <trkpt lat="43.76698" lon="1.52992">
        <ele>195.64692905779</ele>
        <time>2021-10-12T23:02:41.770Z</time>
      </trkpt>
      <trkpt lat="43.76662" lon="1.5296">
        <ele>196.08532504403</ele>
        <time>2021-10-12T23:02:50.649Z</time>
      </trkpt>
      <trkpt lat="43.76603" lon="1.52911">
        <ele>196.51636830059</ele>
        <time>2021-10-12T23:02:59.539Z</time>
      </trkpt>
      <trkpt lat="43.76603" lon="1.52911">
        <ele>197.07315843702</ele>
        <time>2021-10-12T23:03:08.429Z</time>
      </trkpt>
      <trkpt lat="43.76341" lon="1.52689">
        <ele>198.51685432769</ele>
        <time>2021-10-12T23:03:17.368Z</time>
      </trkpt>
      <trkpt lat="43.76294" lon="1.52654">
        <ele>199.17339622984</ele>
        <time>2021-10-12T23:03:26.316Z</time>
      </trkpt>
      <trkpt lat="43.76273" lon="1.5264">
        <ele>199.82907738223</ele>
        <time>2021-10-12T23:03:35.268Z</time>
      </trkpt>
      <trkpt lat="43.76261" lon="1.52632">
        <ele>200.47409878774</ele>
        <time>2021-10-12T23:03:44.222Z</time>
      </trkpt>
      <trkpt lat="43.76236" lon="1.52609">
        <ele>201.12892715201</ele>
        <time>2021-10-12T23:03:53.180Z</time>
      </trkpt>
      <trkpt lat="43.76217" lon="1.52589">
        <ele>201.7765278016</ele>
        <time>2021-10-12T23:04:02.142Z</time>
      </trkpt>
      <trkpt lat="43.76199" lon="1.52567">
        <ele>202.41536969476</ele>
        <time>2021-10-12T23:04:11.108Z</time>
      </trkpt>
      <trkpt lat="43.76184" lon="1.52546">
        <ele>203.09070131271</ele>
        <time>2021-10-12T23:04:20.078Z</time>
      </trkpt>
      <trkpt lat="43.76066" lon="1.52348">
        <ele>204.04561817647</ele>
        <time>2021-10-12T23:04:29.077Z</time>
      </trkpt>
      <trkpt lat="43.75986" lon="1.52234">
        <ele>204.41926743474</ele>
        <time>2021-10-12T23:04:38.095Z</time>
      </trkpt>
      <trkpt lat="43.75955" lon="1.52197">
        <ele>204.92352707376</ele>
        <time>2021-10-12T23:04:47.119Z</time>
      </trkpt>
      <trkpt lat="43.7586" lon="1.52099">
        <ele>205.63120393828</ele>
        <time>2021-10-12T23:04:56.162Z</time>
      </trkpt>
      <trkpt lat="43.75837" lon="1.52073">
        <ele>206.18329772487</ele>
        <time>2021-10-12T23:05:05.210Z</time>
      </trkpt>
      <trkpt lat="43.75829" lon="1.52054">
        <ele>206.62792667079</ele>
        <time>2021-10-12T23:05:14.261Z</time>
      </trkpt>
      <trkpt lat="43.75786" lon="1.51942">
        <ele>206.91895896183</ele>
        <time>2021-10-12T23:05:23.326Z</time>
      </trkpt>
      <trkpt lat="43.7577" lon="1.51881">
        <ele>207.25380256219</ele>
        <time>2021-10-12T23:05:32.399Z</time>
      </trkpt>
      <trkpt lat="43.75729" lon="1.51685">
        <ele>207.47566736786</ele>
        <time>2021-10-12T23:05:41.495Z</time>
      </trkpt>
      <trkpt lat="43.75675" lon="1.51403">
        <ele>207.79950903871</ele>
        <time>2021-10-12T23:05:50.625Z</time>
      </trkpt>
      <trkpt lat="43.75667" lon="1.51359">
        <ele>208.04287821005</ele>
        <time>2021-10-12T23:05:59.761Z</time>
      </trkpt>
      <trkpt lat="43.75667" lon="1.51359">
        <ele>208.29067586732</ele>
        <time>2021-10-12T23:06:08.897Z</time>
      </trkpt>
      <trkpt lat="43.75578" lon="1.50887">
        <ele>208.50648346588</ele>
        <time>2021-10-12T23:06:18.089Z</time>
      </trkpt>
      <trkpt lat="43.75576" lon="1.50868">
        <ele>208.70028496119</ele>
        <time>2021-10-12T23:06:27.283Z</time>
      </trkpt>
      <trkpt lat="43.75573" lon="1.50841">
        <ele>208.84260043126</ele>
        <time>2021-10-12T23:06:36.480Z</time>
      </trkpt>
      <trkpt lat="43.75574" lon="1.50826">
        <ele>208.96469411124</ele>
        <time>2021-10-12T23:06:45.679Z</time>
      </trkpt>
      <trkpt lat="43.75579" lon="1.50783">
        <ele>209.09948817197</ele>
        <time>2021-10-12T23:06:54.883Z</time>
      </trkpt>
      <trkpt lat="43.75587" lon="1.50746">
        <ele>209.18975735414</ele>
        <time>2021-10-12T23:07:04.092Z</time>
      </trkpt>
      <trkpt lat="43.75602" lon="1.50705">
        <ele>209.24555361006</ele>
        <time>2021-10-12T23:07:13.306Z</time>
      </trkpt>
      <trkpt lat="43.75658" lon="1.50614">
        <ele>209.33311607581</ele>
        <time>2021-10-12T23:07:22.534Z</time>
      </trkpt>
      <trkpt lat="43.75726" lon="1.50515">
        <ele>209.36969508435</ele>
        <time>2021-10-12T23:07:31.778Z</time>
      </trkpt>
      <trkpt lat="43.75784" lon="1.5043">
        <ele>209.29477935856</ele>
        <time>2021-10-12T23:07:41.035Z</time>
      </trkpt>
      <trkpt lat="43.75813" lon="1.50378">
        <ele>209.05157625317</ele>
        <time>2021-10-12T23:07:50.300Z</time>
      </trkpt>
      <trkpt lat="43.75854" lon="1.50294">
        <ele>208.76685024305</ele>
        <time>2021-10-12T23:07:59.577Z</time>
      </trkpt>
      <trkpt lat="43.75865" lon="1.50248">
        <ele>208.52302477715</ele>
        <time>2021-10-12T23:08:08.859Z</time>
      </trkpt>
      <trkpt lat="43.75867" lon="1.50237">
        <ele>208.20051456462</ele>
        <time>2021-10-12T23:08:18.143Z</time>
      </trkpt>
      <trkpt lat="43.75872" lon="1.50187">
        <ele>207.7865640951</ele>
        <time>2021-10-12T23:08:27.432Z</time>
      </trkpt>
      <trkpt lat="43.75872" lon="1.50138">
        <ele>207.35836187269</ele>
        <time>2021-10-12T23:08:36.727Z</time>
      </trkpt>
      <trkpt lat="43.7587" lon="1.50108">
        <ele>206.87685941368</ele>
        <time>2021-10-12T23:08:46.026Z</time>
      </trkpt>
      <trkpt lat="43.75861" lon="1.50055">
        <ele>206.35436619111</ele>
        <time>2021-10-12T23:08:55.331Z</time>
      </trkpt>
      <trkpt lat="43.75853" lon="1.50028">
        <ele>205.75375146503</ele>
        <time>2021-10-12T23:09:04.639Z</time>
      </trkpt>
      <trkpt lat="43.75833" lon="1.49978">
        <ele>205.07679993106</ele>
        <time>2021-10-12T23:09:13.954Z</time>
      </trkpt>
      <trkpt lat="43.75833" lon="1.49978">
        <ele>204.36328519423</ele>
        <time>2021-10-12T23:09:23.269Z</time>
      </trkpt>
      <trkpt lat="43.75804" lon="1.49899">
        <ele>203.4538312968</ele>
        <time>2021-10-12T23:09:32.594Z</time>
      </trkpt>
      <trkpt lat="43.75769" lon="1.49778">
        <ele>202.55145606931</ele>
        <time>2021-10-12T23:09:41.934Z</time>
      </trkpt>
      <trkpt lat="43.75757" lon="1.49731">
        <ele>201.69157318224</ele>
        <time>2021-10-12T23:09:51.280Z</time>
      </trkpt>
      <trkpt lat="43.75734" lon="1.49556">
        <ele>200.55020170046</ele>
        <time>2021-10-12T23:10:00.647Z</time>
      </trkpt>
      <trkpt lat="43.75733" lon="1.4954">
        <ele>199.59998938663</ele>
        <time>2021-10-12T23:10:10.016Z</time>
      </trkpt>
      <trkpt lat="43.75719" lon="1.4943">
        <ele>198.4362669337</ele>
        <time>2021-10-12T23:10:19.397Z</time>
      </trkpt>
      <trkpt lat="43.75713" lon="1.49401">
        <ele>197.4297071009</ele>
        <time>2021-10-12T23:10:28.782Z</time>
      </trkpt>
      <trkpt lat="43.75687" lon="1.4934">
        <ele>196.2861653686</ele>
        <time>2021-10-12T23:10:38.175Z</time>
      </trkpt>
      <trkpt lat="43.75665" lon="1.49302">
        <ele>195.15327341141</ele>
        <time>2021-10-12T23:10:47.574Z</time>
      </trkpt>
      <trkpt lat="43.75628" lon="1.49257">
        <ele>194.02126814789</ele>
        <time>2021-10-12T23:10:56.981Z</time>
      </trkpt>
      <trkpt lat="43.75609" lon="1.49237">
        <ele>192.90984508406</ele>
        <time>2021-10-12T23:11:06.392Z</time>
      </trkpt>
      <trkpt lat="43.75597" lon="1.49228">
        <ele>191.81839148994</ele>
        <time>2021-10-12T23:11:15.805Z</time>
      </trkpt>
      <trkpt lat="43.75583" lon="1.49222">
        <ele>190.71533441515</ele>
        <time>2021-10-12T23:11:25.220Z</time>
      </trkpt>
      <trkpt lat="43.75569" lon="1.4922">
        <ele>189.58315001536</ele>
        <time>2021-10-12T23:11:34.637Z</time>
      </trkpt>
      <trkpt lat="43.75397" lon="1.49232">
        <ele>188.17028272824</ele>
        <time>2021-10-12T23:11:44.082Z</time>
      </trkpt>
      <trkpt lat="43.75383" lon="1.4923">
        <ele>186.98504188054</ele>
        <time>2021-10-12T23:11:53.529Z</time>
      </trkpt>
      <trkpt lat="43.75375" lon="1.49225">
        <ele>185.79147614573</ele>
        <time>2021-10-12T23:12:02.978Z</time>
      </trkpt>
      <trkpt lat="43.75363" lon="1.49213">
        <ele>184.57185562968</ele>
        <time>2021-10-12T23:12:12.429Z</time>
      </trkpt>
      <trkpt lat="43.75365" lon="1.49209">
        <ele>183.33442535937</ele>
        <time>2021-10-12T23:12:21.880Z</time>
      </trkpt>
      <trkpt lat="43.75365" lon="1.49197">
        <ele>182.05903616558</ele>
        <time>2021-10-12T23:12:31.333Z</time>
      </trkpt>
      <trkpt lat="43.75359" lon="1.49191">
        <ele>180.70179349826</ele>
        <time>2021-10-12T23:12:40.787Z</time>
      </trkpt>
      <trkpt lat="43.75351" lon="1.49191">
        <ele>179.27068245726</ele>
        <time>2021-10-12T23:12:50.242Z</time>
      </trkpt>
      <trkpt lat="43.75344" lon="1.49169">
        <ele>177.81748412839</ele>
        <time>2021-10-12T23:12:59.700Z</time>
      </trkpt>
      <trkpt lat="43.75313" lon="1.49112">
        <ele>176.30367133212</ele>
        <time>2021-10-12T23:13:09.166Z</time>
      </trkpt>
      <trkpt lat="43.75304" lon="1.49099">
        <ele>174.66750844086</ele>
        <time>2021-10-12T23:13:18.634Z</time>
      </trkpt>
      <trkpt lat="43.75299" lon="1.49094">
        <ele>172.93825660965</ele>
        <time>2021-10-12T23:13:28.103Z</time>
      </trkpt>
      <trkpt lat="43.7527" lon="1.49085">
        <ele>171.09887541228</ele>
        <time>2021-10-12T23:13:37.577Z</time>
      </trkpt>
      <trkpt lat="43.75256" lon="1.49079">
        <ele>169.17254610371</ele>
        <time>2021-10-12T23:13:47.054Z</time>
      </trkpt>
      <trkpt lat="43.7511" lon="1.4902">
        <ele>166.77737606559</ele>
        <time>2021-10-12T23:13:56.555Z</time>
      </trkpt>
      <trkpt lat="43.74902" lon="1.4894">
        <ele>164.35559714583</ele>
        <time>2021-10-12T23:14:06.090Z</time>
      </trkpt>
      <trkpt lat="43.74902" lon="1.4894">
        <ele>162.25603499198</ele>
        <time>2021-10-12T23:14:15.625Z</time>
      </trkpt>
      <trkpt lat="43.7482" lon="1.4891">
        <ele>160.12327504938</ele>
        <time>2021-10-12T23:14:25.174Z</time>
      </trkpt>
      <trkpt lat="43.74762" lon="1.48902">
        <ele>157.92314821811</ele>
        <time>2021-10-12T23:14:34.732Z</time>
      </trkpt>
      <trkpt lat="43.74734" lon="1.48904">
        <ele>155.71916998844</ele>
        <time>2021-10-12T23:14:44.295Z</time>
      </trkpt>
      <trkpt lat="43.74696" lon="1.48914">
        <ele>153.49680753181</ele>
        <time>2021-10-12T23:14:53.864Z</time>
      </trkpt>
      <trkpt lat="43.74656" lon="1.48933">
        <ele>151.25975201751</ele>
        <time>2021-10-12T23:15:03.440Z</time>
      </trkpt>
      <trkpt lat="43.74478" lon="1.49066">
        <ele>149.03774493171</ele>
        <time>2021-10-12T23:15:13.048Z</time>
      </trkpt>
      <trkpt lat="43.74212" lon="1.49275">
        <ele>146.05533211069</ele>
        <time>2021-10-12T23:15:22.705Z</time>
      </trkpt>
      <trkpt lat="43.74188" lon="1.49287">
        <ele>143.9977012149</ele>
        <time>2021-10-12T23:15:32.366Z</time>
      </trkpt>
      <trkpt lat="43.74166" lon="1.49298">
        <ele>141.99207402211</ele>
        <time>2021-10-12T23:15:42.031Z</time>
      </trkpt>
      <trkpt lat="43.74145" lon="1.49304">
        <ele>140.11018622741</ele>
        <time>2021-10-12T23:15:51.699Z</time>
      </trkpt>
      <trkpt lat="43.73966" lon="1.49334">
        <ele>137.9437710728</ele>
        <time>2021-10-12T23:16:01.396Z</time>
      </trkpt>
      <trkpt lat="43.73947" lon="1.49331">
        <ele>136.33167718225</ele>
        <time>2021-10-12T23:16:11.096Z</time>
      </trkpt>
      <trkpt lat="43.73936" lon="1.49327">
        <ele>134.93280836699</ele>
        <time>2021-10-12T23:16:20.798Z</time>
      </trkpt>
      <trkpt lat="43.73922" lon="1.4932">
        <ele>133.7475177396</ele>
        <time>2021-10-12T23:16:30.502Z</time>
      </trkpt>
      <trkpt lat="43.73922" lon="1.4932">
        <ele>132.77884486541</ele>
        <time>2021-10-12T23:16:40.206Z</time>
      </trkpt>
      <trkpt lat="43.73893" lon="1.49295">
        <ele>132.03274490068</ele>
        <time>2021-10-12T23:16:49.916Z</time>
      </trkpt>
      <trkpt lat="43.73528" lon="1.48946">
        <ele>131.19176828278</ele>
        <time>2021-10-12T23:16:59.697Z</time>
      </trkpt>
      <trkpt lat="43.73502" lon="1.48922">
        <ele>130.93267729904</ele>
        <time>2021-10-12T23:17:09.483Z</time>
      </trkpt>
      <trkpt lat="43.73337" lon="1.48764">
        <ele>130.8663891902</ele>
        <time>2021-10-12T23:17:19.301Z</time>
      </trkpt>
      <trkpt lat="43.73337" lon="1.48764">
        <ele>131.12259909213</ele>
        <time>2021-10-12T23:17:29.119Z</time>
      </trkpt>
      <trkpt lat="43.73288" lon="1.48718">
        <ele>131.66905470565</ele>
        <time>2021-10-12T23:17:38.947Z</time>
      </trkpt>
      <trkpt lat="43.73246" lon="1.48677">
        <ele>132.46920814389</ele>
        <time>2021-10-12T23:17:48.783Z</time>
      </trkpt>
      <trkpt lat="43.73246" lon="1.48677">
        <ele>133.49429283545</ele>
        <time>2021-10-12T23:17:58.619Z</time>
      </trkpt>
      <trkpt lat="43.72903" lon="1.48348">
        <ele>135.47396703152</ele>
        <time>2021-10-12T23:18:08.522Z</time>
      </trkpt>
      <trkpt lat="43.7289" lon="1.48333">
        <ele>136.96756660569</ele>
        <time>2021-10-12T23:18:18.427Z</time>
      </trkpt>
      <trkpt lat="43.728" lon="1.48239">
        <ele>138.71707487986</ele>
        <time>2021-10-12T23:18:28.350Z</time>
      </trkpt>
      <trkpt lat="43.72799" lon="1.48235">
        <ele>140.60225917089</ele>
        <time>2021-10-12T23:18:38.274Z</time>
      </trkpt>
      <trkpt lat="43.72797" lon="1.48231">
        <ele>142.66877569292</ele>
        <time>2021-10-12T23:18:48.199Z</time>
      </trkpt>
      <trkpt lat="43.7279" lon="1.48227">
        <ele>144.90690536097</ele>
        <time>2021-10-12T23:18:58.125Z</time>
      </trkpt>
      <trkpt lat="43.72786" lon="1.4823">
        <ele>147.2879989305</ele>
        <time>2021-10-12T23:19:08.051Z</time>
      </trkpt>
      <trkpt lat="43.72703" lon="1.4818">
        <ele>149.84981801759</ele>
        <time>2021-10-12T23:19:17.992Z</time>
      </trkpt>
      <trkpt lat="43.72674" lon="1.4817">
        <ele>152.49556101647</ele>
        <time>2021-10-12T23:19:27.938Z</time>
      </trkpt>
      <trkpt lat="43.72659" lon="1.48166">
        <ele>155.22319104088</ele>
        <time>2021-10-12T23:19:37.886Z</time>
      </trkpt>
      <trkpt lat="43.72596" lon="1.48147">
        <ele>158.17582360039</ele>
        <time>2021-10-12T23:19:47.844Z</time>
      </trkpt>
      <trkpt lat="43.72535" lon="1.48136">
        <ele>161.13748641891</ele>
        <time>2021-10-12T23:19:57.812Z</time>
      </trkpt>
      <trkpt lat="43.72467" lon="1.48135">
        <ele>164.14443416721</ele>
        <time>2021-10-12T23:20:07.791Z</time>
      </trkpt>
      <trkpt lat="43.72276" lon="1.48139">
        <ele>167.90917274809</ele>
        <time>2021-10-12T23:20:17.801Z</time>
      </trkpt>
      <trkpt lat="43.72276" lon="1.48139">
        <ele>170.54438740925</ele>
        <time>2021-10-12T23:20:27.811Z</time>
      </trkpt>
      <trkpt lat="43.72185" lon="1.48142">
        <ele>173.22752164758</ele>
        <time>2021-10-12T23:20:37.835Z</time>
      </trkpt>
      <trkpt lat="43.72041" lon="1.48146">
        <ele>175.72327316077</ele>
        <time>2021-10-12T23:20:47.882Z</time>
      </trkpt>
      <trkpt lat="43.72029" lon="1.48145">
        <ele>177.95961581375</ele>
        <time>2021-10-12T23:20:57.931Z</time>
      </trkpt>
      <trkpt lat="43.72007" lon="1.48138">
        <ele>180.03982464722</ele>
        <time>2021-10-12T23:21:07.984Z</time>
      </trkpt>
      <trkpt lat="43.71991" lon="1.48137">
        <ele>181.9633929642</ele>
        <time>2021-10-12T23:21:18.039Z</time>
      </trkpt>
      <trkpt lat="43.71982" lon="1.48138">
        <ele>183.69931642434</ele>
        <time>2021-10-12T23:21:28.096Z</time>
      </trkpt>
      <trkpt lat="43.71961" lon="1.48145">
        <ele>185.25783267356</ele>
        <time>2021-10-12T23:21:38.156Z</time>
      </trkpt>
      <trkpt lat="43.7194" lon="1.48149">
        <ele>186.61627360156</ele>
        <time>2021-10-12T23:21:48.220Z</time>
      </trkpt>
      <trkpt lat="43.71857" lon="1.4815">
        <ele>187.80911328103</ele>
        <time>2021-10-12T23:21:58.297Z</time>
      </trkpt>
      <trkpt lat="43.71857" lon="1.4815">
        <ele>188.74794123084</ele>
        <time>2021-10-12T23:22:08.374Z</time>
      </trkpt>
      <trkpt lat="43.71825" lon="1.48151">
        <ele>189.52675357518</ele>
        <time>2021-10-12T23:22:18.456Z</time>
      </trkpt>
      <trkpt lat="43.71817" lon="1.48152">
        <ele>190.08078571341</ele>
        <time>2021-10-12T23:22:28.539Z</time>
      </trkpt>
      <trkpt lat="43.71787" lon="1.48152">
        <ele>190.4748806983</ele>
        <time>2021-10-12T23:22:38.627Z</time>
      </trkpt>
      <trkpt lat="43.71775" lon="1.48149">
        <ele>190.66384921844</ele>
        <time>2021-10-12T23:22:48.717Z</time>
      </trkpt>
      <trkpt lat="43.71765" lon="1.48143">
        <ele>190.65754650663</ele>
        <time>2021-10-12T23:22:58.809Z</time>
      </trkpt>
      <trkpt lat="43.71695" lon="1.48083">
        <ele>190.3663226219</ele>
        <time>2021-10-12T23:23:08.914Z</time>
      </trkpt>
      <trkpt lat="43.71695" lon="1.48083">
        <ele>190.05329108954</ele>
        <time>2021-10-12T23:23:19.019Z</time>
      </trkpt>
      <trkpt lat="43.71661" lon="1.48054">
        <ele>189.5245464236</ele>
        <time>2021-10-12T23:23:29.131Z</time>
      </trkpt>
      <trkpt lat="43.71654" lon="1.48049">
        <ele>188.93928246709</ele>
        <time>2021-10-12T23:23:39.244Z</time>
      </trkpt>
      <trkpt lat="43.7164" lon="1.48045">
        <ele>188.23318938082</ele>
        <time>2021-10-12T23:23:49.359Z</time>
      </trkpt>
      <trkpt lat="43.71626" lon="1.48036">
        <ele>187.43324793327</ele>
        <time>2021-10-12T23:23:59.476Z</time>
      </trkpt>
      <trkpt lat="43.71595" lon="1.4801">
        <ele>186.51841053111</ele>
        <time>2021-10-12T23:24:09.599Z</time>
      </trkpt>
      <trkpt lat="43.7158" lon="1.47994">
        <ele>185.58631369001</ele>
        <time>2021-10-12T23:24:19.725Z</time>
      </trkpt>
      <trkpt lat="43.71569" lon="1.47973">
        <ele>184.60678500548</ele>
        <time>2021-10-12T23:24:29.854Z</time>
      </trkpt>
      <trkpt lat="43.71561" lon="1.47949">
        <ele>183.58913368433</ele>
        <time>2021-10-12T23:24:39.986Z</time>
      </trkpt>
      <trkpt lat="43.71557" lon="1.47923">
        <ele>182.55365578755</ele>
        <time>2021-10-12T23:24:50.121Z</time>
      </trkpt>
      <trkpt lat="43.71559" lon="1.47917">
        <ele>181.55739306591</ele>
        <time>2021-10-12T23:25:00.257Z</time>
      </trkpt>
      <trkpt lat="43.71557" lon="1.47911">
        <ele>180.57099106757</ele>
        <time>2021-10-12T23:25:10.394Z</time>
      </trkpt>
      <trkpt lat="43.71554" lon="1.47909">
        <ele>179.6205259878</ele>
        <time>2021-10-12T23:25:20.531Z</time>
      </trkpt>
      <trkpt lat="43.71549" lon="1.47908">
        <ele>178.71001931891</ele>
        <time>2021-10-12T23:25:30.669Z</time>
      </trkpt>
      <trkpt lat="43.71546" lon="1.47914">
        <ele>177.86696394204</ele>
        <time>2021-10-12T23:25:40.808Z</time>
      </trkpt>
      <trkpt lat="43.71532" lon="1.47903">
        <ele>177.04641845949</ele>
        <time>2021-10-12T23:25:50.950Z</time>
      </trkpt>
      <trkpt lat="43.71513" lon="1.47882">
        <ele>176.29141632787</ele>
        <time>2021-10-12T23:26:01.096Z</time>
      </trkpt>
      <trkpt lat="43.71462" lon="1.47835">
        <ele>175.59689386325</ele>
        <time>2021-10-12T23:26:11.251Z</time>
      </trkpt>
      <trkpt lat="43.71462" lon="1.47835">
        <ele>175.05668101627</ele>
        <time>2021-10-12T23:26:21.406Z</time>
      </trkpt>
      <trkpt lat="43.71332" lon="1.47714">
        <ele>174.54235097716</ele>
        <time>2021-10-12T23:26:31.587Z</time>
      </trkpt>
      <trkpt lat="43.71332" lon="1.47714">
        <ele>174.21441333476</ele>
        <time>2021-10-12T23:26:41.768Z</time>
      </trkpt>
      <trkpt lat="43.71296" lon="1.47677">
        <ele>174.003083414</ele>
        <time>2021-10-12T23:26:51.956Z</time>
      </trkpt>
      <trkpt lat="43.71296" lon="1.47677">
        <ele>173.91345223096</ele>
        <time>2021-10-12T23:27:02.144Z</time>
      </trkpt>
      <trkpt lat="43.71278" lon="1.47656">
        <ele>173.94741653318</ele>
        <time>2021-10-12T23:27:12.336Z</time>
      </trkpt>
      <trkpt lat="43.71266" lon="1.47637">
        <ele>174.11201142264</ele>
        <time>2021-10-12T23:27:22.530Z</time>
      </trkpt>
      <trkpt lat="43.71266" lon="1.47631">
        <ele>174.41049247984</ele>
        <time>2021-10-12T23:27:32.725Z</time>
      </trkpt>
      <trkpt lat="43.71264" lon="1.47628">
        <ele>174.83287322723</ele>
        <time>2021-10-12T23:27:42.921Z</time>
      </trkpt>
      <trkpt lat="43.7126" lon="1.47626">
        <ele>175.38143622675</ele>
        <time>2021-10-12T23:27:53.117Z</time>
      </trkpt>
      <trkpt lat="43.71256" lon="1.47627">
        <ele>176.05238351906</ele>
        <time>2021-10-12T23:28:03.314Z</time>
      </trkpt>
      <trkpt lat="43.7124" lon="1.47611">
        <ele>176.83420808278</ele>
        <time>2021-10-12T23:28:13.514Z</time>
      </trkpt>
      <trkpt lat="43.71229" lon="1.47596">
        <ele>177.74291542325</ele>
        <time>2021-10-12T23:28:23.717Z</time>
      </trkpt>
      <trkpt lat="43.71105" lon="1.47437">
        <ele>179.0861131556</ele>
        <time>2021-10-12T23:28:33.947Z</time>
      </trkpt>
      <trkpt lat="43.71087" lon="1.47412">
        <ele>180.28113232829</ele>
        <time>2021-10-12T23:28:44.181Z</time>
      </trkpt>
      <trkpt lat="43.71064" lon="1.4738">
        <ele>181.56546008669</ele>
        <time>2021-10-12T23:28:54.420Z</time>
      </trkpt>
      <trkpt lat="43.71012" lon="1.47302">
        <ele>182.98990176067</ele>
        <time>2021-10-12T23:29:04.671Z</time>
      </trkpt>
      <trkpt lat="43.70963" lon="1.47231">
        <ele>184.41922835709</ele>
        <time>2021-10-12T23:29:14.934Z</time>
      </trkpt>
      <trkpt lat="43.70932" lon="1.47185">
        <ele>185.94061368539</ele>
        <time>2021-10-12T23:29:25.204Z</time>
      </trkpt>
      <trkpt lat="43.70904" lon="1.47143">
        <ele>187.41849503992</ele>
        <time>2021-10-12T23:29:35.481Z</time>
      </trkpt>
      <trkpt lat="43.70815" lon="1.46999">
        <ele>189.03499067352</ele>
        <time>2021-10-12T23:29:45.780Z</time>
      </trkpt>
      <trkpt lat="43.70795" lon="1.46965">
        <ele>190.55481050053</ele>
        <time>2021-10-12T23:29:56.084Z</time>
      </trkpt>
      <trkpt lat="43.70769" lon="1.46924">
        <ele>192.0842915031</ele>
        <time>2021-10-12T23:30:06.394Z</time>
      </trkpt>
      <trkpt lat="43.70749" lon="1.46896">
        <ele>193.55600400721</ele>
        <time>2021-10-12T23:30:16.709Z</time>
      </trkpt>
      <trkpt lat="43.70727" lon="1.46879">
        <ele>194.99744426747</ele>
        <time>2021-10-12T23:30:27.028Z</time>
      </trkpt>
      <trkpt lat="43.70636" lon="1.46817">
        <ele>196.5124057579</ele>
        <time>2021-10-12T23:30:37.363Z</time>
      </trkpt>
      <trkpt lat="43.70624" lon="1.46796">
        <ele>197.90767059108</ele>
        <time>2021-10-12T23:30:47.701Z</time>
      </trkpt>
      <trkpt lat="43.70623" lon="1.46792">
        <ele>199.2088620068</ele>
        <time>2021-10-12T23:30:58.039Z</time>
      </trkpt>
      <trkpt lat="43.70621" lon="1.46785">
        <ele>200.45974361355</ele>
        <time>2021-10-12T23:31:08.378Z</time>
      </trkpt>
      <trkpt lat="43.70616" lon="1.46782">
        <ele>201.64747603281</ele>
        <time>2021-10-12T23:31:18.718Z</time>
      </trkpt>
      <trkpt lat="43.70616" lon="1.46782">
        <ele>202.756611369</ele>
        <time>2021-10-12T23:31:29.058Z</time>
      </trkpt>
      <trkpt lat="43.70608" lon="1.46783">
        <ele>203.80409312073</ele>
        <time>2021-10-12T23:31:39.399Z</time>
      </trkpt>
      <trkpt lat="43.70586" lon="1.46781">
        <ele>204.77001151404</ele>
        <time>2021-10-12T23:31:49.744Z</time>
      </trkpt>
      <trkpt lat="43.70564" lon="1.46766">
        <ele>205.67699068139</ele>
        <time>2021-10-12T23:32:00.093Z</time>
      </trkpt>
      <trkpt lat="43.70557" lon="1.4676">
        <ele>206.49788815158</ele>
        <time>2021-10-12T23:32:10.443Z</time>
      </trkpt>
      <trkpt lat="43.70547" lon="1.46744">
        <ele>207.25473884731</ele>
        <time>2021-10-12T23:32:20.796Z</time>
      </trkpt>
      <trkpt lat="43.70547" lon="1.46744">
        <ele>207.90244761498</ele>
        <time>2021-10-12T23:32:31.149Z</time>
      </trkpt>
      <trkpt lat="43.70521" lon="1.46725">
        <ele>208.47697403515</ele>
        <time>2021-10-12T23:32:41.506Z</time>
      </trkpt>
      <trkpt lat="43.70521" lon="1.46725">
        <ele>208.9475225644</ele>
        <time>2021-10-12T23:32:51.863Z</time>
      </trkpt>
      <trkpt lat="43.70495" lon="1.46706">
        <ele>209.38077766932</ele>
        <time>2021-10-12T23:33:02.225Z</time>
      </trkpt>
      <trkpt lat="43.70492" lon="1.46704">
        <ele>209.66811561797</ele>
        <time>2021-10-12T23:33:12.588Z</time>
      </trkpt>
      <trkpt lat="43.70478" lon="1.46702">
        <ele>209.87589211714</ele>
        <time>2021-10-12T23:33:22.953Z</time>
      </trkpt>
      <trkpt lat="43.70435" lon="1.46673">
        <ele>210.0506781056</ele>
        <time>2021-10-12T23:33:33.325Z</time>
      </trkpt>
      <trkpt lat="43.70433" lon="1.46672">
        <ele>210.01914498093</ele>
        <time>2021-10-12T23:33:43.698Z</time>
      </trkpt>
      <trkpt lat="43.7039" lon="1.46642">
        <ele>209.88016241448</ele>
        <time>2021-10-12T23:33:54.078Z</time>
      </trkpt>
      <trkpt lat="43.70387" lon="1.46636">
        <ele>209.61630199097</ele>
        <time>2021-10-12T23:34:04.459Z</time>
      </trkpt>
      <trkpt lat="43.7038" lon="1.46633">
        <ele>209.23992870202</ele>
        <time>2021-10-12T23:34:14.842Z</time>
      </trkpt>
      <trkpt lat="43.70378" lon="1.46633">
        <ele>208.75124817271</ele>
        <time>2021-10-12T23:34:25.225Z</time>
      </trkpt>
      <trkpt lat="43.7037" lon="1.4662">
        <ele>208.12899386879</ele>
        <time>2021-10-12T23:34:35.610Z</time>
      </trkpt>
      <trkpt lat="43.70363" lon="1.46615">
        <ele>207.399711518</ele>
        <time>2021-10-12T23:34:45.996Z</time>
      </trkpt>
      <trkpt lat="43.70353" lon="1.46595">
        <ele>206.53335180459</ele>
        <time>2021-10-12T23:34:56.385Z</time>
      </trkpt>
      <trkpt lat="43.70347" lon="1.46583">
        <ele>205.54942032486</ele>
        <time>2021-10-12T23:35:06.775Z</time>
      </trkpt>
      <trkpt lat="43.7033" lon="1.46533">
        <ele>204.31200909793</ele>
        <time>2021-10-12T23:35:17.172Z</time>
      </trkpt>
      <trkpt lat="43.70325" lon="1.46493">
        <ele>203.02026836869</ele>
        <time>2021-10-12T23:35:27.574Z</time>
      </trkpt>
      <trkpt lat="43.70323" lon="1.46457">
        <ele>201.63967560956</ele>
        <time>2021-10-12T23:35:37.980Z</time>
      </trkpt>
      <trkpt lat="43.70324" lon="1.46429">
        <ele>200.2119035423</ele>
        <time>2021-10-12T23:35:48.389Z</time>
      </trkpt>
      <trkpt lat="43.70327" lon="1.46407">
        <ele>198.72359973583</ele>
        <time>2021-10-12T23:35:58.801Z</time>
      </trkpt>
      <trkpt lat="43.70353" lon="1.46318">
        <ele>197.03230442261</ele>
        <time>2021-10-12T23:36:09.224Z</time>
      </trkpt>
      <trkpt lat="43.70353" lon="1.46318">
        <ele>195.42976711807</ele>
        <time>2021-10-12T23:36:19.647Z</time>
      </trkpt>
      <trkpt lat="43.70358" lon="1.4628">
        <ele>193.73952417071</ele>
        <time>2021-10-12T23:36:30.074Z</time>
      </trkpt>
      <trkpt lat="43.7036" lon="1.46237">
        <ele>191.95637213732</ele>
        <time>2021-10-12T23:36:40.506Z</time>
      </trkpt>
      <trkpt lat="43.7036" lon="1.46201">
        <ele>190.06098688509</ele>
        <time>2021-10-12T23:36:50.942Z</time>
      </trkpt>
      <trkpt lat="43.70358" lon="1.4619">
        <ele>188.16405903416</ele>
        <time>2021-10-12T23:37:01.380Z</time>
      </trkpt>
      <trkpt lat="43.70354" lon="1.46171">
        <ele>186.18294254897</ele>
        <time>2021-10-12T23:37:11.820Z</time>
      </trkpt>
      <trkpt lat="43.7034" lon="1.46127">
        <ele>184.13232238201</ele>
        <time>2021-10-12T23:37:22.266Z</time>
      </trkpt>
      <trkpt lat="43.70274" lon="1.45962">
        <ele>181.80623374805</ele>
        <time>2021-10-12T23:37:32.734Z</time>
      </trkpt>
      <trkpt lat="43.70274" lon="1.45962">
        <ele>179.79564079539</ele>
        <time>2021-10-12T23:37:43.202Z</time>
      </trkpt>
      <trkpt lat="43.70259" lon="1.45911">
        <ele>177.77435789744</ele>
        <time>2021-10-12T23:37:53.676Z</time>
      </trkpt>
      <trkpt lat="43.70245" lon="1.45869">
        <ele>175.61800041251</ele>
        <time>2021-10-12T23:38:04.155Z</time>
      </trkpt>
      <trkpt lat="43.70226" lon="1.45827">
        <ele>173.46803277372</ele>
        <time>2021-10-12T23:38:14.640Z</time>
      </trkpt>
      <trkpt lat="43.70184" lon="1.45748">
        <ele>171.17135477194</ele>
        <time>2021-10-12T23:38:25.136Z</time>
      </trkpt>
      <trkpt lat="43.70168" lon="1.45723">
        <ele>169.12490709281</ele>
        <time>2021-10-12T23:38:35.636Z</time>
      </trkpt>
      <trkpt lat="43.70156" lon="1.45714">
        <ele>167.12195890098</ele>
        <time>2021-10-12T23:38:46.138Z</time>
      </trkpt>
      <trkpt lat="43.70144" lon="1.45707">
        <ele>165.12970627522</ele>
        <time>2021-10-12T23:38:56.643Z</time>
      </trkpt>
      <trkpt lat="43.70024" lon="1.45655">
        <ele>162.93129050859</ele>
        <time>2021-10-12T23:39:07.168Z</time>
      </trkpt>
      <trkpt lat="43.70003" lon="1.45641">
        <ele>160.9628230374</ele>
        <time>2021-10-12T23:39:17.696Z</time>
      </trkpt>
      <trkpt lat="43.69989" lon="1.45629">
        <ele>159.05028062273</ele>
        <time>2021-10-12T23:39:28.227Z</time>
      </trkpt>
      <trkpt lat="43.69977" lon="1.45615">
        <ele>157.18979233712</ele>
        <time>2021-10-12T23:39:38.761Z</time>
      </trkpt>
      <trkpt lat="43.69958" lon="1.45582">
        <ele>155.37547343396</ele>
        <time>2021-10-12T23:39:49.299Z</time>
      </trkpt>
      <trkpt lat="43.69887" lon="1.45434">
        <ele>153.37088729935</ele>
        <time>2021-10-12T23:39:59.858Z</time>
      </trkpt>
      <trkpt lat="43.69887" lon="1.45434">
        <ele>151.73460527725</ele>
        <time>2021-10-12T23:40:10.417Z</time>
      </trkpt>
      <trkpt lat="43.6978" lon="1.45216">
        <ele>149.71031663466</ele>
        <time>2021-10-12T23:40:21.007Z</time>
      </trkpt>
      <trkpt lat="43.6977" lon="1.45204">
        <ele>148.20634814422</ele>
        <time>2021-10-12T23:40:31.599Z</time>
      </trkpt>
      <trkpt lat="43.69739" lon="1.45176">
        <ele>146.80069892927</ele>
        <time>2021-10-12T23:40:42.197Z</time>
      </trkpt>
      <trkpt lat="43.6971" lon="1.45154">
        <ele>145.51369374897</ele>
        <time>2021-10-12T23:40:52.800Z</time>
      </trkpt>
      <trkpt lat="43.69671" lon="1.45126">
        <ele>144.33708135962</ele>
        <time>2021-10-12T23:41:03.410Z</time>
      </trkpt>
      <trkpt lat="43.69611" lon="1.45094">
        <ele>143.29154456622</ele>
        <time>2021-10-12T23:41:14.030Z</time>
      </trkpt>
      <trkpt lat="43.69611" lon="1.45094">
        <ele>142.41464274422</ele>
        <time>2021-10-12T23:41:24.650Z</time>
      </trkpt>
      <trkpt lat="43.69601" lon="1.45088">
        <ele>141.64955959531</ele>
        <time>2021-10-12T23:41:35.272Z</time>
      </trkpt>
      <trkpt lat="43.69576" lon="1.45074">
        <ele>140.96632350254</ele>
        <time>2021-10-12T23:41:45.898Z</time>
      </trkpt>
      <trkpt lat="43.69573" lon="1.45072">
        <ele>140.44562608087</ele>
        <time>2021-10-12T23:41:56.525Z</time>
      </trkpt>
      <trkpt lat="43.69565" lon="1.45068">
        <ele>140.03346104474</ele>
        <time>2021-10-12T23:42:07.153Z</time>
      </trkpt>
      <trkpt lat="43.69564" lon="1.45061">
        <ele>139.74557084533</ele>
        <time>2021-10-12T23:42:17.782Z</time>
      </trkpt>
      <trkpt lat="43.69561" lon="1.45057">
        <ele>139.56555206169</ele>
        <time>2021-10-12T23:42:28.412Z</time>
      </trkpt>
      <trkpt lat="43.69556" lon="1.45056">
        <ele>139.48529980534</ele>
        <time>2021-10-12T23:42:39.043Z</time>
      </trkpt>
      <trkpt lat="43.69549" lon="1.4506">
        <ele>139.49985005506</ele>
        <time>2021-10-12T23:42:49.675Z</time>
      </trkpt>
      <trkpt lat="43.69547" lon="1.45066">
        <ele>139.6092028403</ele>
        <time>2021-10-12T23:43:00.307Z</time>
      </trkpt>
      <trkpt lat="43.69547" lon="1.45071">
        <ele>139.80966705676</ele>
        <time>2021-10-12T23:43:10.940Z</time>
      </trkpt>
      <trkpt lat="43.69547" lon="1.45071">
        <ele>140.0768994896</ele>
        <time>2021-10-12T23:43:21.573Z</time>
      </trkpt>
      <trkpt lat="43.69547" lon="1.45072">
        <ele>140.41034182566</ele>
        <time>2021-10-12T23:43:32.206Z</time>
      </trkpt>
      <trkpt lat="43.69548" lon="1.45077">
        <ele>140.80645023064</ele>
        <time>2021-10-12T23:43:42.840Z</time>
      </trkpt>
      <trkpt lat="43.69552" lon="1.45082">
        <ele>141.25154686589</ele>
        <time>2021-10-12T23:43:53.475Z</time>
      </trkpt>
      <trkpt lat="43.69557" lon="1.45083">
        <ele>141.72891705993</ele>
        <time>2021-10-12T23:44:04.110Z</time>
      </trkpt>
      <trkpt lat="43.69562" lon="1.4508">
        <ele>142.22850861522</ele>
        <time>2021-10-12T23:44:14.746Z</time>
      </trkpt>
      <trkpt lat="43.69574" lon="1.45083">
        <ele>142.76082875733</ele>
        <time>2021-10-12T23:44:25.384Z</time>
      </trkpt>
      <trkpt lat="43.69599" lon="1.45096">
        <ele>143.32771125511</ele>
        <time>2021-10-12T23:44:36.026Z</time>
      </trkpt>
      <trkpt lat="43.69599" lon="1.45096">
        <ele>143.84096855054</ele>
        <time>2021-10-12T23:44:46.668Z</time>
      </trkpt>
      <trkpt lat="43.69671" lon="1.45133">
        <ele>144.3934827618</ele>
        <time>2021-10-12T23:44:57.323Z</time>
      </trkpt>
      <trkpt lat="43.69681" lon="1.45307">
        <ele>145.1317872618</ele>
        <time>2021-10-12T23:45:07.998Z</time>
      </trkpt>
      <trkpt lat="43.6969" lon="1.45318">
        <ele>145.59679314068</ele>
        <time>2021-10-12T23:45:18.675Z</time>
      </trkpt>
      <trkpt lat="43.6974" lon="1.45311">
        <ele>145.99232759221</ele>
        <time>2021-10-12T23:45:29.360Z</time>
      </trkpt>
      <trkpt lat="43.69747" lon="1.45302">
        <ele>146.30497999391</ele>
        <time>2021-10-12T23:45:40.047Z</time>
      </trkpt>
      <trkpt lat="43.69747" lon="1.45302">
        <ele>146.77012854667</ele>
        <time>2021-10-12T23:45:50.734Z</time>
      </trkpt>
      <trkpt lat="43.6974" lon="1.45311">
        <ele>145.99232759221</ele>
        <time>2021-10-12T23:46:01.422Z</time>
      </trkpt>
      <trkpt lat="43.6969" lon="1.45318">
        <ele>146.96333690771</ele>
        <time>2021-10-12T23:46:12.118Z</time>
      </trkpt>
      <trkpt lat="43.69681" lon="1.45307">
        <ele>145.1317872618</ele>
        <time>2021-10-12T23:46:22.816Z</time>
      </trkpt>
      <trkpt lat="43.69671" lon="1.45133">
        <ele>146.57468824783</ele>
        <time>2021-10-12T23:46:33.534Z</time>
      </trkpt>
      <trkpt lat="43.6971" lon="1.45154">
        <ele>145.51369374897</ele>
        <time>2021-10-12T23:46:44.259Z</time>
      </trkpt>
      <trkpt lat="43.69671" lon="1.45126">
        <ele>144.33708135962</ele>
        <time>2021-10-12T23:46:54.991Z</time>
      </trkpt>
      <trkpt lat="43.69611" lon="1.45094">
        <ele>143.29154456622</ele>
        <time>2021-10-12T23:47:05.733Z</time>
      </trkpt>
      <trkpt lat="43.69611" lon="1.45094">
        <ele>142.41464274422</ele>
        <time>2021-10-12T23:47:16.475Z</time>
      </trkpt>
      <trkpt lat="43.69601" lon="1.45088">
        <ele>141.64955959531</ele>
        <time>2021-10-12T23:47:27.219Z</time>
      </trkpt>
      <trkpt lat="43.69576" lon="1.45074">
        <ele>140.96632350254</ele>
        <time>2021-10-12T23:47:37.967Z</time>
      </trkpt>
      <trkpt lat="43.69573" lon="1.45072">
        <ele>140.44562608087</ele>
        <time>2021-10-12T23:47:48.716Z</time>
      </trkpt>
      <trkpt lat="43.69565" lon="1.45068">
        <ele>140.03346104474</ele>
        <time>2021-10-12T23:47:59.466Z</time>
      </trkpt>
      <trkpt lat="43.69564" lon="1.45061">
        <ele>143.34886253224</ele>
        <time>2021-10-12T23:48:10.217Z</time>
      </trkpt>
      <trkpt lat="43.69564" lon="1.45021">
        <ele>142.81820702068</ele>
        <time>2021-10-12T23:48:20.973Z</time>
      </trkpt>
      <trkpt lat="43.69573" lon="1.44933">
        <ele>142.24523239939</ele>
        <time>2021-10-12T23:48:31.739Z</time>
      </trkpt>
      <trkpt lat="43.69583" lon="1.44835">
        <ele>141.57074910809</ele>
        <time>2021-10-12T23:48:42.517Z</time>
      </trkpt>
      <trkpt lat="43.69587" lon="1.44805">
        <ele>140.94759946214</ele>
        <time>2021-10-12T23:48:53.298Z</time>
      </trkpt>
      <trkpt lat="43.69591" lon="1.44772">
        <ele>140.34126187237</ele>
        <time>2021-10-12T23:49:04.083Z</time>
      </trkpt>
      <trkpt lat="43.69601" lon="1.44704">
        <ele>139.69317322553</ele>
        <time>2021-10-12T23:49:14.876Z</time>
      </trkpt>
      <trkpt lat="43.69606" lon="1.44655">
        <ele>139.04456563006</ele>
        <time>2021-10-12T23:49:25.675Z</time>
      </trkpt>
      <trkpt lat="43.69605" lon="1.44634">
        <ele>138.47536521626</ele>
        <time>2021-10-12T23:49:36.476Z</time>
      </trkpt>
      <trkpt lat="43.69611" lon="1.44618">
        <ele>137.93132737547</ele>
        <time>2021-10-12T23:49:47.279Z</time>
      </trkpt>
      <trkpt lat="43.69618" lon="1.4461">
        <ele>137.39382862222</ele>
        <time>2021-10-12T23:49:58.084Z</time>
      </trkpt>
      <trkpt lat="43.69625" lon="1.44581">
        <ele>136.87531776293</ele>
        <time>2021-10-12T23:50:08.892Z</time>
      </trkpt>
      <trkpt lat="43.69635" lon="1.44543">
        <ele>136.32903173191</ele>
        <time>2021-10-12T23:50:19.705Z</time>
      </trkpt>
      <trkpt lat="43.69635" lon="1.44538">
        <ele>135.81305640582</ele>
        <time>2021-10-12T23:50:30.519Z</time>
      </trkpt>
      <trkpt lat="43.69633" lon="1.44527">
        <ele>135.30956769704</ele>
        <time>2021-10-12T23:50:41.334Z</time>
      </trkpt>
      <trkpt lat="43.69629" lon="1.44495">
        <ele>134.80979947995</ele>
        <time>2021-10-12T23:50:52.153Z</time>
      </trkpt>
      <trkpt lat="43.69662" lon="1.44246">
        <ele>134.24451233404</ele>
        <time>2021-10-12T23:51:03.001Z</time>
      </trkpt>
      <trkpt lat="43.69681" lon="1.44098">
        <ele>133.775328896</ele>
        <time>2021-10-12T23:51:13.866Z</time>
      </trkpt>
      <trkpt lat="43.69682" lon="1.44064">
        <ele>133.32965280346</ele>
        <time>2021-10-12T23:51:24.735Z</time>
      </trkpt>
      <trkpt lat="43.69677" lon="1.44041">
        <ele>132.95203735989</ele>
        <time>2021-10-12T23:51:35.607Z</time>
      </trkpt>
      <trkpt lat="43.69655" lon="1.44">
        <ele>132.60076960398</ele>
        <time>2021-10-12T23:51:46.485Z</time>
      </trkpt>
      <trkpt lat="43.69608" lon="1.43923">
        <ele>132.27776859745</ele>
        <time>2021-10-12T23:51:57.375Z</time>
      </trkpt>
      <trkpt lat="43.69608" lon="1.43923">
        <ele>131.98320173603</ele>
        <time>2021-10-12T23:52:08.265Z</time>
      </trkpt>
      <trkpt lat="43.69577" lon="1.43876">
        <ele>131.70020075615</ele>
        <time>2021-10-12T23:52:19.162Z</time>
      </trkpt>
      <trkpt lat="43.69534" lon="1.43808">
        <ele>131.42108364066</ele>
        <time>2021-10-12T23:52:30.070Z</time>
      </trkpt>
      <trkpt lat="43.6953" lon="1.43801">
        <ele>131.20730633359</ele>
        <time>2021-10-12T23:52:40.979Z</time>
      </trkpt>
      <trkpt lat="43.69514" lon="1.43771">
        <ele>131.01128589062</ele>
        <time>2021-10-12T23:52:51.892Z</time>
      </trkpt>
      <trkpt lat="43.69505" lon="1.43756">
        <ele>130.85418850846</ele>
        <time>2021-10-12T23:53:02.807Z</time>
      </trkpt>
      <trkpt lat="43.69428" lon="1.43617">
        <ele>130.727548931</ele>
        <time>2021-10-12T23:53:13.743Z</time>
      </trkpt>
      <trkpt lat="43.69428" lon="1.43617">
        <ele>130.62717333606</ele>
        <time>2021-10-12T23:53:24.679Z</time>
      </trkpt>
      <trkpt lat="43.69396" lon="1.43559">
        <ele>130.52216392142</ele>
        <time>2021-10-12T23:53:35.623Z</time>
      </trkpt>
      <trkpt lat="43.69343" lon="1.43466">
        <ele>130.46426893372</ele>
        <time>2021-10-12T23:53:46.581Z</time>
      </trkpt>
      <trkpt lat="43.69338" lon="1.43436">
        <ele>130.41432239906</ele>
        <time>2021-10-12T23:53:57.542Z</time>
      </trkpt>
      <trkpt lat="43.69339" lon="1.43416">
        <ele>130.39092790293</ele>
        <time>2021-10-12T23:54:08.506Z</time>
      </trkpt>
      <trkpt lat="43.69344" lon="1.43387">
        <ele>130.39845915017</ele>
        <time>2021-10-12T23:54:19.473Z</time>
      </trkpt>
      <trkpt lat="43.69367" lon="1.43284">
        <ele>130.51133782699</ele>
        <time>2021-10-12T23:54:30.453Z</time>
      </trkpt>
      <trkpt lat="43.69372" lon="1.43276">
        <ele>130.54508078619</ele>
        <time>2021-10-12T23:54:41.434Z</time>
      </trkpt>
      <trkpt lat="43.69379" lon="1.43276">
        <ele>130.58852639769</ele>
        <time>2021-10-12T23:54:52.416Z</time>
      </trkpt>
      <trkpt lat="43.69385" lon="1.43271">
        <ele>130.64014706487</ele>
        <time>2021-10-12T23:55:03.399Z</time>
      </trkpt>
      <trkpt lat="43.69387" lon="1.43264">
        <ele>130.70178667768</ele>
        <time>2021-10-12T23:55:14.383Z</time>
      </trkpt>
      <trkpt lat="43.69387" lon="1.43258">
        <ele>130.77183089844</ele>
        <time>2021-10-12T23:55:25.368Z</time>
      </trkpt>
      <trkpt lat="43.69386" lon="1.43252">
        <ele>130.84328370169</ele>
        <time>2021-10-12T23:55:36.353Z</time>
      </trkpt>
      <trkpt lat="43.69383" lon="1.43248">
        <ele>130.91433518971</ele>
        <time>2021-10-12T23:55:47.339Z</time>
      </trkpt>
      <trkpt lat="43.69384" lon="1.43231">
        <ele>130.990036473</ele>
        <time>2021-10-12T23:55:58.327Z</time>
      </trkpt>
      <trkpt lat="43.69387" lon="1.43198">
        <ele>131.01136330386</ele>
        <time>2021-10-12T23:56:09.319Z</time>
      </trkpt>
      <trkpt lat="43.69387" lon="1.43182">
        <ele>131.0525883578</ele>
        <time>2021-10-12T23:56:20.313Z</time>
      </trkpt>
      <trkpt lat="43.6937" lon="1.43089">
        <ele>131.12477319094</ele>
        <time>2021-10-12T23:56:31.318Z</time>
      </trkpt>
      <trkpt lat="43.6937" lon="1.43089">
        <ele>131.17503283581</ele>
        <time>2021-10-12T23:56:42.323Z</time>
      </trkpt>
      <trkpt lat="43.69368" lon="1.43078">
        <ele>131.22001010508</ele>
        <time>2021-10-12T23:56:53.329Z</time>
      </trkpt>
      <trkpt lat="43.6934" lon="1.43007">
        <ele>131.30607012777</ele>
        <time>2021-10-12T23:57:04.345Z</time>
      </trkpt>
      <trkpt lat="43.69334" lon="1.42992">
        <ele>131.34307328424</ele>
        <time>2021-10-12T23:57:15.363Z</time>
      </trkpt>
      <trkpt lat="43.69334" lon="1.42992">
        <ele>131.35876340748</ele>
        <time>2021-10-12T23:57:26.381Z</time>
      </trkpt>
      <trkpt lat="43.69321" lon="1.42953">
        <ele>131.34089425458</ele>
        <time>2021-10-12T23:57:37.404Z</time>
      </trkpt>
      <trkpt lat="43.69296" lon="1.42889">
        <ele>131.25200054481</ele>
        <time>2021-10-12T23:57:48.435Z</time>
      </trkpt>
      <trkpt lat="43.69287" lon="1.42865">
        <ele>131.23158717939</ele>
        <time>2021-10-12T23:57:59.469Z</time>
      </trkpt>
      <trkpt lat="43.69273" lon="1.42825">
        <ele>131.19848423329</ele>
        <time>2021-10-12T23:58:10.508Z</time>
      </trkpt>
      <trkpt lat="43.69269" lon="1.42807">
        <ele>131.1734659907</ele>
        <time>2021-10-12T23:58:21.549Z</time>
      </trkpt>
      <trkpt lat="43.69268" lon="1.42797">
        <ele>131.14449177503</ele>
        <time>2021-10-12T23:58:32.592Z</time>
      </trkpt>
      <trkpt lat="43.69272" lon="1.42792">
        <ele>131.09898610527</ele>
        <time>2021-10-12T23:58:43.636Z</time>
      </trkpt>
      <trkpt lat="43.69273" lon="1.42785">
        <ele>131.04657164842</ele>
        <time>2021-10-12T23:58:54.680Z</time>
      </trkpt>
      <trkpt lat="43.6927" lon="1.4278">
        <ele>130.97673795484</ele>
        <time>2021-10-12T23:59:05.725Z</time>
      </trkpt>
      <trkpt lat="43.69268" lon="1.42779">
        <ele>130.89393316562</ele>
        <time>2021-10-12T23:59:16.771Z</time>
      </trkpt>
      <trkpt lat="43.69266" lon="1.42779">
        <ele>130.79916476745</ele>
        <time>2021-10-12T23:59:27.817Z</time>
      </trkpt>
      <trkpt lat="43.69262" lon="1.42784">
        <ele>130.6881595124</ele>
        <time>2021-10-12T23:59:38.864Z</time>
      </trkpt>
      <trkpt lat="43.69239" lon="1.42769">
        <ele>130.59150561537</ele>
        <time>2021-10-12T23:59:49.915Z</time>
      </trkpt>
      <trkpt lat="43.69233" lon="1.42763">
        <ele>130.47206018427</ele>
        <time>2021-10-13T00:00:00.967Z</time>
      </trkpt>
      <trkpt lat="43.69211" lon="1.42743">
        <ele>130.3619763504</ele>
        <time>2021-10-13T00:00:12.023Z</time>
      </trkpt>
      <trkpt lat="43.69206" lon="1.42738">
        <ele>130.22311297237</ele>
        <time>2021-10-13T00:00:23.080Z</time>
      </trkpt>
      <trkpt lat="43.69141" lon="1.42676">
        <ele>129.97521213728</ele>
        <time>2021-10-13T00:00:34.150Z</time>
      </trkpt>
      <trkpt lat="43.69133" lon="1.42658">
        <ele>129.78639646004</ele>
        <time>2021-10-13T00:00:45.222Z</time>
      </trkpt>
      <trkpt lat="43.6913" lon="1.42656">
        <ele>129.61801100359</ele>
        <time>2021-10-13T00:00:56.295Z</time>
      </trkpt>
      <trkpt lat="43.69129" lon="1.42645">
        <ele>129.43797622049</ele>
        <time>2021-10-13T00:01:07.369Z</time>
      </trkpt>
      <trkpt lat="43.69126" lon="1.42641">
        <ele>129.2653457292</ele>
        <time>2021-10-13T00:01:18.444Z</time>
      </trkpt>
      <trkpt lat="43.6912" lon="1.42636">
        <ele>129.0900751578</ele>
        <time>2021-10-13T00:01:29.520Z</time>
      </trkpt>
      <trkpt lat="43.69112" lon="1.42637">
        <ele>128.92556642814</ele>
        <time>2021-10-13T00:01:40.597Z</time>
      </trkpt>
      <trkpt lat="43.69103" lon="1.42626">
        <ele>128.74969964331</ele>
        <time>2021-10-13T00:01:51.676Z</time>
      </trkpt>
      <trkpt lat="43.69099" lon="1.42624">
        <ele>128.59970045985</ele>
        <time>2021-10-13T00:02:02.756Z</time>
      </trkpt>
      <trkpt lat="43.69094" lon="1.42609">
        <ele>128.44078980142</ele>
        <time>2021-10-13T00:02:13.838Z</time>
      </trkpt>
      <trkpt lat="43.69082" lon="1.42564">
        <ele>128.25934350578</ele>
        <time>2021-10-13T00:02:24.925Z</time>
      </trkpt>
      <trkpt lat="43.69079" lon="1.42558">
        <ele>128.13867619838</ele>
        <time>2021-10-13T00:02:36.013Z</time>
      </trkpt>
      <trkpt lat="43.69069" lon="1.4254">
        <ele>128.03415598738</ele>
        <time>2021-10-13T00:02:47.104Z</time>
      </trkpt>
      <trkpt lat="43.69056" lon="1.42527">
        <ele>127.94266070197</ele>
        <time>2021-10-13T00:02:58.197Z</time>
      </trkpt>
      <trkpt lat="43.68924" lon="1.42419">
        <ele>127.90529870383</ele>
        <time>2021-10-13T00:03:09.315Z</time>
      </trkpt>
      <trkpt lat="43.68868" lon="1.42376">
        <ele>127.83954318488</ele>
        <time>2021-10-13T00:03:20.443Z</time>
      </trkpt>
      <trkpt lat="43.68865" lon="1.42373">
        <ele>127.7714207637</ele>
        <time>2021-10-13T00:03:31.572Z</time>
      </trkpt>
      <trkpt lat="43.68864" lon="1.42368">
        <ele>127.71355667126</ele>
        <time>2021-10-13T00:03:42.701Z</time>
      </trkpt>
      <trkpt lat="43.68858" lon="1.42356">
        <ele>127.66122258068</ele>
        <time>2021-10-13T00:03:53.832Z</time>
      </trkpt>
      <trkpt lat="43.68855" lon="1.42344">
        <ele>127.62083032208</ele>
        <time>2021-10-13T00:04:04.964Z</time>
      </trkpt>
      <trkpt lat="43.68856" lon="1.42335">
        <ele>127.59398384137</ele>
        <time>2021-10-13T00:04:16.097Z</time>
      </trkpt>
      <trkpt lat="43.68855" lon="1.42327">
        <ele>127.57881691974</ele>
        <time>2021-10-13T00:04:27.231Z</time>
      </trkpt>
      <trkpt lat="43.68858" lon="1.42317">
        <ele>127.57482962459</ele>
        <time>2021-10-13T00:04:38.367Z</time>
      </trkpt>
      <trkpt lat="43.68868" lon="1.42302">
        <ele>127.58808809652</ele>
        <time>2021-10-13T00:04:49.505Z</time>
      </trkpt>
      <trkpt lat="43.68872" lon="1.42286">
        <ele>127.61441980952</ele>
        <time>2021-10-13T00:05:00.645Z</time>
      </trkpt>
      <trkpt lat="43.68879" lon="1.4227">
        <ele>127.65280750318</ele>
        <time>2021-10-13T00:05:11.787Z</time>
      </trkpt>
      <trkpt lat="43.68887" lon="1.42243">
        <ele>127.70316164277</ele>
        <time>2021-10-13T00:05:22.933Z</time>
      </trkpt>
      <trkpt lat="43.6889" lon="1.42223">
        <ele>127.76532247792</ele>
        <time>2021-10-13T00:05:34.081Z</time>
      </trkpt>
      <trkpt lat="43.6889" lon="1.42201">
        <ele>127.8390526375</ele>
        <time>2021-10-13T00:05:45.231Z</time>
      </trkpt>
      <trkpt lat="43.68893" lon="1.42177">
        <ele>127.92402843649</ele>
        <time>2021-10-13T00:05:56.384Z</time>
      </trkpt>
      <trkpt lat="43.68895" lon="1.42168">
        <ele>128.01983003529</ele>
        <time>2021-10-13T00:06:07.538Z</time>
      </trkpt>
      <trkpt lat="43.68899" lon="1.4216">
        <ele>128.12593062015</ele>
        <time>2021-10-13T00:06:18.693Z</time>
      </trkpt>
      <trkpt lat="43.68898" lon="1.42151">
        <ele>128.24168480208</ele>
        <time>2021-10-13T00:06:29.850Z</time>
      </trkpt>
      <trkpt lat="43.68898" lon="1.42151">
        <ele>128.36631645969</ele>
        <time>2021-10-13T00:06:41.007Z</time>
      </trkpt>
      <trkpt lat="43.68896" lon="1.42144">
        <ele>128.49601772926</ele>
        <time>2021-10-13T00:06:52.164Z</time>
      </trkpt>
      <trkpt lat="43.6889" lon="1.4214">
        <ele>128.63277107953</ele>
        <time>2021-10-13T00:07:03.322Z</time>
      </trkpt>
      <trkpt lat="43.68884" lon="1.42126">
        <ele>128.7690233538</ele>
        <time>2021-10-13T00:07:14.482Z</time>
      </trkpt>
      <trkpt lat="43.68889" lon="1.42123">
        <ele>128.91653389316</ele>
        <time>2021-10-13T00:07:25.643Z</time>
      </trkpt>
      <trkpt lat="43.68858" lon="1.41973">
        <ele>128.99663730132</ele>
        <time>2021-10-13T00:07:36.822Z</time>
      </trkpt>
      <trkpt lat="43.68822" lon="1.41833">
        <ele>129.33336605379</ele>
        <time>2021-10-13T00:07:48.019Z</time>
      </trkpt>
      <trkpt lat="43.68816" lon="1.41797">
        <ele>129.49110410747</ele>
        <time>2021-10-13T00:07:59.220Z</time>
      </trkpt>
      <trkpt lat="43.68822" lon="1.41746">
        <ele>129.67800946332</ele>
        <time>2021-10-13T00:08:10.427Z</time>
      </trkpt>
      <trkpt lat="43.6882" lon="1.4172">
        <ele>129.83333039753</ele>
        <time>2021-10-13T00:08:21.637Z</time>
      </trkpt>
      <trkpt lat="43.6882" lon="1.4172">
        <ele>129.9599943228</ele>
        <time>2021-10-13T00:08:32.847Z</time>
      </trkpt>
      <trkpt lat="43.68822" lon="1.41693">
        <ele>130.07979869349</ele>
        <time>2021-10-13T00:08:44.060Z</time>
      </trkpt>
      <trkpt lat="43.68822" lon="1.41693">
        <ele>130.18109845391</ele>
        <time>2021-10-13T00:08:55.273Z</time>
      </trkpt>
      <trkpt lat="43.68815" lon="1.41686">
        <ele>130.26809132837</ele>
        <time>2021-10-13T00:09:06.487Z</time>
      </trkpt>
      <trkpt lat="43.68813" lon="1.41679">
        <ele>130.3436113525</ele>
        <time>2021-10-13T00:09:17.702Z</time>
      </trkpt>
      <trkpt lat="43.68813" lon="1.41679">
        <ele>130.40041597116</ele>
        <time>2021-10-13T00:09:28.917Z</time>
      </trkpt>
      <trkpt lat="43.68807" lon="1.41669">
        <ele>130.44405529321</ele>
        <time>2021-10-13T00:09:40.134Z</time>
      </trkpt>
      <trkpt lat="43.68799" lon="1.41666">
        <ele>130.46791708386</ele>
        <time>2021-10-13T00:09:51.352Z</time>
      </trkpt>
      <trkpt lat="43.68795" lon="1.41666">
        <ele>130.47751051631</ele>
        <time>2021-10-13T00:10:02.571Z</time>
      </trkpt>
      <trkpt lat="43.68785" lon="1.41655">
        <ele>130.47722690351</ele>
        <time>2021-10-13T00:10:13.792Z</time>
      </trkpt>
      <trkpt lat="43.68777" lon="1.41611">
        <ele>130.46266563602</ele>
        <time>2021-10-13T00:10:25.018Z</time>
      </trkpt>
      <trkpt lat="43.68775" lon="1.41552">
        <ele>130.42339601159</ele>
        <time>2021-10-13T00:10:36.251Z</time>
      </trkpt>
      <trkpt lat="43.68775" lon="1.41505">
        <ele>130.33005863685</ele>
        <time>2021-10-13T00:10:47.489Z</time>
      </trkpt>
      <trkpt lat="43.68775" lon="1.41504">
        <ele>130.24634522994</ele>
        <time>2021-10-13T00:10:58.728Z</time>
      </trkpt>
      <trkpt lat="43.68815" lon="1.41224">
        <ele>130.03512093394</ele>
        <time>2021-10-13T00:11:10.000Z</time>
      </trkpt>
      <trkpt lat="43.68826" lon="1.41149">
        <ele>130.13959911481</ele>
        <time>2021-10-13T00:11:21.281Z</time>
      </trkpt>
      <trkpt lat="43.68827" lon="1.4114">
        <ele>130.1069348267</ele>
        <time>2021-10-13T00:11:32.563Z</time>
      </trkpt>
      <trkpt lat="43.68853" lon="1.40965">
        <ele>130.03148516742</ele>
        <time>2021-10-13T00:11:43.865Z</time>
      </trkpt>
      <trkpt lat="43.68856" lon="1.40933">
        <ele>129.98896369216</ele>
        <time>2021-10-13T00:11:55.171Z</time>
      </trkpt>
      <trkpt lat="43.68863" lon="1.40922">
        <ele>129.94883121183</ele>
        <time>2021-10-13T00:12:06.479Z</time>
      </trkpt>
      <trkpt lat="43.68868" lon="1.40917">
        <ele>129.91140531093</ele>
        <time>2021-10-13T00:12:17.788Z</time>
      </trkpt>
      <trkpt lat="43.68871" lon="1.40907">
        <ele>129.87680024716</ele>
        <time>2021-10-13T00:12:29.098Z</time>
      </trkpt>
      <trkpt lat="43.6887" lon="1.40902">
        <ele>129.8449324938</ele>
        <time>2021-10-13T00:12:40.409Z</time>
      </trkpt>
      <trkpt lat="43.68869" lon="1.40896">
        <ele>129.81816365893</ele>
        <time>2021-10-13T00:12:51.720Z</time>
      </trkpt>
      <trkpt lat="43.68865" lon="1.40891">
        <ele>129.79762480939</ele>
        <time>2021-10-13T00:13:03.032Z</time>
      </trkpt>
      <trkpt lat="43.68859" lon="1.4089">
        <ele>129.77283855582</ele>
        <time>2021-10-13T00:13:14.345Z</time>
      </trkpt>
      <trkpt lat="43.68852" lon="1.40879">
        <ele>129.76007658242</ele>
        <time>2021-10-13T00:13:25.660Z</time>
      </trkpt>
      <trkpt lat="43.68834" lon="1.408">
        <ele>129.81438548577</ele>
        <time>2021-10-13T00:13:36.984Z</time>
      </trkpt>
      <trkpt lat="43.68817" lon="1.40748">
        <ele>129.78854471025</ele>
        <time>2021-10-13T00:13:48.315Z</time>
      </trkpt>
      <trkpt lat="43.68795" lon="1.40658">
        <ele>129.6721011326</ele>
        <time>2021-10-13T00:13:59.657Z</time>
      </trkpt>
      <trkpt lat="43.68795" lon="1.40658">
        <ele>129.63784174446</ele>
        <time>2021-10-13T00:14:10.999Z</time>
      </trkpt>
      <trkpt lat="43.68787" lon="1.40626">
        <ele>129.57516031353</ele>
        <time>2021-10-13T00:14:22.345Z</time>
      </trkpt>
      <trkpt lat="43.6879" lon="1.4061">
        <ele>129.52598575284</ele>
        <time>2021-10-13T00:14:33.693Z</time>
      </trkpt>
      <trkpt lat="43.68795" lon="1.40601">
        <ele>129.48025308278</ele>
        <time>2021-10-13T00:14:45.042Z</time>
      </trkpt>
      <trkpt lat="43.68806" lon="1.40596">
        <ele>129.43913432739</ele>
        <time>2021-10-13T00:14:56.393Z</time>
      </trkpt>
      <trkpt lat="43.6882" lon="1.40595">
        <ele>129.40449241022</ele>
        <time>2021-10-13T00:15:07.746Z</time>
      </trkpt>
      <trkpt lat="43.68836" lon="1.40591">
        <ele>129.36677289805</ele>
        <time>2021-10-13T00:15:19.102Z</time>
      </trkpt>
      <trkpt lat="43.68854" lon="1.40583">
        <ele>129.32396194167</ele>
        <time>2021-10-13T00:15:30.461Z</time>
      </trkpt>
      <trkpt lat="43.68868" lon="1.40575">
        <ele>129.25432509873</ele>
        <time>2021-10-13T00:15:41.822Z</time>
      </trkpt>
      <trkpt lat="43.68884" lon="1.40564">
        <ele>129.18792409651</ele>
        <time>2021-10-13T00:15:53.186Z</time>
      </trkpt>
      <trkpt lat="43.68898" lon="1.40548">
        <ele>129.0864237226</ele>
        <time>2021-10-13T00:16:04.553Z</time>
      </trkpt>
      <trkpt lat="43.68902" lon="1.40538">
        <ele>128.97872144358</ele>
        <time>2021-10-13T00:16:15.921Z</time>
      </trkpt>
      <trkpt lat="43.68903" lon="1.40519">
        <ele>128.8488104375</ele>
        <time>2021-10-13T00:16:27.292Z</time>
      </trkpt>
      <trkpt lat="43.68902" lon="1.40507">
        <ele>128.72040857263</ele>
        <time>2021-10-13T00:16:38.664Z</time>
      </trkpt>
      <trkpt lat="43.68896" lon="1.40486">
        <ele>128.57047575775</ele>
        <time>2021-10-13T00:16:50.039Z</time>
      </trkpt>
      <trkpt lat="43.68883" lon="1.40434">
        <ele>128.40421554677</ele>
        <time>2021-10-13T00:17:01.420Z</time>
      </trkpt>
      <trkpt lat="43.68884" lon="1.40418">
        <ele>128.27670531812</ele>
        <time>2021-10-13T00:17:12.803Z</time>
      </trkpt>
      <trkpt lat="43.68887" lon="1.40404">
        <ele>128.15411081724</ele>
        <time>2021-10-13T00:17:24.188Z</time>
      </trkpt>
      <trkpt lat="43.68891" lon="1.404">
        <ele>128.03213426753</ele>
        <time>2021-10-13T00:17:35.574Z</time>
      </trkpt>
      <trkpt lat="43.68895" lon="1.40392">
        <ele>127.90477198043</ele>
        <time>2021-10-13T00:17:46.961Z</time>
      </trkpt>
      <trkpt lat="43.68894" lon="1.40379">
        <ele>127.76849206141</ele>
        <time>2021-10-13T00:17:58.349Z</time>
      </trkpt>
      <trkpt lat="43.68894" lon="1.40379">
        <ele>127.64364201325</ele>
        <time>2021-10-13T00:18:09.737Z</time>
      </trkpt>
      <trkpt lat="43.6889" lon="1.40372">
        <ele>127.51245471026</ele>
        <time>2021-10-13T00:18:21.126Z</time>
      </trkpt>
      <trkpt lat="43.68884" lon="1.40368">
        <ele>127.38268925481</ele>
        <time>2021-10-13T00:18:32.516Z</time>
      </trkpt>
      <trkpt lat="43.68876" lon="1.40368">
        <ele>127.25874089706</ele>
        <time>2021-10-13T00:18:43.907Z</time>
      </trkpt>
      <trkpt lat="43.68869" lon="1.40373">
        <ele>127.14346885318</ele>
        <time>2021-10-13T00:18:55.300Z</time>
      </trkpt>
      <trkpt lat="43.68858" lon="1.40377">
        <ele>127.02936310004</ele>
        <time>2021-10-13T00:19:06.695Z</time>
      </trkpt>
      <trkpt lat="43.68858" lon="1.40377">
        <ele>126.93293721023</ele>
        <time>2021-10-13T00:19:18.090Z</time>
      </trkpt>
      <trkpt lat="43.68834" lon="1.40376">
        <ele>126.84906798737</ele>
        <time>2021-10-13T00:19:29.489Z</time>
      </trkpt>
      <trkpt lat="43.68781" lon="1.40394">
        <ele>126.76892765921</ele>
        <time>2021-10-13T00:19:40.896Z</time>
      </trkpt>
      <trkpt lat="43.6877" lon="1.40395">
        <ele>126.69475867712</ele>
        <time>2021-10-13T00:19:52.305Z</time>
      </trkpt>
      <trkpt lat="43.68763" lon="1.40388">
        <ele>126.62400360289</ele>
        <time>2021-10-13T00:20:03.715Z</time>
      </trkpt>
      <trkpt lat="43.68755" lon="1.40388">
        <ele>126.55860814391</ele>
        <time>2021-10-13T00:20:15.127Z</time>
      </trkpt>
      <trkpt lat="43.6875" lon="1.40392">
        <ele>126.49954834474</ele>
        <time>2021-10-13T00:20:26.540Z</time>
      </trkpt>
      <trkpt lat="43.68738" lon="1.4039">
        <ele>126.44516107331</ele>
        <time>2021-10-13T00:20:37.954Z</time>
      </trkpt>
      <trkpt lat="43.68725" lon="1.40386">
        <ele>126.39979129385</ele>
        <time>2021-10-13T00:20:49.371Z</time>
      </trkpt>
      <trkpt lat="43.68725" lon="1.40386">
        <ele>126.37733098405</ele>
        <time>2021-10-13T00:21:00.788Z</time>
      </trkpt>
      <trkpt lat="43.68702" lon="1.40374">
        <ele>126.3410344326</ele>
        <time>2021-10-13T00:21:12.209Z</time>
      </trkpt>
      <trkpt lat="43.68691" lon="1.40365">
        <ele>126.32803449794</ele>
        <time>2021-10-13T00:21:23.632Z</time>
      </trkpt>
      <trkpt lat="43.68679" lon="1.40352">
        <ele>126.34378574917</ele>
        <time>2021-10-13T00:21:35.057Z</time>
      </trkpt>
      <trkpt lat="43.68679" lon="1.40352">
        <ele>126.35466897002</ele>
        <time>2021-10-13T00:21:46.482Z</time>
      </trkpt>
      <trkpt lat="43.6867" lon="1.40342">
        <ele>126.38971735295</ele>
        <time>2021-10-13T00:21:57.909Z</time>
      </trkpt>
      <trkpt lat="43.68669" lon="1.40333">
        <ele>126.41851234962</ele>
        <time>2021-10-13T00:22:09.337Z</time>
      </trkpt>
      <trkpt lat="43.68666" lon="1.40326">
        <ele>126.45275164787</ele>
        <time>2021-10-13T00:22:20.766Z</time>
      </trkpt>
      <trkpt lat="43.68659" lon="1.40319">
        <ele>126.49364523276</ele>
        <time>2021-10-13T00:22:32.196Z</time>
      </trkpt>
      <trkpt lat="43.68659" lon="1.40319">
        <ele>126.52095735801</ele>
        <time>2021-10-13T00:22:43.626Z</time>
      </trkpt>
      <trkpt lat="43.68654" lon="1.40318">
        <ele>126.55322929931</ele>
        <time>2021-10-13T00:22:55.057Z</time>
      </trkpt>
      <trkpt lat="43.68645" lon="1.40322">
        <ele>126.58621330896</ele>
        <time>2021-10-13T00:23:06.490Z</time>
      </trkpt>
      <trkpt lat="43.6864" lon="1.40328">
        <ele>126.60743323878</ele>
        <time>2021-10-13T00:23:17.924Z</time>
      </trkpt>
      <trkpt lat="43.68638" lon="1.40332">
        <ele>126.62114859913</ele>
        <time>2021-10-13T00:23:29.358Z</time>
      </trkpt>
      <trkpt lat="43.68628" lon="1.40336">
        <ele>126.6393213801</ele>
        <time>2021-10-13T00:23:40.794Z</time>
      </trkpt>
      <trkpt lat="43.68621" lon="1.40335">
        <ele>126.64627637817</ele>
        <time>2021-10-13T00:23:52.231Z</time>
      </trkpt>
      <trkpt lat="43.68587" lon="1.40318">
        <ele>126.67076076599</ele>
        <time>2021-10-13T00:24:03.674Z</time>
      </trkpt>
      <trkpt lat="43.68537" lon="1.40288">
        <ele>126.67329602017</ele>
        <time>2021-10-13T00:24:15.125Z</time>
      </trkpt>
      <trkpt lat="43.68496" lon="1.40241">
        <ele>126.64367145756</ele>
        <time>2021-10-13T00:24:26.585Z</time>
      </trkpt>
      <trkpt lat="43.68479" lon="1.40216">
        <ele>126.58014025513</ele>
        <time>2021-10-13T00:24:38.049Z</time>
      </trkpt>
      <trkpt lat="43.68467" lon="1.40196">
        <ele>126.50271453237</ele>
        <time>2021-10-13T00:24:49.516Z</time>
      </trkpt>
      <trkpt lat="43.6844" lon="1.4014">
        <ele>126.38008865526</ele>
        <time>2021-10-13T00:25:00.991Z</time>
      </trkpt>
      <trkpt lat="43.68411" lon="1.40084">
        <ele>126.31678574396</ele>
        <time>2021-10-13T00:25:12.474Z</time>
      </trkpt>
      <trkpt lat="43.68411" lon="1.40084">
        <ele>126.25109874791</ele>
        <time>2021-10-13T00:25:23.957Z</time>
      </trkpt>
      <trkpt lat="43.68369" lon="1.40002">
        <ele>126.18199641263</ele>
        <time>2021-10-13T00:25:35.452Z</time>
      </trkpt>
      <trkpt lat="43.68359" lon="1.39991">
        <ele>126.11061092017</ele>
        <time>2021-10-13T00:25:46.949Z</time>
      </trkpt>
      <trkpt lat="43.68349" lon="1.39969">
        <ele>126.03022742026</ele>
        <time>2021-10-13T00:25:58.449Z</time>
      </trkpt>
      <trkpt lat="43.6835" lon="1.39962">
        <ele>125.95292983564</ele>
        <time>2021-10-13T00:26:09.949Z</time>
      </trkpt>
      <trkpt lat="43.6835" lon="1.39957">
        <ele>125.87822444184</ele>
        <time>2021-10-13T00:26:21.450Z</time>
      </trkpt>
      <trkpt lat="43.68345" lon="1.39947">
        <ele>125.80305467205</ele>
        <time>2021-10-13T00:26:32.952Z</time>
      </trkpt>
      <trkpt lat="43.68338" lon="1.39941">
        <ele>125.73330817317</ele>
        <time>2021-10-13T00:26:44.456Z</time>
      </trkpt>
      <trkpt lat="43.68328" lon="1.39942">
        <ele>125.67269283178</ele>
        <time>2021-10-13T00:26:55.961Z</time>
      </trkpt>
      <trkpt lat="43.68321" lon="1.39934">
        <ele>125.61166605592</ele>
        <time>2021-10-13T00:27:07.468Z</time>
      </trkpt>
      <trkpt lat="43.68317" lon="1.39933">
        <ele>125.56067485149</ele>
        <time>2021-10-13T00:27:18.975Z</time>
      </trkpt>
      <trkpt lat="43.68323" lon="1.39922">
        <ele>125.5100115313</ele>
        <time>2021-10-13T00:27:30.484Z</time>
      </trkpt>
      <trkpt lat="43.68324" lon="1.3992">
        <ele>125.47202125283</ele>
        <time>2021-10-13T00:27:41.993Z</time>
      </trkpt>
      <trkpt lat="43.68287" lon="1.39903">
        <ele>125.43195630884</ele>
        <time>2021-10-13T00:27:53.508Z</time>
      </trkpt>
      <trkpt lat="43.68109" lon="1.39813">
        <ele>125.4174532287</ele>
        <time>2021-10-13T00:28:05.054Z</time>
      </trkpt>
      <trkpt lat="43.68106" lon="1.39816">
        <ele>125.39827293632</ele>
        <time>2021-10-13T00:28:16.600Z</time>
      </trkpt>
      <trkpt lat="43.68096" lon="1.39812">
        <ele>125.39011946539</ele>
        <time>2021-10-13T00:28:28.148Z</time>
      </trkpt>
      <trkpt lat="43.68055" lon="1.39786">
        <ele>125.39326232551</ele>
        <time>2021-10-13T00:28:39.703Z</time>
      </trkpt>
      <trkpt lat="43.67998" lon="1.39693">
        <ele>125.4291140362</ele>
        <time>2021-10-13T00:28:51.272Z</time>
      </trkpt>
      <trkpt lat="43.67991" lon="1.39679">
        <ele>125.45571647515</ele>
        <time>2021-10-13T00:29:02.843Z</time>
      </trkpt>
      <trkpt lat="43.67993" lon="1.39672">
        <ele>125.48369080995</ele>
        <time>2021-10-13T00:29:14.415Z</time>
      </trkpt>
      <trkpt lat="43.67992" lon="1.39666">
        <ele>125.51723483785</ele>
        <time>2021-10-13T00:29:25.988Z</time>
      </trkpt>
      <trkpt lat="43.67989" lon="1.39662">
        <ele>125.55431359147</ele>
        <time>2021-10-13T00:29:37.562Z</time>
      </trkpt>
      <trkpt lat="43.67985" lon="1.39663">
        <ele>125.59221787861</ele>
        <time>2021-10-13T00:29:49.136Z</time>
      </trkpt>
      <trkpt lat="43.67982" lon="1.3966">
        <ele>125.63587390526</ele>
        <time>2021-10-13T00:30:00.711Z</time>
      </trkpt>
      <trkpt lat="43.67977" lon="1.39656">
        <ele>125.68396721463</ele>
        <time>2021-10-13T00:30:12.287Z</time>
      </trkpt>
      <trkpt lat="43.6797" lon="1.39644">
        <ele>125.7368029601</ele>
        <time>2021-10-13T00:30:23.865Z</time>
      </trkpt>
      <trkpt lat="43.6797" lon="1.39639">
        <ele>125.78632781694</ele>
        <time>2021-10-13T00:30:35.443Z</time>
      </trkpt>
      <trkpt lat="43.67968" lon="1.39636">
        <ele>125.83707667696</ele>
        <time>2021-10-13T00:30:47.022Z</time>
      </trkpt>
      <trkpt lat="43.67963" lon="1.39633">
        <ele>125.8885187314</ele>
        <time>2021-10-13T00:30:58.602Z</time>
      </trkpt>
      <trkpt lat="43.67959" lon="1.39635">
        <ele>125.94014488435</ele>
        <time>2021-10-13T00:31:10.182Z</time>
      </trkpt>
      <trkpt lat="43.67955" lon="1.39625">
        <ele>125.99146400231</ele>
        <time>2021-10-13T00:31:21.764Z</time>
      </trkpt>
      <trkpt lat="43.67929" lon="1.3958">
        <ele>126.03734603607</ele>
        <time>2021-10-13T00:31:33.352Z</time>
      </trkpt>
      <trkpt lat="43.67873" lon="1.3949">
        <ele>126.05859183542</ele>
        <time>2021-10-13T00:31:44.954Z</time>
      </trkpt>
      <trkpt lat="43.67873" lon="1.3949">
        <ele>126.10671930161</ele>
        <time>2021-10-13T00:31:56.556Z</time>
      </trkpt>
      <trkpt lat="43.67852" lon="1.39452">
        <ele>126.13292116266</ele>
        <time>2021-10-13T00:32:08.164Z</time>
      </trkpt>
      <trkpt lat="43.67835" lon="1.39416">
        <ele>126.18792204791</ele>
        <time>2021-10-13T00:32:19.777Z</time>
      </trkpt>
      <trkpt lat="43.67826" lon="1.39394">
        <ele>126.23646633006</ele>
        <time>2021-10-13T00:32:31.392Z</time>
      </trkpt>
      <trkpt lat="43.67821" lon="1.39374">
        <ele>126.28904837693</ele>
        <time>2021-10-13T00:32:43.010Z</time>
      </trkpt>
      <trkpt lat="43.67805" lon="1.39261">
        <ele>126.36227400539</ele>
        <time>2021-10-13T00:32:54.641Z</time>
      </trkpt>
      <trkpt lat="43.67804" lon="1.39252">
        <ele>126.38952077771</ele>
        <time>2021-10-13T00:33:06.273Z</time>
      </trkpt>
      <trkpt lat="43.678" lon="1.39247">
        <ele>126.40185708423</ele>
        <time>2021-10-13T00:33:17.906Z</time>
      </trkpt>
      <trkpt lat="43.67795" lon="1.39258">
        <ele>126.39376775355</ele>
        <time>2021-10-13T00:33:29.541Z</time>
      </trkpt>
      <trkpt lat="43.67741" lon="1.39341">
        <ele>126.40734886601</ele>
        <time>2021-10-13T00:33:41.189Z</time>
      </trkpt>
      <trkpt lat="43.67741" lon="1.39341">
        <ele>126.38991703086</ele>
        <time>2021-10-13T00:33:52.837Z</time>
      </trkpt>
      <trkpt lat="43.67715" lon="1.39382">
        <ele>126.38401174201</ele>
        <time>2021-10-13T00:34:04.491Z</time>
      </trkpt>
      <trkpt lat="43.677" lon="1.39408">
        <ele>126.3723607891</ele>
        <time>2021-10-13T00:34:16.149Z</time>
      </trkpt>
      <trkpt lat="43.6769" lon="1.39427">
        <ele>126.34603553925</ele>
        <time>2021-10-13T00:34:27.809Z</time>
      </trkpt>
      <trkpt lat="43.67678" lon="1.3945">
        <ele>126.28445751345</ele>
        <time>2021-10-13T00:34:39.473Z</time>
      </trkpt>
      <trkpt lat="43.67678" lon="1.3945">
        <ele>126.20458565753</ele>
        <time>2021-10-13T00:34:51.137Z</time>
      </trkpt>
      <trkpt lat="43.67631" lon="1.3956">
        <ele>125.95736391546</ele>
        <time>2021-10-13T00:35:02.816Z</time>
      </trkpt>
      <trkpt lat="43.67627" lon="1.39574">
        <ele>125.84605918545</ele>
        <time>2021-10-13T00:35:14.496Z</time>
      </trkpt>
      <trkpt lat="43.67614" lon="1.39619">
        <ele>125.73887827396</ele>
        <time>2021-10-13T00:35:26.182Z</time>
      </trkpt>
      <trkpt lat="43.6761" lon="1.3963">
        <ele>125.63538662917</ele>
        <time>2021-10-13T00:35:37.869Z</time>
      </trkpt>
      <trkpt lat="43.67599" lon="1.39677">
        <ele>125.50229288814</ele>
        <time>2021-10-13T00:35:49.562Z</time>
      </trkpt>
      <trkpt lat="43.67581" lon="1.39713">
        <ele>125.35275175865</ele>
        <time>2021-10-13T00:36:01.260Z</time>
      </trkpt>
      <trkpt lat="43.67559" lon="1.39759">
        <ele>125.27028314464</ele>
        <time>2021-10-13T00:36:12.965Z</time>
      </trkpt>
      <trkpt lat="43.67548" lon="1.39775">
        <ele>125.18360030279</ele>
        <time>2021-10-13T00:36:24.672Z</time>
      </trkpt>
      <trkpt lat="43.67542" lon="1.39788">
        <ele>125.09911940009</ele>
        <time>2021-10-13T00:36:36.381Z</time>
      </trkpt>
      <trkpt lat="43.67527" lon="1.39803">
        <ele>125.01592042337</ele>
        <time>2021-10-13T00:36:48.093Z</time>
      </trkpt>
      <trkpt lat="43.67506" lon="1.39818">
        <ele>124.93162187039</ele>
        <time>2021-10-13T00:36:59.809Z</time>
      </trkpt>
      <trkpt lat="43.67459" lon="1.39845">
        <ele>124.83945041658</ele>
        <time>2021-10-13T00:37:11.533Z</time>
      </trkpt>
      <trkpt lat="43.67428" lon="1.39876">
        <ele>124.79582685401</ele>
        <time>2021-10-13T00:37:23.263Z</time>
      </trkpt>
      <trkpt lat="43.67413" lon="1.39889">
        <ele>124.72921446343</ele>
        <time>2021-10-13T00:37:34.996Z</time>
      </trkpt>
      <trkpt lat="43.67402" lon="1.39895">
        <ele>124.66232230005</ele>
        <time>2021-10-13T00:37:46.731Z</time>
      </trkpt>
      <trkpt lat="43.6738" lon="1.39906">
        <ele>124.59397882048</ele>
        <time>2021-10-13T00:37:58.469Z</time>
      </trkpt>
      <trkpt lat="43.67322" lon="1.39921">
        <ele>124.51005771592</ele>
        <time>2021-10-13T00:38:10.217Z</time>
      </trkpt>
      <trkpt lat="43.67306" lon="1.39925">
        <ele>124.45348636308</ele>
        <time>2021-10-13T00:38:21.968Z</time>
      </trkpt>
      <trkpt lat="43.67272" lon="1.39938">
        <ele>124.39929178827</ele>
        <time>2021-10-13T00:38:33.724Z</time>
      </trkpt>
      <trkpt lat="43.67245" lon="1.39952">
        <ele>124.35786601206</ele>
        <time>2021-10-13T00:38:45.485Z</time>
      </trkpt>
      <trkpt lat="43.67202" lon="1.3998">
        <ele>124.32492855539</ele>
        <time>2021-10-13T00:38:57.253Z</time>
      </trkpt>
      <trkpt lat="43.6719" lon="1.3999">
        <ele>124.31047166534</ele>
        <time>2021-10-13T00:39:09.024Z</time>
      </trkpt>
      <trkpt lat="43.67167" lon="1.40011">
        <ele>124.33658742336</ele>
        <time>2021-10-13T00:39:20.799Z</time>
      </trkpt>
      <trkpt lat="43.6715" lon="1.40035">
        <ele>124.36472466658</ele>
        <time>2021-10-13T00:39:32.578Z</time>
      </trkpt>
      <trkpt lat="43.67117" lon="1.40087">
        <ele>124.39055866268</ele>
        <time>2021-10-13T00:39:44.365Z</time>
      </trkpt>
      <trkpt lat="43.67089" lon="1.40124">
        <ele>124.52237918922</ele>
        <time>2021-10-13T00:39:56.158Z</time>
      </trkpt>
      <trkpt lat="43.67024" lon="1.40182">
        <ele>124.37498362669</ele>
        <time>2021-10-13T00:40:07.964Z</time>
      </trkpt>
      <trkpt lat="43.66922" lon="1.40248">
        <ele>124.4261846097</ele>
        <time>2021-10-13T00:40:19.788Z</time>
      </trkpt>
      <trkpt lat="43.66906" lon="1.40261">
        <ele>124.48864731577</ele>
        <time>2021-10-13T00:40:31.615Z</time>
      </trkpt>
      <trkpt lat="43.66896" lon="1.40273">
        <ele>124.56168331329</ele>
        <time>2021-10-13T00:40:43.444Z</time>
      </trkpt>
      <trkpt lat="43.66896" lon="1.40273">
        <ele>124.63839786364</ele>
        <time>2021-10-13T00:40:55.273Z</time>
      </trkpt>
      <trkpt lat="43.66882" lon="1.403">
        <ele>124.74363766267</ele>
        <time>2021-10-13T00:41:07.105Z</time>
      </trkpt>
      <trkpt lat="43.66878" lon="1.40315">
        <ele>124.85197740946</ele>
        <time>2021-10-13T00:41:18.939Z</time>
      </trkpt>
      <trkpt lat="43.66852" lon="1.40391">
        <ele>125.00993459666</ele>
        <time>2021-10-13T00:41:30.783Z</time>
      </trkpt>
      <trkpt lat="43.6684" lon="1.40413">
        <ele>125.12432002413</ele>
        <time>2021-10-13T00:41:42.630Z</time>
      </trkpt>
      <trkpt lat="43.66833" lon="1.4041">
        <ele>125.24652708702</ele>
        <time>2021-10-13T00:41:54.478Z</time>
      </trkpt>
      <trkpt lat="43.66829" lon="1.40411">
        <ele>125.38045962995</ele>
        <time>2021-10-13T00:42:06.327Z</time>
      </trkpt>
      <trkpt lat="43.66825" lon="1.40418">
        <ele>125.52237518142</ele>
        <time>2021-10-13T00:42:18.177Z</time>
      </trkpt>
      <trkpt lat="43.66824" lon="1.40423">
        <ele>125.6747480852</ele>
        <time>2021-10-13T00:42:30.028Z</time>
      </trkpt>
      <trkpt lat="43.66815" lon="1.40424">
        <ele>125.83026961716</ele>
        <time>2021-10-13T00:42:41.880Z</time>
      </trkpt>
      <trkpt lat="43.66806" lon="1.40428">
        <ele>125.99271750791</ele>
        <time>2021-10-13T00:42:53.734Z</time>
      </trkpt>
      <trkpt lat="43.66786" lon="1.40439">
        <ele>126.17144229571</ele>
        <time>2021-10-13T00:43:05.591Z</time>
      </trkpt>
      <trkpt lat="43.66739" lon="1.4046">
        <ele>126.37162163805</ele>
        <time>2021-10-13T00:43:17.456Z</time>
      </trkpt>
      <trkpt lat="43.66663" lon="1.40496">
        <ele>126.58694189232</ele>
        <time>2021-10-13T00:43:29.334Z</time>
      </trkpt>
      <trkpt lat="43.66648" lon="1.40507">
        <ele>126.75272142921</ele>
        <time>2021-10-13T00:43:41.214Z</time>
      </trkpt>
      <trkpt lat="43.66555" lon="1.4055">
        <ele>127.0679321563</ele>
        <time>2021-10-13T00:43:53.110Z</time>
      </trkpt>
      <trkpt lat="43.66523" lon="1.40569">
        <ele>127.25149856121</ele>
        <time>2021-10-13T00:44:05.012Z</time>
      </trkpt>
      <trkpt lat="43.66439" lon="1.40623">
        <ele>127.33411603231</ele>
        <time>2021-10-13T00:44:16.929Z</time>
      </trkpt>
      <trkpt lat="43.66276" lon="1.40724">
        <ele>127.56164147689</ele>
        <time>2021-10-13T00:44:28.874Z</time>
      </trkpt>
      <trkpt lat="43.66134" lon="1.40778">
        <ele>127.80939508418</ele>
        <time>2021-10-13T00:44:40.843Z</time>
      </trkpt>
      <trkpt lat="43.66061" lon="1.40807">
        <ele>127.9971575901</ele>
        <time>2021-10-13T00:44:52.824Z</time>
      </trkpt>
      <trkpt lat="43.6602" lon="1.40827">
        <ele>128.15860016803</ele>
        <time>2021-10-13T00:45:04.812Z</time>
      </trkpt>
      <trkpt lat="43.65983" lon="1.40856">
        <ele>128.33922746266</ele>
        <time>2021-10-13T00:45:16.807Z</time>
      </trkpt>
      <trkpt lat="43.65964" lon="1.40877">
        <ele>128.52859386114</ele>
        <time>2021-10-13T00:45:28.806Z</time>
      </trkpt>
      <trkpt lat="43.65956" lon="1.4089">
        <ele>128.69250996426</ele>
        <time>2021-10-13T00:45:40.807Z</time>
      </trkpt>
      <trkpt lat="43.65951" lon="1.40904">
        <ele>128.83436444174</ele>
        <time>2021-10-13T00:45:52.809Z</time>
      </trkpt>
      <trkpt lat="43.65931" lon="1.4097">
        <ele>128.91733447254</ele>
        <time>2021-10-13T00:46:04.820Z</time>
      </trkpt>
      <trkpt lat="43.65927" lon="1.40969">
        <ele>129.02418053285</ele>
        <time>2021-10-13T00:46:16.831Z</time>
      </trkpt>
      <trkpt lat="43.65924" lon="1.40972">
        <ele>129.11882035416</ele>
        <time>2021-10-13T00:46:28.843Z</time>
      </trkpt>
      <trkpt lat="43.65921" lon="1.40978">
        <ele>129.2002211908</ele>
        <time>2021-10-13T00:46:40.856Z</time>
      </trkpt>
      <trkpt lat="43.65922" lon="1.40987">
        <ele>129.27302547013</ele>
        <time>2021-10-13T00:46:52.870Z</time>
      </trkpt>
      <trkpt lat="43.65899" lon="1.41007">
        <ele>129.31355252173</ele>
        <time>2021-10-13T00:47:04.888Z</time>
      </trkpt>
      <trkpt lat="43.65834" lon="1.41044">
        <ele>129.45232679431</ele>
        <time>2021-10-13T00:47:16.918Z</time>
      </trkpt>
      <trkpt lat="43.65749" lon="1.41094">
        <ele>129.50975097423</ele>
        <time>2021-10-13T00:47:28.962Z</time>
      </trkpt>
      <trkpt lat="43.65707" lon="1.41114">
        <ele>129.56239986414</ele>
        <time>2021-10-13T00:47:41.013Z</time>
      </trkpt>
      <trkpt lat="43.65676" lon="1.41127">
        <ele>129.59111436579</ele>
        <time>2021-10-13T00:47:53.070Z</time>
      </trkpt>
      <trkpt lat="43.65672" lon="1.4112">
        <ele>129.61513283735</ele>
        <time>2021-10-13T00:48:05.128Z</time>
      </trkpt>
      <trkpt lat="43.65666" lon="1.4112">
        <ele>129.62685925933</ele>
        <time>2021-10-13T00:48:17.187Z</time>
      </trkpt>
      <trkpt lat="43.65662" lon="1.41123">
        <ele>129.63192555756</ele>
        <time>2021-10-13T00:48:29.246Z</time>
      </trkpt>
      <trkpt lat="43.65661" lon="1.41132">
        <ele>129.63124410667</ele>
        <time>2021-10-13T00:48:41.306Z</time>
      </trkpt>
      <trkpt lat="43.65573" lon="1.41153">
        <ele>129.60946391582</ele>
        <time>2021-10-13T00:48:53.381Z</time>
      </trkpt>
      <trkpt lat="43.65539" lon="1.41161">
        <ele>129.64202021436</ele>
        <time>2021-10-13T00:49:05.461Z</time>
      </trkpt>
      <trkpt lat="43.65539" lon="1.41161">
        <ele>129.64732010963</ele>
        <time>2021-10-13T00:49:17.541Z</time>
      </trkpt>
      <trkpt lat="43.65419" lon="1.4119">
        <ele>129.71778009267</ele>
        <time>2021-10-13T00:49:29.641Z</time>
      </trkpt>
      <trkpt lat="43.65358" lon="1.41202">
        <ele>128.33512049847</ele>
        <time>2021-10-13T00:49:41.751Z</time>
      </trkpt>
      <trkpt lat="43.65352" lon="1.41207">
        <ele>128.37904337913</ele>
        <time>2021-10-13T00:49:53.862Z</time>
      </trkpt>
      <trkpt lat="43.65317" lon="1.41223">
        <ele>128.41698675249</ele>
        <time>2021-10-13T00:50:05.979Z</time>
      </trkpt>
      <trkpt lat="43.65179" lon="1.41278">
        <ele>128.58172752305</ele>
        <time>2021-10-13T00:50:18.119Z</time>
      </trkpt>
      <trkpt lat="43.65171" lon="1.41284">
        <ele>128.67969564008</ele>
        <time>2021-10-13T00:50:30.260Z</time>
      </trkpt>
      <trkpt lat="43.65083" lon="1.41333">
        <ele>128.77724826207</ele>
        <time>2021-10-13T00:50:42.416Z</time>
      </trkpt>
      <trkpt lat="43.65074" lon="1.41336">
        <ele>128.91625816836</ele>
        <time>2021-10-13T00:50:54.574Z</time>
      </trkpt>
      <trkpt lat="43.65041" lon="1.41346">
        <ele>129.08810584189</ele>
        <time>2021-10-13T00:51:06.737Z</time>
      </trkpt>
      <trkpt lat="43.65017" lon="1.41351">
        <ele>129.26210578449</ele>
        <time>2021-10-13T00:51:18.904Z</time>
      </trkpt>
      <trkpt lat="43.65007" lon="1.41355">
        <ele>129.43686193924</ele>
        <time>2021-10-13T00:51:31.073Z</time>
      </trkpt>
      <trkpt lat="43.64968" lon="1.41363">
        <ele>129.63263106214</ele>
        <time>2021-10-13T00:51:43.248Z</time>
      </trkpt>
      <trkpt lat="43.64879" lon="1.41378">
        <ele>129.84263056584</ele>
        <time>2021-10-13T00:51:55.437Z</time>
      </trkpt>
      <trkpt lat="43.64879" lon="1.41378">
        <ele>130.03302414259</ele>
        <time>2021-10-13T00:52:07.626Z</time>
      </trkpt>
      <trkpt lat="43.64848" lon="1.41385">
        <ele>130.21587409025</ele>
        <time>2021-10-13T00:52:19.820Z</time>
      </trkpt>
      <trkpt lat="43.64778" lon="1.41408">
        <ele>130.46191147671</ele>
        <time>2021-10-13T00:52:32.026Z</time>
      </trkpt>
      <trkpt lat="43.64756" lon="1.41418">
        <ele>130.68927899601</ele>
        <time>2021-10-13T00:52:44.236Z</time>
      </trkpt>
      <trkpt lat="43.64751" lon="1.41423">
        <ele>130.90464163548</ele>
        <time>2021-10-13T00:52:56.447Z</time>
      </trkpt>
      <trkpt lat="43.64749" lon="1.41433">
        <ele>131.12363215262</ele>
        <time>2021-10-13T00:53:08.659Z</time>
      </trkpt>
      <trkpt lat="43.64737" lon="1.41428">
        <ele>131.3405696747</ele>
        <time>2021-10-13T00:53:20.873Z</time>
      </trkpt>
      <trkpt lat="43.64731" lon="1.41428">
        <ele>131.55839926651</ele>
        <time>2021-10-13T00:53:33.088Z</time>
      </trkpt>
      <trkpt lat="43.64693" lon="1.41439">
        <ele>131.7613524956</ele>
        <time>2021-10-13T00:53:45.309Z</time>
      </trkpt>
      <trkpt lat="43.64651" lon="1.41449">
        <ele>131.9871040057</ele>
        <time>2021-10-13T00:53:57.537Z</time>
      </trkpt>
      <trkpt lat="43.64573" lon="1.41456">
        <ele>132.18960344317</ele>
        <time>2021-10-13T00:54:09.777Z</time>
      </trkpt>
      <trkpt lat="43.64509" lon="1.41474">
        <ele>132.31299781022</ele>
        <time>2021-10-13T00:54:22.028Z</time>
      </trkpt>
      <trkpt lat="43.6447" lon="1.41488">
        <ele>132.56962201299</ele>
        <time>2021-10-13T00:54:34.285Z</time>
      </trkpt>
      <trkpt lat="43.64411" lon="1.41513">
        <ele>132.82125087208</ele>
        <time>2021-10-13T00:54:46.552Z</time>
      </trkpt>
      <trkpt lat="43.64347" lon="1.41547">
        <ele>133.09028449317</ele>
        <time>2021-10-13T00:54:58.830Z</time>
      </trkpt>
      <trkpt lat="43.64281" lon="1.41586">
        <ele>132.04971245522</ele>
        <time>2021-10-13T00:55:11.120Z</time>
      </trkpt>
      <trkpt lat="43.64273" lon="1.41573">
        <ele>132.03262342297</ele>
        <time>2021-10-13T00:55:23.412Z</time>
      </trkpt>
      <trkpt lat="43.64252" lon="1.41529">
        <ele>131.95422700877</ele>
        <time>2021-10-13T00:55:35.710Z</time>
      </trkpt>
      <trkpt lat="43.6422" lon="1.4146">
        <ele>131.8591790172</ele>
        <time>2021-10-13T00:55:48.017Z</time>
      </trkpt>
      <trkpt lat="43.6422" lon="1.4146">
        <ele>131.79010032178</ele>
        <time>2021-10-13T00:56:00.324Z</time>
      </trkpt>
      <trkpt lat="43.64206" lon="1.41431">
        <ele>131.71307823782</ele>
        <time>2021-10-13T00:56:12.635Z</time>
      </trkpt>
      <trkpt lat="43.64198" lon="1.41416">
        <ele>131.61547389129</ele>
        <time>2021-10-13T00:56:24.948Z</time>
      </trkpt>
      <trkpt lat="43.64189" lon="1.41408">
        <ele>131.50168011382</ele>
        <time>2021-10-13T00:56:37.263Z</time>
      </trkpt>
      <trkpt lat="43.64184" lon="1.41406">
        <ele>131.36929194687</ele>
        <time>2021-10-13T00:56:49.579Z</time>
      </trkpt>
      <trkpt lat="43.64184" lon="1.41393">
        <ele>131.22119666837</ele>
        <time>2021-10-13T00:57:01.896Z</time>
      </trkpt>
      <trkpt lat="43.64182" lon="1.4138">
        <ele>131.06143191615</ele>
        <time>2021-10-13T00:57:14.215Z</time>
      </trkpt>
      <trkpt lat="43.64178" lon="1.41376">
        <ele>130.89209034369</ele>
        <time>2021-10-13T00:57:26.535Z</time>
      </trkpt>
      <trkpt lat="43.64162" lon="1.41349">
        <ele>130.7156397568</ele>
        <time>2021-10-13T00:57:38.859Z</time>
      </trkpt>
      <trkpt lat="43.64087" lon="1.41253">
        <ele>130.5045403468</ele>
        <time>2021-10-13T00:57:51.199Z</time>
      </trkpt>
      <trkpt lat="43.63929" lon="1.41082">
        <ele>130.16815538859</ele>
        <time>2021-10-13T00:58:03.571Z</time>
      </trkpt>
      <trkpt lat="43.63911" lon="1.41061">
        <ele>129.99788201701</ele>
        <time>2021-10-13T00:58:15.947Z</time>
      </trkpt>
      <trkpt lat="43.63907" lon="1.41053">
        <ele>129.84842957044</ele>
        <time>2021-10-13T00:58:28.324Z</time>
      </trkpt>
      <trkpt lat="43.63884" lon="1.41028">
        <ele>129.71079137119</ele>
        <time>2021-10-13T00:58:40.706Z</time>
      </trkpt>
      <trkpt lat="43.63879" lon="1.41021">
        <ele>129.58596111261</ele>
        <time>2021-10-13T00:58:53.089Z</time>
      </trkpt>
      <trkpt lat="43.63871" lon="1.41014">
        <ele>129.47726438652</ele>
        <time>2021-10-13T00:59:05.473Z</time>
      </trkpt>
      <trkpt lat="43.63871" lon="1.41014">
        <ele>129.38252395295</ele>
        <time>2021-10-13T00:59:17.857Z</time>
      </trkpt>
      <trkpt lat="43.63864" lon="1.4101">
        <ele>129.30489714107</ele>
        <time>2021-10-13T00:59:30.243Z</time>
      </trkpt>
      <trkpt lat="43.63855" lon="1.41008">
        <ele>129.24400540085</ele>
        <time>2021-10-13T00:59:42.630Z</time>
      </trkpt>
      <trkpt lat="43.63846" lon="1.4101">
        <ele>129.19613350846</ele>
        <time>2021-10-13T00:59:55.019Z</time>
      </trkpt>
      <trkpt lat="43.63827" lon="1.41018">
        <ele>129.16267554801</ele>
        <time>2021-10-13T01:00:07.411Z</time>
      </trkpt>
      <trkpt lat="43.63816" lon="1.41024">
        <ele>129.13987477101</ele>
        <time>2021-10-13T01:00:19.805Z</time>
      </trkpt>
      <trkpt lat="43.6381" lon="1.41029">
        <ele>129.13016649462</ele>
        <time>2021-10-13T01:00:32.200Z</time>
      </trkpt>
      <trkpt lat="43.63808" lon="1.41038">
        <ele>129.13255574167</ele>
        <time>2021-10-13T01:00:44.596Z</time>
      </trkpt>
      <trkpt lat="43.63812" lon="1.41063">
        <ele>129.15594111169</ele>
        <time>2021-10-13T01:00:56.995Z</time>
      </trkpt>
      <trkpt lat="43.63812" lon="1.41063">
        <ele>129.14886605878</ele>
        <time>2021-10-13T01:01:09.394Z</time>
      </trkpt>
      <trkpt lat="43.63812" lon="1.41065">
        <ele>129.1450039139</ele>
        <time>2021-10-13T01:01:21.793Z</time>
      </trkpt>
      <trkpt lat="43.63817" lon="1.41077">
        <ele>129.1344514748</ele>
        <time>2021-10-13T01:01:34.194Z</time>
      </trkpt>
      <trkpt lat="43.63817" lon="1.41095">
        <ele>129.12302499247</ele>
        <time>2021-10-13T01:01:46.597Z</time>
      </trkpt>
      <trkpt lat="43.63816" lon="1.41101">
        <ele>129.10659332402</ele>
        <time>2021-10-13T01:01:59.001Z</time>
      </trkpt>
      <trkpt lat="43.63811" lon="1.4111">
        <ele>129.08743921373</ele>
        <time>2021-10-13T01:02:11.406Z</time>
      </trkpt>
      <trkpt lat="43.63768" lon="1.41142">
        <ele>129.17485330786</ele>
        <time>2021-10-13T01:02:23.819Z</time>
      </trkpt>
      <trkpt lat="43.63745" lon="1.41166">
        <ele>129.07506476601</ele>
        <time>2021-10-13T01:02:36.236Z</time>
      </trkpt>
      <trkpt lat="43.63714" lon="1.41199">
        <ele>128.96211150364</ele>
        <time>2021-10-13T01:02:48.660Z</time>
      </trkpt>
      <trkpt lat="43.63702" lon="1.41209">
        <ele>128.884443537</ele>
        <time>2021-10-13T01:03:01.086Z</time>
      </trkpt>
      <trkpt lat="43.63686" lon="1.41218">
        <ele>128.79657110327</ele>
        <time>2021-10-13T01:03:13.515Z</time>
      </trkpt>
      <trkpt lat="43.63641" lon="1.41145">
        <ele>128.63088540205</ele>
        <time>2021-10-13T01:03:25.955Z</time>
      </trkpt>
      <trkpt lat="43.63587" lon="1.41091">
        <ele>128.48163080581</ele>
        <time>2021-10-13T01:03:38.405Z</time>
      </trkpt>
      <trkpt lat="43.63566" lon="1.4106">
        <ele>128.36808999276</ele>
        <time>2021-10-13T01:03:50.860Z</time>
      </trkpt>
      <trkpt lat="43.63446" lon="1.40863">
        <ele>128.30753516698</ele>
        <time>2021-10-13T01:04:03.345Z</time>
      </trkpt>
      <trkpt lat="43.63406" lon="1.40802">
        <ele>128.20448516561</ele>
        <time>2021-10-13T01:04:15.840Z</time>
      </trkpt>
      <trkpt lat="43.63388" lon="1.40777">
        <ele>128.08455970364</ele>
        <time>2021-10-13T01:04:28.339Z</time>
      </trkpt>
      <trkpt lat="43.63345" lon="1.40732">
        <ele>127.94400433173</ele>
        <time>2021-10-13T01:04:40.846Z</time>
      </trkpt>
      <trkpt lat="43.63297" lon="1.40693">
        <ele>127.83674807244</ele>
        <time>2021-10-13T01:04:53.362Z</time>
      </trkpt>
      <trkpt lat="43.63278" lon="1.4068">
        <ele>127.80571189511</ele>
        <time>2021-10-13T01:05:05.882Z</time>
      </trkpt>
      <trkpt lat="43.63241" lon="1.40658">
        <ele>127.8517222705</ele>
        <time>2021-10-13T01:05:18.408Z</time>
      </trkpt>
      <trkpt lat="43.63222" lon="1.4065">
        <ele>127.92548286767</ele>
        <time>2021-10-13T01:05:30.937Z</time>
      </trkpt>
      <trkpt lat="43.63222" lon="1.4065">
        <ele>128.00619984875</ele>
        <time>2021-10-13T01:05:43.466Z</time>
      </trkpt>
      <trkpt lat="43.63213" lon="1.40645">
        <ele>128.12666059233</ele>
        <time>2021-10-13T01:05:55.997Z</time>
      </trkpt>
      <trkpt lat="43.63168" lon="1.40632">
        <ele>128.30721887878</ele>
        <time>2021-10-13T01:06:08.535Z</time>
      </trkpt>
      <trkpt lat="43.63168" lon="1.40632">
        <ele>128.45384391112</ele>
        <time>2021-10-13T01:06:21.073Z</time>
      </trkpt>
      <trkpt lat="43.63118" lon="1.40617">
        <ele>128.67420498182</ele>
        <time>2021-10-13T01:06:33.619Z</time>
      </trkpt>
      <trkpt lat="43.62857" lon="1.40547">
        <ele>128.82750230534</ele>
        <time>2021-10-13T01:06:46.208Z</time>
      </trkpt>
      <trkpt lat="43.62789" lon="1.40525">
        <ele>129.06861931864</ele>
        <time>2021-10-13T01:06:58.808Z</time>
      </trkpt>
      <trkpt lat="43.62722" lon="1.40499">
        <ele>129.32892239595</ele>
        <time>2021-10-13T01:07:11.419Z</time>
      </trkpt>
      <trkpt lat="43.62672" lon="1.4048">
        <ele>129.55391121654</ele>
        <time>2021-10-13T01:07:24.039Z</time>
      </trkpt>
      <trkpt lat="43.62672" lon="1.4048">
        <ele>129.72713703481</ele>
        <time>2021-10-13T01:07:36.659Z</time>
      </trkpt>
      <trkpt lat="43.626" lon="1.40451">
        <ele>129.90797902911</ele>
        <time>2021-10-13T01:07:49.291Z</time>
      </trkpt>
      <trkpt lat="43.6255" lon="1.40404">
        <ele>130.07137353813</ele>
        <time>2021-10-13T01:08:01.932Z</time>
      </trkpt>
      <trkpt lat="43.62516" lon="1.40347">
        <ele>130.28545882982</ele>
        <time>2021-10-13T01:08:14.582Z</time>
      </trkpt>
      <trkpt lat="43.62504" lon="1.40319">
        <ele>130.45919909179</ele>
        <time>2021-10-13T01:08:27.236Z</time>
      </trkpt>
      <trkpt lat="43.62495" lon="1.40295">
        <ele>130.57571396943</ele>
        <time>2021-10-13T01:08:39.893Z</time>
      </trkpt>
      <trkpt lat="43.62495" lon="1.40295">
        <ele>130.69698001486</ele>
        <time>2021-10-13T01:08:52.550Z</time>
      </trkpt>
      <trkpt lat="43.62493" lon="1.40289">
        <ele>130.80803327876</ele>
        <time>2021-10-13T01:09:05.208Z</time>
      </trkpt>
      <trkpt lat="43.62484" lon="1.40284">
        <ele>130.90413099531</ele>
        <time>2021-10-13T01:09:17.867Z</time>
      </trkpt>
      <trkpt lat="43.62476" lon="1.4027">
        <ele>131.00666640345</ele>
        <time>2021-10-13T01:09:30.528Z</time>
      </trkpt>
      <trkpt lat="43.62469" lon="1.40272">
        <ele>131.12350054755</ele>
        <time>2021-10-13T01:09:43.190Z</time>
      </trkpt>
      <trkpt lat="43.62461" lon="1.40277">
        <ele>131.24796708833</ele>
        <time>2021-10-13T01:09:55.854Z</time>
      </trkpt>
      <trkpt lat="43.6246" lon="1.40299">
        <ele>131.40422153192</ele>
        <time>2021-10-13T01:10:08.520Z</time>
      </trkpt>
      <trkpt lat="43.62457" lon="1.40327">
        <ele>131.54823046237</ele>
        <time>2021-10-13T01:10:21.190Z</time>
      </trkpt>
      <trkpt lat="43.62452" lon="1.40369">
        <ele>131.72703312854</ele>
        <time>2021-10-13T01:10:33.864Z</time>
      </trkpt>
      <trkpt lat="43.62437" lon="1.404">
        <ele>131.94967476856</ele>
        <time>2021-10-13T01:10:46.543Z</time>
      </trkpt>
      <trkpt lat="43.6243" lon="1.40408">
        <ele>132.19961383361</ele>
        <time>2021-10-13T01:10:59.223Z</time>
      </trkpt>
      <trkpt lat="43.62413" lon="1.40431">
        <ele>132.46388851768</ele>
        <time>2021-10-13T01:11:11.907Z</time>
      </trkpt>
      <trkpt lat="43.62384" lon="1.40448">
        <ele>132.74092640398</ele>
        <time>2021-10-13T01:11:24.596Z</time>
      </trkpt>
      <trkpt lat="43.62325" lon="1.4048">
        <ele>133.08386137095</ele>
        <time>2021-10-13T01:11:37.295Z</time>
      </trkpt>
      <trkpt lat="43.62319" lon="1.40483">
        <ele>133.14852525314</ele>
        <time>2021-10-13T01:11:49.995Z</time>
      </trkpt>
      <trkpt lat="43.62311" lon="1.40479">
        <ele>133.16904992334</ele>
        <time>2021-10-13T01:12:02.697Z</time>
      </trkpt>
      <trkpt lat="43.62265" lon="1.40504">
        <ele>133.14528708157</ele>
        <time>2021-10-13T01:12:15.407Z</time>
      </trkpt>
      <trkpt lat="43.62234" lon="1.40523">
        <ele>132.99163835973</ele>
        <time>2021-10-13T01:12:28.122Z</time>
      </trkpt>
      <trkpt lat="43.6223" lon="1.40531">
        <ele>132.99661297645</ele>
        <time>2021-10-13T01:12:40.838Z</time>
      </trkpt>
      <trkpt lat="43.62225" lon="1.40535">
        <ele>133.02009097148</ele>
        <time>2021-10-13T01:12:53.555Z</time>
      </trkpt>
      <trkpt lat="43.62222" lon="1.4054">
        <ele>133.02352617181</ele>
        <time>2021-10-13T01:13:06.273Z</time>
      </trkpt>
      <trkpt lat="43.62217" lon="1.40542">
        <ele>133.01216894035</ele>
        <time>2021-10-13T01:13:18.992Z</time>
      </trkpt>
      <trkpt lat="43.62213" lon="1.40548">
        <ele>132.98077366039</ele>
        <time>2021-10-13T01:13:31.712Z</time>
      </trkpt>
      <trkpt lat="43.62211" lon="1.40561">
        <ele>132.92899005183</ele>
        <time>2021-10-13T01:13:44.433Z</time>
      </trkpt>
      <trkpt lat="43.62212" lon="1.40567">
        <ele>132.85539787241</ele>
        <time>2021-10-13T01:13:57.155Z</time>
      </trkpt>
      <trkpt lat="43.62217" lon="1.40577">
        <ele>132.75844059967</ele>
        <time>2021-10-13T01:14:09.878Z</time>
      </trkpt>
      <trkpt lat="43.62216" lon="1.40584">
        <ele>132.67546780766</ele>
        <time>2021-10-13T01:14:22.602Z</time>
      </trkpt>
      <trkpt lat="43.62214" lon="1.40592">
        <ele>132.59690373433</ele>
        <time>2021-10-13T01:14:35.327Z</time>
      </trkpt>
      <trkpt lat="43.62215" lon="1.406">
        <ele>132.5252531585</ele>
        <time>2021-10-13T01:14:48.053Z</time>
      </trkpt>
      <trkpt lat="43.62215" lon="1.406">
        <ele>132.36916430631</ele>
        <time>2021-10-13T01:15:00.779Z</time>
      </trkpt>
      <trkpt lat="43.62328" lon="1.40819">
        <ele>132.32592654746</ele>
        <time>2021-10-13T01:15:13.536Z</time>
      </trkpt>
      <trkpt lat="43.62276" lon="1.40819">
        <ele>131.68502535556</ele>
        <time>2021-10-13T01:15:26.302Z</time>
      </trkpt>
      <trkpt lat="43.62226" lon="1.40819">
        <ele>132.17469977419</ele>
        <time>2021-10-13T01:15:39.076Z</time>
      </trkpt>
      <trkpt lat="43.62226" lon="1.40819">
        <ele>132.12955866373</ele>
        <time>2021-10-13T01:15:51.850Z</time>
      </trkpt>
    </trkseg>
  </trk>
</gpx>